Darstellungsparameter: Aktuell verwendete Einstellungen:
Skalierung der Graphiken ... ?
xyx+y,   Skalierungsfaktor:      Skalierung: Modus: x, Faktor: 1
Darstellungszeitraum ... ?
Vom - - bis: - -   Zeitraum: 13.07.2019 - 12.07.2020
Min/Max/Avg-Anzeige ... ?
Zeige MMA aktuell
Zeige MMA Monat
Zeige MMA alles
Zeige --A aktuell
Zeige --A Monat
Zeige --A alles
Keine MMA-Anzeige
MMA:
Keine MMA-Graphiken
MMA-Basis: 13.07.2019 - 12.07.2020
Quicknavigation für Darstellung... ?
Tage:      1T, 2T, 3T, 5T -1T -2T -3T -5T +1T +2T +3T +5T
Wochen: 1W, 2W, 3W -1W -2W -3W +1W +2W +3W
Monate: 1M, 3M, 6M -1M -3M -6M +1M +3M +6M
Jahre:    1J, 3J, 5J, 10J -1J -3J -5J -10J +1J +3J +5J +10J
Nutze für die Darstellung ... ?
Originaldaten oder ...
Mittelwerte Minima Maxima auf...
Stundenbasis Tagesbasis Wochenbasis
Monatsbasis Jahresbasis      Datenbasis: Mittelwerte auf Stundenbasis
Darstellen als:
Statistik (Auto) Statistik J:M      Darstellung:
Zur Graphik,    zurück zur Übersicht aller Sensoren.
 
Tabellarische Datenbersicht: ?
 
Sensor: Nr:Datum:Temp:Abs-Feuchte:Windchill:Wind:
Aussen-T/F 1 13-07-2019 00:00:00 16.34167 C 12.05 g/m*3 16.34 C 4.55 km/h
2 13-07-2019 01:00:00 16.13333 C 12.35 g/m*3 16.13 C 4.14167 km/h
3 13-07-2019 02:00:00 15.51667 C 12.44 g/m*3 15.52 C 0.53333 km/h
4 13-07-2019 03:00:00 15.175 C 12.3 g/m*3 15.18 C 2.14167 km/h
5 13-07-2019 04:00:00 14.99167 C 12.19 g/m*3 14.99 C 1.875 km/h
6 13-07-2019 05:00:00 14.90833 C 12.24 g/m*3 14.91 C 0 km/h
7 13-07-2019 06:00:00 14.75 C 12.12 g/m*3 14.75 C 1.2 km/h
8 13-07-2019 07:00:00 14.93333 C 12.28 g/m*3 14.93 C 1.06667 km/h
9 13-07-2019 08:00:00 15.61667 C 12.8 g/m*3 15.62 C 1.2 km/h
10 13-07-2019 09:00:00 15.83333 C 12.88 g/m*3 15.83 C 1.46667 km/h
11 13-07-2019 10:00:00 16.5 C 12.78 g/m*3 16.5 C 5.9 km/h
12 13-07-2019 11:00:00 17.51667 C 13.18 g/m*3 17.52 C 5.64167 km/h
13 13-07-2019 12:00:00 18.75833 C 13.09 g/m*3 18.76 C 4.675 km/h
14 13-07-2019 13:00:00 19.725 C 12.91 g/m*3 19.73 C 9.8 km/h
15 13-07-2019 14:00:00 21.15 C 12.8 g/m*3 21.15 C 13.16667 km/h
16 13-07-2019 15:00:00 21.18333 C 13.16 g/m*3 21.18 C 14.35833 km/h
17 13-07-2019 16:00:00 20.90833 C 12.56 g/m*3 20.91 C 13.425 km/h
18 13-07-2019 17:00:00 21.84167 C 12.92 g/m*3 21.84 C 11.7 km/h
19 13-07-2019 18:00:00 22.38333 C 12.75 g/m*3 22.38 C 10.625 km/h
20 13-07-2019 19:00:00 22.70833 C 12.73 g/m*3 22.71 C 9 km/h
21 13-07-2019 20:00:00 20.45833 C 12.45 g/m*3 20.46 C 8.475 km/h
22 13-07-2019 21:00:00 19.2 C 12.74 g/m*3 19.2 C 4.425 km/h
23 13-07-2019 22:00:00 18.225 C 13.24 g/m*3 18.23 C 2.425 km/h
24 13-07-2019 23:00:00 17.21667 C 13.13 g/m*3 17.22 C 0.26667 km/h
25 14-07-2019 00:00:00 16.95 C 12.95 g/m*3 16.95 C 1.06667 km/h
Sensor: Nr:Datum:Temp:Abs-Feuchte:Windchill:Wind:
Aussen-T/F 26 14-07-2019 01:00:00 16.975 C 12.8 g/m*3 16.98 C 3.48333 km/h
27 14-07-2019 02:00:00 16.35833 C 12.48 g/m*3 16.36 C 6.04167 km/h
28 14-07-2019 03:00:00 15.44167 C 11.98 g/m*3 15.44 C 4.01667 km/h
29 14-07-2019 04:00:00 15.11667 C 11.74 g/m*3 15.12 C 3.2 km/h
30 14-07-2019 05:00:00 14.85 C 11.47 g/m*3 14.85 C 3.48333 km/h
31 14-07-2019 06:00:00 14.71667 C 11.46 g/m*3 14.72 C 3.2 km/h
32 14-07-2019 07:00:00 14.86667 C 11.04 g/m*3 14.87 C 2 km/h
33 14-07-2019 08:00:00 15.40833 C 11.22 g/m*3 15.41 C 4.80833 km/h
34 14-07-2019 09:00:00 15.26667 C 10.97 g/m*3 15.27 C 6.56667 km/h
35 14-07-2019 10:00:00 16.00833 C 10.6 g/m*3 16.01 C 9.29167 km/h
36 14-07-2019 11:00:00 16.83333 C 10.48 g/m*3 16.83 C 9.28333 km/h
37 14-07-2019 12:00:00 17.53333 C 10.37 g/m*3 17.53 C 9.95833 km/h
38 14-07-2019 13:00:00 17.80833 C 10.15 g/m*3 17.81 C 10.1 km/h
39 14-07-2019 14:00:00 18.19167 C 9.99 g/m*3 18.19 C 11.16667 km/h
40 14-07-2019 15:00:00 18.925 C 9.91 g/m*3 18.93 C 10.76667 km/h
41 14-07-2019 16:00:00 19.33333 C 9.78 g/m*3 19.33 C 13.3 km/h
42 14-07-2019 17:00:00 19.34167 C 9.74 g/m*3 19.34 C 9.00833 km/h
43 14-07-2019 18:00:00 18.65833 C 9.88 g/m*3 18.66 C 10.35 km/h
44 14-07-2019 19:00:00 18.36667 C 9.73 g/m*3 18.37 C 10.35833 km/h
45 14-07-2019 20:00:00 17.89167 C 10.07 g/m*3 17.89 C 9.94167 km/h
46 14-07-2019 21:00:00 17.45 C 10.02 g/m*3 17.45 C 7.25 km/h
47 14-07-2019 22:00:00 17.125 C 9.93 g/m*3 17.13 C 3.74167 km/h
48 14-07-2019 23:00:00 16.8 C 10.16 g/m*3 16.8 C 3.60833 km/h
49 15-07-2019 00:00:00 16.06667 C 10.5 g/m*3 16.07 C 1.2 km/h
50 15-07-2019 01:00:00 15.63333 C 10.49 g/m*3 15.63 C 2.675 km/h
Sensor: Nr:Datum:Temp:Abs-Feuchte:Windchill:Wind:
Aussen-T/F 51 15-07-2019 02:00:00 15.55833 C 10.66 g/m*3 15.56 C 0.13333 km/h
52 15-07-2019 03:00:00 14.99167 C 10.7 g/m*3 14.99 C 0 km/h
53 15-07-2019 04:00:00 15.30833 C 10.22 g/m*3 15.31 C 2.66667 km/h
54 15-07-2019 05:00:00 15.65 C 9.93 g/m*3 15.65 C 4.81667 km/h
55 15-07-2019 06:00:00 15.6 C 9.86 g/m*3 15.6 C 3.33333 km/h
56 15-07-2019 07:00:00 15.69167 C 9.9 g/m*3 15.69 C 5.49167 km/h
57 15-07-2019 08:00:00 15.83333 C 9.99 g/m*3 15.83 C 6.7 km/h
58 15-07-2019 09:00:00 16.53333 C 10.05 g/m*3 16.53 C 6.44167 km/h
59 15-07-2019 10:00:00 16.8 C 10.32 g/m*3 16.8 C 5.48333 km/h
60 15-07-2019 11:00:00 16.84167 C 10.67 g/m*3 16.84 C 7.525 km/h
61 15-07-2019 12:00:00 17.10833 C 10.61 g/m*3 17.11 C 9.7 km/h
62 15-07-2019 13:00:00 17.49167 C 10.39 g/m*3 17.49 C 11.43333 km/h
63 15-07-2019 14:00:00 18.09167 C 10.24 g/m*3 18.09 C 12.49167 km/h
64 15-07-2019 15:00:00 17.68333 C 10.24 g/m*3 17.68 C 10.75833 km/h
65 15-07-2019 16:00:00 17.11667 C 10.27 g/m*3 17.12 C 8.73333 km/h
66 15-07-2019 17:00:00 16.775 C 10.23 g/m*3 16.77 C 8.74167 km/h
67 15-07-2019 18:00:00 16.69167 C 10.17 g/m*3 16.69 C 6.56667 km/h
68 15-07-2019 19:00:00 16.78333 C 10.14 g/m*3 16.78 C 5.09167 km/h
69 15-07-2019 20:00:00 16.69167 C 10.1 g/m*3 16.69 C 4.01667 km/h
70 15-07-2019 21:00:00 16.34167 C 10.28 g/m*3 16.34 C 2.13333 km/h
71 15-07-2019 22:00:00 15.61667 C 10.58 g/m*3 15.62 C 0 km/h
72 15-07-2019 23:00:00 15.44167 C 10.18 g/m*3 15.44 C 0.93333 km/h
73 16-07-2019 00:00:00 14.75 C 10.08 g/m*3 14.75 C 0 km/h
74 16-07-2019 01:00:00 13.675 C 9.5 g/m*3 13.68 C 0 km/h
75 16-07-2019 02:00:00 12.23333 C 9.25 g/m*3 12.23 C 0 km/h
Sensor: Nr:Datum:Temp:Abs-Feuchte:Windchill:Wind:
Aussen-T/F 76 16-07-2019 03:00:00 10.9 C 8.98 g/m*3 10.9 C 0 km/h
77 16-07-2019 04:00:00 10.28333 C 8.83 g/m*3 10.28 C 0 km/h
78 16-07-2019 05:00:00 9.98333 C 8.75 g/m*3 9.98 C 0 km/h
79 16-07-2019 06:00:00 10.125 C 8.94 g/m*3 10.13 C 1.33333 km/h
80 16-07-2019 07:00:00 11.01667 C 9.39 g/m*3 11.02 C 4.4 km/h
81 16-07-2019 08:00:00 12.625 C 10.06 g/m*3 12.63 C 2.4 km/h
82 16-07-2019 09:00:00 14.58333 C 10.52 g/m*3 14.58 C 4.15 km/h
83 16-07-2019 10:00:00 15.51667 C 10.25 g/m*3 15.52 C 6.84167 km/h
84 16-07-2019 11:00:00 15.99167 C 10.17 g/m*3 15.99 C 9.66667 km/h
85 16-07-2019 12:00:00 16.725 C 10.22 g/m*3 16.73 C 10.49167 km/h
86 16-07-2019 13:00:00 17.40833 C 10.29 g/m*3 17.41 C 8.46667 km/h
87 16-07-2019 14:00:00 18.38333 C 10.45 g/m*3 18.38 C 9.95 km/h
88 16-07-2019 15:00:00 20.325 C 10.73 g/m*3 20.33 C 7.78333 km/h
89 16-07-2019 16:00:00 22.31667 C 10.84 g/m*3 22.32 C 8.325 km/h
90 16-07-2019 17:00:00 22.8 C 10.79 g/m*3 22.8 C 9.55833 km/h
91 16-07-2019 18:00:00 23.075 C 10.73 g/m*3 23.08 C 8.05833 km/h
92 16-07-2019 19:00:00 22.125 C 10.59 g/m*3 22.13 C 8.89167 km/h
93 16-07-2019 20:00:00 20.81667 C 10.57 g/m*3 20.82 C 6.45 km/h
94 16-07-2019 21:00:00 18.30833 C 10.98 g/m*3 18.31 C 0.53333 km/h
95 16-07-2019 22:00:00 15.85 C 10.64 g/m*3 15.85 C 0 km/h
96 16-07-2019 23:00:00 15.08333 C 10.54 g/m*3 15.08 C 0 km/h
97 17-07-2019 00:00:00 14.09167 C 10.23 g/m*3 14.09 C 0 km/h
98 17-07-2019 01:00:00 13.08333 C 10.06 g/m*3 13.08 C 0 km/h
99 17-07-2019 02:00:00 12.40833 C 9.81 g/m*3 12.41 C 0 km/h
100 17-07-2019 03:00:00 11.64167 C 9.54 g/m*3 11.64 C 0 km/h
Sensor: Nr:Datum:Temp:Abs-Feuchte:Windchill:Wind:
Aussen-T/F 101 17-07-2019 04:00:00 11.225 C 9.42 g/m*3 11.23 C 0.26667 km/h
102 17-07-2019 05:00:00 10.83333 C 9.29 g/m*3 10.83 C 0 km/h
103 17-07-2019 06:00:00 10.74167 C 9.31 g/m*3 10.74 C 0 km/h
104 17-07-2019 07:00:00 11.51667 C 9.83 g/m*3 11.52 C 0 km/h
105 17-07-2019 08:00:00 12.79167 C 10.58 g/m*3 12.79 C 0 km/h
106 17-07-2019 09:00:00 14.85833 C 11.26 g/m*3 14.86 C 1.86667 km/h
107 17-07-2019 10:00:00 17.23333 C 11.36 g/m*3 17.23 C 5.35833 km/h
108 17-07-2019 11:00:00 18.58333 C 11.4 g/m*3 18.58 C 6.58333 km/h
109 17-07-2019 12:00:00 19.39167 C 11.46 g/m*3 19.39 C 7.375 km/h
110 17-07-2019 13:00:00 20.5 C 11.2 g/m*3 20.5 C 8.88333 km/h
111 17-07-2019 14:00:00 21.69167 C 11.23 g/m*3 21.69 C 9.13333 km/h
112 17-07-2019 15:00:00 22.69167 C 11.71 g/m*3 22.69 C 12.63333 km/h
113 17-07-2019 16:00:00 23.675 C 11.73 g/m*3 23.68 C 11.55833 km/h
114 17-07-2019 17:00:00 24.575 C 11.91 g/m*3 24.58 C 10.225 km/h
115 17-07-2019 18:00:00 24.24167 C 11.95 g/m*3 24.24 C 11.3 km/h
116 17-07-2019 19:00:00 23.20833 C 12.17 g/m*3 23.21 C 10.23333 km/h
117 17-07-2019 20:00:00 21.525 C 12.13 g/m*3 21.53 C 8.74167 km/h
118 17-07-2019 21:00:00 19.69167 C 11.99 g/m*3 19.69 C 2.68333 km/h
119 17-07-2019 22:00:00 17.05 C 11.61 g/m*3 17.05 C 0.13333 km/h
120 17-07-2019 23:00:00 16.025 C 11.53 g/m*3 16.02 C 0 km/h
121 18-07-2019 00:00:00 15.29167 C 11.24 g/m*3 15.29 C 0 km/h
122 18-07-2019 01:00:00 14.29167 C 10.87 g/m*3 14.29 C 0 km/h
123 18-07-2019 02:00:00 13.69167 C 10.8 g/m*3 13.69 C 0 km/h
124 18-07-2019 03:00:00 13.45833 C 10.76 g/m*3 13.46 C 0 km/h
125 18-07-2019 04:00:00 13.24167 C 10.7 g/m*3 13.24 C 0 km/h
Sensor: Nr:Datum:Temp:Abs-Feuchte:Windchill:Wind:
Aussen-T/F 126 18-07-2019 05:00:00 12.675 C 10.35 g/m*3 12.68 C 0 km/h
127 18-07-2019 06:00:00 12.45833 C 10.34 g/m*3 12.46 C 0 km/h
128 18-07-2019 07:00:00 13.25833 C 10.95 g/m*3 13.26 C 0 km/h
129 18-07-2019 08:00:00 14.31667 C 11.46 g/m*3 14.32 C 0.13333 km/h
130 18-07-2019 09:00:00 16.21667 C 12.3 g/m*3 16.22 C 0 km/h
131 18-07-2019 10:00:00 18.83333 C 13.12 g/m*3 18.83 C 0.13333 km/h
132 18-07-2019 11:00:00 21.89167 C 12.42 g/m*3 21.89 C 5.24167 km/h
133 18-07-2019 12:00:00 24.18333 C 11.91 g/m*3 24.18 C 4.675 km/h
134 18-07-2019 13:00:00 25.71667 C 11.76 g/m*3 25.72 C 6.15 km/h
135 18-07-2019 14:00:00 27.20833 C 10.7 g/m*3 27.21 C 10.325 km/h
136 18-07-2019 15:00:00 26.04167 C 10.96 g/m*3 26.04 C 7.525 km/h
137 18-07-2019 16:00:00 24.76667 C 11.91 g/m*3 24.77 C 6.70833 km/h
138 18-07-2019 17:00:00 24.84167 C 12.8 g/m*3 24.84 C 2.675 km/h
139 18-07-2019 18:00:00 23.975 C 13.63 g/m*3 23.98 C 1.86667 km/h
140 18-07-2019 19:00:00 21.06667 C 13.65 g/m*3 21.07 C 0 km/h
141 18-07-2019 20:00:00 20.86667 C 12.72 g/m*3 20.87 C 0.13333 km/h
142 18-07-2019 21:00:00 20.35 C 12.19 g/m*3 20.35 C 0 km/h
143 18-07-2019 22:00:00 19.66667 C 12.15 g/m*3 19.67 C 0.26667 km/h
144 18-07-2019 23:00:00 19.35833 C 12.07 g/m*3 19.36 C 0 km/h
145 19-07-2019 00:00:00 19.33333 C 12.31 g/m*3 19.33 C 0 km/h
146 19-07-2019 01:00:00 18.45833 C 13.01 g/m*3 18.46 C 0 km/h
147 19-07-2019 02:00:00 17.05833 C 13.06 g/m*3 17.06 C 0 km/h
148 19-07-2019 03:00:00 16.60833 C 13.05 g/m*3 16.61 C 0 km/h
149 19-07-2019 04:00:00 16.375 C 13.02 g/m*3 16.38 C 0 km/h
150 19-07-2019 05:00:00 16.3 C 13.06 g/m*3 16.3 C 0 km/h
Sensor: Nr:Datum:Temp:Abs-Feuchte:Windchill:Wind:
Aussen-T/F 151 19-07-2019 06:00:00 16.35 C 13.22 g/m*3 16.35 C 0 km/h
152 19-07-2019 07:00:00 16.7 C 13.54 g/m*3 16.7 C 0 km/h
153 19-07-2019 08:00:00 17.23333 C 14.09 g/m*3 17.23 C 0.4 km/h
154 19-07-2019 09:00:00 18.025 C 14.59 g/m*3 18.02 C 2.55 km/h
155 19-07-2019 10:00:00 19.275 C 14.96 g/m*3 19.27 C 6.16667 km/h
156 19-07-2019 11:00:00 20.475 C 14.87 g/m*3 20.48 C 6.725 km/h
157 19-07-2019 12:00:00 20.04167 C 14.93 g/m*3 20.04 C 2.94167 km/h
158 19-07-2019 13:00:00 21.975 C 14.5 g/m*3 21.98 C 7.54167 km/h
159 19-07-2019 14:00:00 23.525 C 12.9 g/m*3 23.53 C 10.73333 km/h
160 19-07-2019 15:00:00 24.875 C 12.08 g/m*3 24.88 C 10.76667 km/h
161 19-07-2019 16:00:00 25.21667 C 11.79 g/m*3 25.22 C 10.23333 km/h
162 19-07-2019 17:00:00 25.91667 C 12.02 g/m*3 25.92 C 8.2 km/h
163 19-07-2019 18:00:00 25.43333 C 12.05 g/m*3 25.43 C 6.425 km/h
164 19-07-2019 19:00:00 24.78333 C 13.68 g/m*3 24.78 C 1.6 km/h
165 19-07-2019 20:00:00 23.25833 C 13.4 g/m*3 23.26 C 0.8 km/h
166 19-07-2019 21:00:00 20.90833 C 13.04 g/m*3 20.91 C 0 km/h
167 19-07-2019 22:00:00 19.20833 C 13.05 g/m*3 19.21 C 0 km/h
168 19-07-2019 23:00:00 18.525 C 13.14 g/m*3 18.52 C 0 km/h
169 20-07-2019 00:00:00 17.39167 C 12.76 g/m*3 17.39 C 0 km/h
170 20-07-2019 01:00:00 16.6 C 12.47 g/m*3 16.6 C 0 km/h
171 20-07-2019 02:00:00 15.74167 C 12.14 g/m*3 15.74 C 0 km/h
172 20-07-2019 03:00:00 15.025 C 11.87 g/m*3 15.03 C 0 km/h
173 20-07-2019 04:00:00 14.55833 C 11.66 g/m*3 14.56 C 0 km/h
174 20-07-2019 05:00:00 14.18333 C 11.48 g/m*3 14.18 C 0 km/h
175 20-07-2019 06:00:00 13.96667 C 11.43 g/m*3 13.97 C 0 km/h
Sensor: Nr:Datum:Temp:Abs-Feuchte:Windchill:Wind:
Aussen-T/F 176 20-07-2019 07:00:00 14.56667 C 11.96 g/m*3 14.57 C 0 km/h
177 20-07-2019 08:00:00 15.86667 C 12.97 g/m*3 15.87 C 0 km/h
178 20-07-2019 09:00:00 17.73333 C 14.34 g/m*3 17.73 C 0 km/h
179 20-07-2019 10:00:00 21.4 C 16.36 g/m*3 21.4 C 0 km/h
180 20-07-2019 11:00:00 25.8 C 15.23 g/m*3 25.8 C 7.65 km/h
181 20-07-2019 12:00:00 27.775 C 13.81 g/m*3 27.78 C 12.36667 km/h
182 20-07-2019 13:00:00 28.175 C 13.87 g/m*3 28.18 C 8.6 km/h
183 20-07-2019 14:00:00 30.04167 C 13.8 g/m*3 30.04 C 13.96667 km/h
184 20-07-2019 15:00:00 30.8 C 13.85 g/m*3 30.8 C 10.35 km/h
185 20-07-2019 16:00:00 28.94167 C 18.44 g/m*3 28.94 C 5.09167 km/h
186 20-07-2019 17:00:00 28.35 C 16.89 g/m*3 28.35 C 12.75833 km/h
187 20-07-2019 18:00:00 28.925 C 14.11 g/m*3 28.93 C 10.60833 km/h
188 20-07-2019 19:00:00 27.50833 C 14.18 g/m*3 27.51 C 15.16667 km/h
189 20-07-2019 20:00:00 23.425 C 14.65 g/m*3 23.43 C 3.35 km/h
190 20-07-2019 21:00:00 21.725 C 14.53 g/m*3 21.73 C 0 km/h
191 20-07-2019 22:00:00 20.56667 C 14.31 g/m*3 20.57 C 0 km/h
192 20-07-2019 23:00:00 19.75 C 14.23 g/m*3 19.75 C 0 km/h
193 21-07-2019 00:00:00 19.08333 C 14.03 g/m*3 19.08 C 0 km/h
194 21-07-2019 01:00:00 18.58333 C 13.98 g/m*3 18.58 C 0 km/h
195 21-07-2019 02:00:00 18.875 C 14.19 g/m*3 18.88 C 0 km/h
196 21-07-2019 03:00:00 18.65 C 14.15 g/m*3 18.65 C 0 km/h
197 21-07-2019 04:00:00 17.95 C 13.68 g/m*3 17.95 C 0 km/h
198 21-07-2019 05:00:00 17.46667 C 13.56 g/m*3 17.47 C 0 km/h
199 21-07-2019 06:00:00 17.73333 C 13.86 g/m*3 17.73 C 0 km/h
200 21-07-2019 07:00:00 18.5 C 14.11 g/m*3 18.5 C 0 km/h
Sensor: Nr:Datum:Temp:Abs-Feuchte:Windchill:Wind:
Aussen-T/F 201 21-07-2019 08:00:00 19.34167 C 13.37 g/m*3 19.34 C 2.4 km/h
202 21-07-2019 09:00:00 20.30833 C 13.02 g/m*3 20.31 C 7.53333 km/h
203 21-07-2019 10:00:00 21.85833 C 12.75 g/m*3 21.86 C 7.25 km/h
204 21-07-2019 11:00:00 23.79167 C 11.57 g/m*3 23.79 C 11.41667 km/h
205 21-07-2019 12:00:00 24.96667 C 11.74 g/m*3 24.97 C 11.55833 km/h
206 21-07-2019 13:00:00 24.95833 C 12.23 g/m*3 24.96 C 9.15 km/h
207 21-07-2019 14:00:00 26.01667 C 12.45 g/m*3 26.02 C 9.825 km/h
208 21-07-2019 15:00:00 26.84167 C 12.33 g/m*3 26.84 C 11.55833 km/h
209 21-07-2019 16:00:00 27.76667 C 12.33 g/m*3 27.77 C 10.09167 km/h
210 21-07-2019 17:00:00 27.275 C 12.43 g/m*3 27.28 C 11.16667 km/h
211 21-07-2019 18:00:00 26.44167 C 12.29 g/m*3 26.44 C 9.41667 km/h
212 21-07-2019 19:00:00 25.40833 C 12.29 g/m*3 25.41 C 8.2 km/h
213 21-07-2019 20:00:00 24.4 C 12.2 g/m*3 24.4 C 7.51667 km/h
214 21-07-2019 21:00:00 22.64167 C 12.32 g/m*3 22.64 C 0.93333 km/h
215 21-07-2019 22:00:00 19.85 C 12.25 g/m*3 19.85 C 0 km/h
216 21-07-2019 23:00:00 18.35 C 12.26 g/m*3 18.35 C 0 km/h
217 22-07-2019 00:00:00 17.075 C 11.79 g/m*3 17.08 C 0 km/h
218 22-07-2019 01:00:00 16.15833 C 11.58 g/m*3 16.16 C 0 km/h
219 22-07-2019 02:00:00 15.64167 C 11.65 g/m*3 15.64 C 0 km/h
220 22-07-2019 03:00:00 15.33333 C 11.56 g/m*3 15.33 C 0 km/h
221 22-07-2019 04:00:00 14.74167 C 11.3 g/m*3 14.74 C 0 km/h
222 22-07-2019 05:00:00 14.3 C 11.17 g/m*3 14.3 C 0 km/h
223 22-07-2019 06:00:00 14.175 C 11.2 g/m*3 14.18 C 0 km/h
224 22-07-2019 07:00:00 14.725 C 11.7 g/m*3 14.73 C 0 km/h
225 22-07-2019 08:00:00 16.28333 C 12.37 g/m*3 16.28 C 0 km/h
Sensor: Nr:Datum:Temp:Abs-Feuchte:Windchill:Wind:
Aussen-T/F 226 22-07-2019 09:00:00 18.20833 C 13.05 g/m*3 18.21 C 0 km/h
227 22-07-2019 10:00:00 20.80833 C 13.45 g/m*3 20.81 C 0 km/h
228 22-07-2019 11:00:00 24.00833 C 12.62 g/m*3 24.01 C 5.225 km/h
229 22-07-2019 12:00:00 25.55833 C 12.49 g/m*3 25.56 C 9.13333 km/h
230 22-07-2019 13:00:00 26.41667 C 12.5 g/m*3 26.42 C 7.93333 km/h
231 22-07-2019 14:00:00 27.775 C 12.29 g/m*3 27.78 C 6.99167 km/h
232 22-07-2019 15:00:00 29.05 C 12.41 g/m*3 29.05 C 9.55833 km/h
233 22-07-2019 16:00:00 30.80833 C 12.27 g/m*3 30.81 C 10.75833 km/h
234 22-07-2019 17:00:00 31.51667 C 12.12 g/m*3 31.52 C 7.79167 km/h
235 22-07-2019 18:00:00 32.31667 C 12.13 g/m*3 32.32 C 6.575 km/h
236 22-07-2019 19:00:00 31.475 C 11.93 g/m*3 31.48 C 7.375 km/h
237 22-07-2019 20:00:00 29.425 C 12.62 g/m*3 29.43 C 6.56667 km/h
238 22-07-2019 21:00:00 25.59167 C 13.44 g/m*3 25.59 C 0 km/h
239 22-07-2019 22:00:00 22.85 C 12.97 g/m*3 22.85 C 0 km/h
240 22-07-2019 23:00:00 20.925 C 12.95 g/m*3 20.93 C 0 km/h
241 23-07-2019 00:00:00 19.4 C 12.72 g/m*3 19.4 C 0 km/h
242 23-07-2019 01:00:00 18.375 C 12.54 g/m*3 18.38 C 0 km/h
243 23-07-2019 02:00:00 17.55833 C 12.34 g/m*3 17.56 C 0 km/h
244 23-07-2019 03:00:00 16.84167 C 12.19 g/m*3 16.84 C 0 km/h
245 23-07-2019 04:00:00 16.29167 C 12.12 g/m*3 16.29 C 0 km/h
246 23-07-2019 05:00:00 15.825 C 12.01 g/m*3 15.83 C 0 km/h
247 23-07-2019 06:00:00 15.65833 C 12.12 g/m*3 15.66 C 0 km/h
248 23-07-2019 07:00:00 16.10833 C 12.48 g/m*3 16.11 C 0 km/h
249 23-07-2019 08:00:00 16.83333 C 12.98 g/m*3 16.83 C 0 km/h
250 23-07-2019 09:00:00 18.70833 C 13.95 g/m*3 18.71 C 0 km/h
Sensor: Nr:Datum:Temp:Abs-Feuchte:Windchill:Wind:
Aussen-T/F 251 23-07-2019 10:00:00 22.425 C 14.92 g/m*3 22.43 C 1.61667 km/h
252 23-07-2019 11:00:00 27.35 C 13.99 g/m*3 27.35 C 7.24167 km/h
253 23-07-2019 12:00:00 29.59167 C 13.05 g/m*3 29.59 C 11.55833 km/h
254 23-07-2019 13:00:00 30.78333 C 12.63 g/m*3 30.78 C 10.33333 km/h
255 23-07-2019 14:00:00 32.11667 C 12.63 g/m*3 32.12 C 9 km/h
256 23-07-2019 15:00:00 33.90833 C 13.1 g/m*3 33.91 C 8.74167 km/h
257 23-07-2019 16:00:00 35.8 C 12.74 g/m*3 35.8 C 7.24167 km/h
258 23-07-2019 17:00:00 36.38333 C 12.17 g/m*3 36.38 C 7.8 km/h
259 23-07-2019 18:00:00 36.76667 C 12.31 g/m*3 36.77 C 7.51667 km/h
260 23-07-2019 19:00:00 35.64167 C 12.6 g/m*3 35.64 C 5.88333 km/h
261 23-07-2019 20:00:00 32.725 C 14.27 g/m*3 32.73 C 1.73333 km/h
262 23-07-2019 21:00:00 28.00833 C 13.69 g/m*3 28.01 C 1.6 km/h
263 23-07-2019 22:00:00 25.2 C 13.46 g/m*3 25.2 C 0.26667 km/h
264 23-07-2019 23:00:00 22.93333 C 13.51 g/m*3 22.93 C 0 km/h
265 24-07-2019 00:00:00 21.44167 C 13.44 g/m*3 21.44 C 0 km/h
266 24-07-2019 01:00:00 20.31667 C 13.45 g/m*3 20.32 C 0 km/h
267 24-07-2019 02:00:00 19.30833 C 13.11 g/m*3 19.31 C 0 km/h
268 24-07-2019 03:00:00 18.63333 C 13.04 g/m*3 18.63 C 0 km/h
269 24-07-2019 04:00:00 17.76667 C 12.81 g/m*3 17.77 C 0 km/h
270 24-07-2019 05:00:00 17.23333 C 12.78 g/m*3 17.23 C 0 km/h
271 24-07-2019 06:00:00 17.075 C 12.83 g/m*3 17.08 C 0 km/h
272 24-07-2019 07:00:00 17.26667 C 13.23 g/m*3 17.27 C 0 km/h
273 24-07-2019 08:00:00 18.325 C 13.91 g/m*3 18.33 C 0 km/h
274 24-07-2019 09:00:00 20.23333 C 14.95 g/m*3 20.23 C 0 km/h
275 24-07-2019 10:00:00 23.75 C 15.53 g/m*3 23.75 C 0 km/h
Sensor: Nr:Datum:Temp:Abs-Feuchte:Windchill:Wind:
Aussen-T/F 276 24-07-2019 11:00:00 27.43333 C 15.68 g/m*3 27.43 C 0 km/h
277 24-07-2019 12:00:00 32.04167 C 14.1 g/m*3 32.04 C 2.95833 km/h
278 24-07-2019 13:00:00 34.175 C 11.01 g/m*3 34.17 C 7.11667 km/h
279 24-07-2019 14:00:00 35.31667 C 10.78 g/m*3 35.32 C 6.28333 km/h
280 24-07-2019 15:00:00 36.975 C 11.38 g/m*3 36.98 C 6.03333 km/h
281 24-07-2019 16:00:00 39.59167 C 11.54 g/m*3 39.59 C 6.425 km/h
282 24-07-2019 17:00:00 39.60833 C 11.47 g/m*3 39.61 C 9 km/h
283 24-07-2019 18:00:00 39.31667 C 11.18 g/m*3 39.32 C 9.40833 km/h
284 24-07-2019 19:00:00 38.49167 C 13.05 g/m*3 38.49 C 4.83333 km/h
285 24-07-2019 20:00:00 33.13333 C 14.34 g/m*3 33.13 C 0.4 km/h
286 24-07-2019 21:00:00 28.825 C 13.89 g/m*3 28.83 C 1.2 km/h
287 24-07-2019 22:00:00 27.375 C 13.66 g/m*3 27.38 C 0.66667 km/h
288 24-07-2019 23:00:00 25.58333 C 13.87 g/m*3 25.58 C 0 km/h
289 25-07-2019 00:00:00 23.68333 C 13.48 g/m*3 23.68 C 0 km/h
290 25-07-2019 01:00:00 22.53333 C 13.32 g/m*3 22.53 C 0 km/h
291 25-07-2019 02:00:00 21.6 C 13.37 g/m*3 21.6 C 0 km/h
292 25-07-2019 03:00:00 20.89167 C 13.46 g/m*3 20.89 C 0 km/h
293 25-07-2019 04:00:00 20.075 C 13.5 g/m*3 20.08 C 0 km/h
294 25-07-2019 05:00:00 19.35833 C 13.31 g/m*3 19.36 C 0 km/h
295 25-07-2019 06:00:00 19.19167 C 13.56 g/m*3 19.19 C 0 km/h
296 25-07-2019 07:00:00 19.55833 C 14.12 g/m*3 19.56 C 0 km/h
297 25-07-2019 08:00:00 20.73333 C 14.93 g/m*3 20.73 C 0 km/h
298 25-07-2019 09:00:00 22.75833 C 15.59 g/m*3 22.76 C 0 km/h
299 25-07-2019 10:00:00 25.84167 C 16.09 g/m*3 25.84 C 0 km/h
300 25-07-2019 11:00:00 29.93333 C 16.11 g/m*3 29.93 C 1.73333 km/h
Sensor: Nr:Datum:Temp:Abs-Feuchte:Windchill:Wind:
Aussen-T/F 301 25-07-2019 12:00:00 34.525 C 13.66 g/m*3 34.53 C 8.06667 km/h
302 25-07-2019 13:00:00 36.46667 C 13.22 g/m*3 36.47 C 9.025 km/h
303 25-07-2019 14:00:00 37.425 C 12.92 g/m*3 37.42 C 7.76667 km/h
304 25-07-2019 15:00:00 38.79167 C 12.64 g/m*3 38.79 C 9 km/h
305 25-07-2019 16:00:00 40.15 C 12.17 g/m*3 40.15 C 11.95833 km/h
306 25-07-2019 17:00:00 39.80833 C 11.41 g/m*3 39.81 C 13.29167 km/h
307 25-07-2019 18:00:00 39.09167 C 11.46 g/m*3 39.09 C 10.1 km/h
308 25-07-2019 19:00:00 36.66667 C 14.4 g/m*3 36.67 C 1.88333 km/h
309 25-07-2019 20:00:00 32.81667 C 14.75 g/m*3 32.82 C 0 km/h
310 25-07-2019 21:00:00 30.34167 C 13.8 g/m*3 30.34 C 1.46667 km/h
311 25-07-2019 22:00:00 28.75833 C 13.39 g/m*3 28.76 C 1.06667 km/h
312 25-07-2019 23:00:00 27.56667 C 13.19 g/m*3 27.57 C 0.93333 km/h
313 26-07-2019 00:00:00 26.19167 C 13.14 g/m*3 26.19 C 0 km/h
314 26-07-2019 01:00:00 25 C 13.14 g/m*3 25 C 0 km/h
315 26-07-2019 02:00:00 22.51667 C 13.4 g/m*3 22.52 C 0 km/h
316 26-07-2019 03:00:00 20.99167 C 13.12 g/m*3 20.99 C 0 km/h
317 26-07-2019 04:00:00 20.125 C 13.33 g/m*3 20.13 C 0 km/h
318 26-07-2019 05:00:00 19.29167 C 13.1 g/m*3 19.29 C 0 km/h
319 26-07-2019 06:00:00 18.95833 C 13.06 g/m*3 18.96 C 0 km/h
320 26-07-2019 07:00:00 19.61667 C 13.94 g/m*3 19.62 C 0 km/h
321 26-07-2019 08:00:00 21.10833 C 14.75 g/m*3 21.11 C 0 km/h
322 26-07-2019 09:00:00 23.50833 C 14.65 g/m*3 23.51 C 1.06667 km/h
323 26-07-2019 10:00:00 28.225 C 13.63 g/m*3 28.23 C 6.70833 km/h
324 26-07-2019 11:00:00 32.05 C 13.14 g/m*3 32.05 C 4.4 km/h
325 26-07-2019 12:00:00 34.35 C 13.18 g/m*3 34.35 C 8.85833 km/h
Sensor: Nr:Datum:Temp:Abs-Feuchte:Windchill:Wind:
Aussen-T/F 326 26-07-2019 13:00:00 36.00833 C 12.88 g/m*3 36.01 C 9.55833 km/h
327 26-07-2019 14:00:00 37.35833 C 11.94 g/m*3 37.36 C 7.10833 km/h
328 26-07-2019 15:00:00 37.1 C 12.48 g/m*3 37.1 C 13.56667 km/h
329 26-07-2019 16:00:00 35.28333 C 13.64 g/m*3 35.28 C 5.775 km/h
330 26-07-2019 17:00:00 32.5 C 14.7 g/m*3 32.5 C 6.04167 km/h
331 26-07-2019 18:00:00 30.44167 C 14.13 g/m*3 30.44 C 9.525 km/h
332 26-07-2019 19:00:00 28.825 C 14.84 g/m*3 28.83 C 0.4 km/h
333 26-07-2019 20:00:00 27.525 C 15.3 g/m*3 27.53 C 0 km/h
334 26-07-2019 21:00:00 26.33333 C 14.72 g/m*3 26.33 C 0.4 km/h
335 26-07-2019 22:00:00 25.5 C 14.7 g/m*3 25.5 C 0.26667 km/h
336 26-07-2019 23:00:00 24.35833 C 14.82 g/m*3 24.36 C 0.26667 km/h
337 27-07-2019 00:00:00 23.15 C 14.56 g/m*3 23.15 C 0.53333 km/h
338 27-07-2019 01:00:00 22.63333 C 14.74 g/m*3 22.63 C 0 km/h
339 27-07-2019 02:00:00 22.33333 C 14.87 g/m*3 22.33 C 0 km/h
340 27-07-2019 03:00:00 22.59167 C 15.01 g/m*3 22.59 C 1.2 km/h
341 27-07-2019 04:00:00 20.9 C 15.74 g/m*3 20.9 C 0 km/h
342 27-07-2019 05:00:00 20.275 C 15.59 g/m*3 20.27 C 0 km/h
343 27-07-2019 06:00:00 20.525 C 15.79 g/m*3 20.53 C 0.26667 km/h
344 27-07-2019 07:00:00 21.25 C 16.39 g/m*3 21.25 C 0 km/h
345 27-07-2019 08:00:00 22.575 C 16.33 g/m*3 22.58 C 1.6 km/h
346 27-07-2019 09:00:00 24.725 C 16.66 g/m*3 24.73 C 3.6 km/h
347 27-07-2019 10:00:00 24.64167 C 18.42 g/m*3 24.64 C 2.55 km/h
348 27-07-2019 11:00:00 23.94167 C 18.78 g/m*3 23.94 C 0.53333 km/h
349 27-07-2019 12:00:00 23.75 C 17.91 g/m*3 23.75 C 2 km/h
350 27-07-2019 13:00:00 26 C 17.97 g/m*3 26 C 5.89167 km/h
Sensor: Nr:Datum:Temp:Abs-Feuchte:Windchill:Wind:
Aussen-T/F 351 27-07-2019 14:00:00 25.725 C 17.04 g/m*3 25.73 C 4.675 km/h
352 27-07-2019 15:00:00 25.04167 C 17.09 g/m*3 25.04 C 7.26667 km/h
353 27-07-2019 16:00:00 25.96667 C 16.65 g/m*3 25.97 C 11.56667 km/h
354 27-07-2019 17:00:00 24.49167 C 16.98 g/m*3 24.49 C 7.91667 km/h
355 27-07-2019 18:00:00 24.90833 C 17.35 g/m*3 24.91 C 6.28333 km/h
356 27-07-2019 19:00:00 23.84167 C 17.41 g/m*3 23.84 C 6.98333 km/h
357 27-07-2019 20:00:00 22.88333 C 17.34 g/m*3 22.88 C 5.74167 km/h
358 27-07-2019 21:00:00 22.075 C 16.7 g/m*3 22.08 C 6.975 km/h
359 27-07-2019 22:00:00 21.45 C 16.39 g/m*3 21.45 C 7.93333 km/h
360 27-07-2019 23:00:00 21.14167 C 16.39 g/m*3 21.14 C 3.21667 km/h
361 28-07-2019 00:00:00 20.83333 C 16.31 g/m*3 20.83 C 2.8 km/h
362 28-07-2019 01:00:00 20.70833 C 16.21 g/m*3 20.71 C 2.8 km/h
363 28-07-2019 02:00:00 20.7 C 16.2 g/m*3 20.7 C 1.73333 km/h
364 28-07-2019 03:00:00 20.68333 C 16.19 g/m*3 20.68 C 0.4 km/h
365 28-07-2019 04:00:00 20.60833 C 16.26 g/m*3 20.61 C 0.93333 km/h
366 28-07-2019 05:00:00 20.55 C 16.24 g/m*3 20.55 C 2.26667 km/h
367 28-07-2019 06:00:00 20.54167 C 16.23 g/m*3 20.54 C 2.13333 km/h
368 28-07-2019 07:00:00 20.69167 C 16.19 g/m*3 20.69 C 7.65 km/h
369 28-07-2019 08:00:00 20.71667 C 16.05 g/m*3 20.72 C 8.34167 km/h
370 28-07-2019 09:00:00 20.425 C 16 g/m*3 20.43 C 8.34167 km/h
371 28-07-2019 10:00:00 20.025 C 15.89 g/m*3 20.02 C 8.05833 km/h
372 28-07-2019 11:00:00 20.08333 C 15.95 g/m*3 20.08 C 5.89167 km/h
373 28-07-2019 12:00:00 20.50833 C 15.64 g/m*3 20.51 C 7.8 km/h
374 28-07-2019 13:00:00 20.30833 C 15.37 g/m*3 20.31 C 6.45 km/h
375 28-07-2019 14:00:00 19.98333 C 15.41 g/m*3 19.98 C 6.56667 km/h
Sensor: Nr:Datum:Temp:Abs-Feuchte:Windchill:Wind:
Aussen-T/F 376 28-07-2019 15:00:00 19.90833 C 15.16 g/m*3 19.91 C 7.79167 km/h
377 28-07-2019 16:00:00 19.81667 C 14.99 g/m*3 19.82 C 5.9 km/h
378 28-07-2019 17:00:00 19.45833 C 15.04 g/m*3 19.46 C 3.625 km/h
379 28-07-2019 18:00:00 19.175 C 14.89 g/m*3 19.18 C 3.475 km/h
380 28-07-2019 19:00:00 18.875 C 14.81 g/m*3 18.88 C 0.26667 km/h
381 28-07-2019 20:00:00 18.5 C 14.67 g/m*3 18.5 C 0 km/h
382 28-07-2019 21:00:00 18.175 C 14.56 g/m*3 18.18 C 0 km/h
383 28-07-2019 22:00:00 17.90833 C 14.47 g/m*3 17.91 C 0.4 km/h
384 28-07-2019 23:00:00 17.6 C 14.25 g/m*3 17.6 C 0 km/h
385 29-07-2019 00:00:00 17.325 C 14.02 g/m*3 17.33 C 0.13333 km/h
386 29-07-2019 01:00:00 17.10833 C 13.84 g/m*3 17.11 C 1.33333 km/h
387 29-07-2019 02:00:00 16.975 C 13.83 g/m*3 16.98 C 0 km/h
388 29-07-2019 03:00:00 16.84167 C 13.76 g/m*3 16.84 C 0 km/h
389 29-07-2019 04:00:00 16.80833 C 13.73 g/m*3 16.81 C 0 km/h
390 29-07-2019 05:00:00 16.74167 C 13.68 g/m*3 16.74 C 0 km/h
391 29-07-2019 06:00:00 16.725 C 13.66 g/m*3 16.73 C 0 km/h
392 29-07-2019 07:00:00 16.99167 C 13.85 g/m*3 16.99 C 2.13333 km/h
393 29-07-2019 08:00:00 17.46667 C 13.78 g/m*3 17.47 C 1.33333 km/h
394 29-07-2019 09:00:00 18.49167 C 13.65 g/m*3 18.49 C 6.04167 km/h
395 29-07-2019 10:00:00 19.39167 C 13.23 g/m*3 19.39 C 6.01667 km/h
396 29-07-2019 11:00:00 20.475 C 13.1 g/m*3 20.48 C 6.84167 km/h
397 29-07-2019 12:00:00 21.95 C 12.85 g/m*3 21.95 C 7.94167 km/h
398 29-07-2019 13:00:00 23.25 C 12.93 g/m*3 23.25 C 8.2 km/h
399 29-07-2019 14:00:00 24.41667 C 12.81 g/m*3 24.42 C 6.58333 km/h
400 29-07-2019 15:00:00 25.83333 C 12.4 g/m*3 25.83 C 10.88333 km/h
Sensor: Nr:Datum:Temp:Abs-Feuchte:Windchill:Wind:
Aussen-T/F 401 29-07-2019 16:00:00 27.6 C 12.17 g/m*3 27.6 C 7.79167 km/h
402 29-07-2019 17:00:00 28.23333 C 11.91 g/m*3 28.23 C 7.79167 km/h
403 29-07-2019 18:00:00 27.70833 C 11.64 g/m*3 27.71 C 4.94167 km/h
404 29-07-2019 19:00:00 28.1 C 11.85 g/m*3 28.1 C 6.29167 km/h
405 29-07-2019 20:00:00 26.33333 C 12.19 g/m*3 26.33 C 3.475 km/h
406 29-07-2019 21:00:00 23.05833 C 12.72 g/m*3 23.06 C 0 km/h
407 29-07-2019 22:00:00 20.75833 C 12.58 g/m*3 20.76 C 0 km/h
408 29-07-2019 23:00:00 19.34167 C 12.57 g/m*3 19.34 C 0 km/h
409 30-07-2019 00:00:00 17.95 C 12.42 g/m*3 17.95 C 0 km/h
410 30-07-2019 01:00:00 17.425 C 12.39 g/m*3 17.43 C 0 km/h
411 30-07-2019 02:00:00 16.6 C 12.08 g/m*3 16.6 C 0 km/h
412 30-07-2019 03:00:00 15.875 C 11.92 g/m*3 15.88 C 0 km/h
413 30-07-2019 04:00:00 15.4 C 11.84 g/m*3 15.4 C 0 km/h
414 30-07-2019 05:00:00 15.03333 C 11.76 g/m*3 15.03 C 0 km/h
415 30-07-2019 06:00:00 14.725 C 11.71 g/m*3 14.73 C 0 km/h
416 30-07-2019 07:00:00 14.93333 C 11.98 g/m*3 14.93 C 0 km/h
417 30-07-2019 08:00:00 15.88333 C 12.71 g/m*3 15.88 C 0 km/h
418 30-07-2019 09:00:00 17.4 C 13.61 g/m*3 17.4 C 0 km/h
419 30-07-2019 10:00:00 20.275 C 14.44 g/m*3 20.27 C 0 km/h
420 30-07-2019 11:00:00 24.96667 C 13.31 g/m*3 24.97 C 9.80833 km/h
421 30-07-2019 12:00:00 27.025 C 11.73 g/m*3 27.03 C 13.3 km/h
422 30-07-2019 13:00:00 28.24167 C 10.82 g/m*3 28.24 C 11.43333 km/h
423 30-07-2019 14:00:00 29.49167 C 11.11 g/m*3 29.49 C 13.43333 km/h
424 30-07-2019 15:00:00 30.69167 C 11.36 g/m*3 30.69 C 15.83333 km/h
425 30-07-2019 16:00:00 31.20833 C 11.08 g/m*3 31.21 C 16.5 km/h
Sensor: Nr:Datum:Temp:Abs-Feuchte:Windchill:Wind:
Aussen-T/F 426 30-07-2019 17:00:00 29.30833 C 11.05 g/m*3 29.31 C 17.56667 km/h
427 30-07-2019 18:00:00 26.625 C 10.27 g/m*3 26.63 C 12.48333 km/h
428 30-07-2019 19:00:00 24.55833 C 11.47 g/m*3 24.56 C 10.21667 km/h
429 30-07-2019 20:00:00 24.09167 C 12.06 g/m*3 24.09 C 6.16667 km/h
430 30-07-2019 21:00:00 23.675 C 12.12 g/m*3 23.68 C 0 km/h
431 30-07-2019 22:00:00 22.20833 C 12.33 g/m*3 22.21 C 0 km/h
432 30-07-2019 23:00:00 21.175 C 12.58 g/m*3 21.18 C 0 km/h
433 31-07-2019 00:00:00 20.55 C 12.46 g/m*3 20.55 C 0 km/h
434 31-07-2019 01:00:00 20.325 C 12.51 g/m*3 20.33 C 1.06667 km/h
435 31-07-2019 02:00:00 19.70833 C 12.18 g/m*3 19.71 C 0 km/h
436 31-07-2019 03:00:00 18.63333 C 11.97 g/m*3 18.63 C 0.26667 km/h
437 31-07-2019 04:00:00 18.575 C 12.24 g/m*3 18.58 C 0.93333 km/h
438 31-07-2019 05:00:00 17.83333 C 11.86 g/m*3 17.83 C 0 km/h
439 31-07-2019 06:00:00 17.64167 C 11.79 g/m*3 17.64 C 0 km/h
440 31-07-2019 07:00:00 17.375 C 11.83 g/m*3 17.38 C 0.26667 km/h
441 31-07-2019 08:00:00 18.44167 C 11.89 g/m*3 18.44 C 4.825 km/h
442 31-07-2019 09:00:00 20.01667 C 11.71 g/m*3 20.02 C 10.74167 km/h
443 31-07-2019 10:00:00 21.35833 C 10.99 g/m*3 21.36 C 13.16667 km/h
444 31-07-2019 11:00:00 21.60833 C 10.48 g/m*3 21.61 C 13.55833 km/h
445 31-07-2019 12:00:00 22.66667 C 10.25 g/m*3 22.67 C 16.63333 km/h
446 31-07-2019 13:00:00 23.69167 C 10.05 g/m*3 23.69 C 15.3 km/h
447 31-07-2019 14:00:00 24.76667 C 9.64 g/m*3 24.77 C 14.23333 km/h
448 31-07-2019 15:00:00 25.55 C 9.52 g/m*3 25.55 C 14.09167 km/h
449 31-07-2019 16:00:00 24.95833 C 9.72 g/m*3 24.96 C 13.7 km/h
450 31-07-2019 17:00:00 25.25 C 10.02 g/m*3 25.25 C 14.23333 km/h
Sensor: Nr:Datum:Temp:Abs-Feuchte:Windchill:Wind:
Aussen-T/F 451 31-07-2019 18:00:00 23.875 C 10.17 g/m*3 23.88 C 8.06667 km/h
452 31-07-2019 19:00:00 23.49167 C 10.25 g/m*3 23.49 C 6.975 km/h
453 31-07-2019 20:00:00 22.09167 C 10.88 g/m*3 22.09 C 1.46667 km/h
454 31-07-2019 21:00:00 19.925 C 10.27 g/m*3 19.93 C 0 km/h
455 31-07-2019 22:00:00 18.68333 C 9.76 g/m*3 18.68 C 0.4 km/h
456 31-07-2019 23:00:00 18.45 C 9.95 g/m*3 18.45 C 0.4 km/h
457 01-08-2019 00:00:00 16.88333 C 10.09 g/m*3 16.88 C 0.4 km/h
458 01-08-2019 01:00:00 15.525 C 9.93 g/m*3 15.53 C 0.13333 km/h
459 01-08-2019 02:00:00 14.73333 C 9.96 g/m*3 14.73 C 0.4 km/h
460 01-08-2019 03:00:00 14.15833 C 9.87 g/m*3 14.16 C 0.26667 km/h
461 01-08-2019 04:00:00 12.95833 C 9.61 g/m*3 12.96 C 0.66667 km/h
462 01-08-2019 05:00:00 12.625 C 9.62 g/m*3 12.63 C 0.4 km/h
463 01-08-2019 06:00:00 12.125 C 9.51 g/m*3 12.13 C 0 km/h
464 01-08-2019 07:00:00 12.55833 C 9.84 g/m*3 12.56 C 0.4 km/h
465 01-08-2019 08:00:00 15.175 C 10.56 g/m*3 15.18 C 0.93333 km/h
466 01-08-2019 09:00:00 17.56667 C 11.01 g/m*3 17.57 C 5.075 km/h
467 01-08-2019 10:00:00 20.3 C 10.98 g/m*3 20.3 C 10.5 km/h
468 01-08-2019 11:00:00 21.775 C 10.68 g/m*3 21.78 C 11.825 km/h
469 01-08-2019 12:00:00 22.45 C 10.66 g/m*3 22.45 C 9.275 km/h
470 01-08-2019 13:00:00 23.16667 C 11 g/m*3 23.17 C 6.43333 km/h
471 01-08-2019 14:00:00 24.15 C 10.84 g/m*3 24.15 C 8.60833 km/h
472 01-08-2019 15:00:00 24.575 C 10.99 g/m*3 24.58 C 8.45833 km/h
473 01-08-2019 16:00:00 24.4 C 11.13 g/m*3 24.4 C 7.375 km/h
474 01-08-2019 17:00:00 25.13333 C 11.06 g/m*3 25.13 C 6.28333 km/h
475 01-08-2019 18:00:00 26.35 C 11.11 g/m*3 26.35 C 7.53333 km/h
Sensor: Nr:Datum:Temp:Abs-Feuchte:Windchill:Wind:
Aussen-T/F 476 01-08-2019 19:00:00 26.26667 C 11.16 g/m*3 26.27 C 6.025 km/h
477 01-08-2019 20:00:00 24.10833 C 11.78 g/m*3 24.11 C 2.53333 km/h
478 01-08-2019 21:00:00 21.15 C 11.58 g/m*3 21.15 C 0 km/h
479 01-08-2019 22:00:00 19.76667 C 11.54 g/m*3 19.77 C 0 km/h
480 01-08-2019 23:00:00 19.24167 C 11.5 g/m*3 19.24 C 0 km/h
481 02-08-2019 00:00:00 18.81667 C 11.81 g/m*3 18.82 C 0 km/h
482 02-08-2019 01:00:00 18.34167 C 11.86 g/m*3 18.34 C 0 km/h
483 02-08-2019 02:00:00 17.86667 C 11.71 g/m*3 17.87 C 0 km/h
484 02-08-2019 03:00:00 16.94167 C 11.49 g/m*3 16.94 C 0 km/h
485 02-08-2019 04:00:00 16.31667 C 11.46 g/m*3 16.32 C 0 km/h
486 02-08-2019 05:00:00 16.2 C 11.54 g/m*3 16.2 C 0 km/h
487 02-08-2019 06:00:00 16.25 C 11.76 g/m*3 16.25 C 0 km/h
488 02-08-2019 07:00:00 16.925 C 12.17 g/m*3 16.93 C 0 km/h
489 02-08-2019 08:00:00 17.93333 C 12.6 g/m*3 17.93 C 0 km/h
490 02-08-2019 09:00:00 19.35 C 12.96 g/m*3 19.35 C 0 km/h
491 02-08-2019 10:00:00 20.71667 C 13 g/m*3 20.72 C 0 km/h
492 02-08-2019 11:00:00 22.16667 C 12.7 g/m*3 22.17 C 4.96667 km/h
493 02-08-2019 12:00:00 21.275 C 14.05 g/m*3 21.28 C 4.03333 km/h
494 02-08-2019 13:00:00 21.125 C 13.15 g/m*3 21.13 C 2.94167 km/h
495 02-08-2019 14:00:00 23.16667 C 12.81 g/m*3 23.17 C 5.625 km/h
496 02-08-2019 15:00:00 24.58333 C 12.67 g/m*3 24.58 C 7.38333 km/h
497 02-08-2019 16:00:00 25.59167 C 12.16 g/m*3 25.59 C 5.24167 km/h
498 02-08-2019 17:00:00 26.725 C 11.66 g/m*3 26.73 C 7.925 km/h
499 02-08-2019 18:00:00 25.00833 C 12.3 g/m*3 25.01 C 11.95833 km/h
500 02-08-2019 19:00:00 23.7 C 11.73 g/m*3 23.7 C 8.45833 km/h
Sensor: Nr:Datum:Temp:Abs-Feuchte:Windchill:Wind:
Aussen-T/F 501 02-08-2019 20:00:00 22.45833 C 12.04 g/m*3 22.46 C 1.6 km/h
502 02-08-2019 21:00:00 21.275 C 11.83 g/m*3 21.28 C 4.425 km/h
503 02-08-2019 22:00:00 20.95 C 11.93 g/m*3 20.95 C 9.80833 km/h
504 02-08-2019 23:00:00 18.975 C 12.83 g/m*3 18.98 C 4.96667 km/h
505 03-08-2019 00:00:00 17.75833 C 12.77 g/m*3 17.76 C 5.91667 km/h
506 03-08-2019 01:00:00 18.28333 C 12.89 g/m*3 18.28 C 10.89167 km/h
507 03-08-2019 02:00:00 18.24167 C 13.15 g/m*3 18.24 C 11.29167 km/h
508 03-08-2019 03:00:00 18.2 C 13.32 g/m*3 18.2 C 8.05833 km/h
509 03-08-2019 04:00:00 18.15 C 13.47 g/m*3 18.15 C 7.225 km/h
510 03-08-2019 05:00:00 18.14167 C 13.48 g/m*3 18.14 C 6.31667 km/h
511 03-08-2019 06:00:00 17.89167 C 13.32 g/m*3 17.89 C 5.75833 km/h
512 03-08-2019 07:00:00 17.84167 C 13.03 g/m*3 17.84 C 6.84167 km/h
513 03-08-2019 08:00:00 17.95 C 12.94 g/m*3 17.95 C 8.60833 km/h
514 03-08-2019 09:00:00 18.6 C 12.61 g/m*3 18.6 C 11.96667 km/h
515 03-08-2019 10:00:00 19.61667 C 12.76 g/m*3 19.62 C 11.3 km/h
516 03-08-2019 11:00:00 20.35833 C 12.91 g/m*3 20.36 C 11.16667 km/h
517 03-08-2019 12:00:00 21.55833 C 12.66 g/m*3 21.56 C 10.76667 km/h
518 03-08-2019 13:00:00 22.05 C 12.91 g/m*3 22.05 C 11.00833 km/h
519 03-08-2019 14:00:00 22.20833 C 12.93 g/m*3 22.21 C 10.49167 km/h
520 03-08-2019 15:00:00 23.80833 C 12.48 g/m*3 23.81 C 12.35833 km/h
521 03-08-2019 16:00:00 25.16667 C 12.35 g/m*3 25.17 C 12.36667 km/h
522 03-08-2019 17:00:00 25.49167 C 12.07 g/m*3 25.49 C 12.63333 km/h
523 03-08-2019 18:00:00 25.46667 C 12.05 g/m*3 25.47 C 11.825 km/h
524 03-08-2019 19:00:00 24.30833 C 12.07 g/m*3 24.31 C 11.15833 km/h
525 03-08-2019 20:00:00 22.61667 C 12.03 g/m*3 22.62 C 7.39167 km/h
Sensor: Nr:Datum:Temp:Abs-Feuchte:Windchill:Wind:
Aussen-T/F 526 03-08-2019 21:00:00 20.55833 C 11.74 g/m*3 20.56 C 3.875 km/h
527 03-08-2019 22:00:00 18.10833 C 11.47 g/m*3 18.11 C 0.13333 km/h
528 03-08-2019 23:00:00 17.05 C 11.51 g/m*3 17.05 C 0 km/h
529 04-08-2019 00:00:00 16.225 C 11.3 g/m*3 16.23 C 0 km/h
530 04-08-2019 01:00:00 15.125 C 11.05 g/m*3 15.13 C 0 km/h
531 04-08-2019 02:00:00 14 C 10.71 g/m*3 14 C 0 km/h
532 04-08-2019 03:00:00 13.3 C 10.5 g/m*3 13.3 C 0 km/h
533 04-08-2019 04:00:00 12.88333 C 10.37 g/m*3 12.88 C 0 km/h
534 04-08-2019 05:00:00 12.49167 C 10.22 g/m*3 12.49 C 0 km/h
535 04-08-2019 06:00:00 12.34167 C 10.22 g/m*3 12.34 C 0 km/h
536 04-08-2019 07:00:00 12.725 C 10.53 g/m*3 12.73 C 0 km/h
537 04-08-2019 08:00:00 13.73333 C 11.27 g/m*3 13.73 C 0 km/h
538 04-08-2019 09:00:00 15.34167 C 12.19 g/m*3 15.34 C 0.66667 km/h
539 04-08-2019 10:00:00 18.10833 C 12.88 g/m*3 18.11 C 3.33333 km/h
540 04-08-2019 11:00:00 21.31667 C 12.59 g/m*3 21.32 C 5.34167 km/h
541 04-08-2019 12:00:00 23.3 C 12.44 g/m*3 23.3 C 7.23333 km/h
542 04-08-2019 13:00:00 24.75 C 12.18 g/m*3 24.75 C 6.01667 km/h
543 04-08-2019 14:00:00 25.86667 C 11.74 g/m*3 25.87 C 6.7 km/h
544 04-08-2019 15:00:00 28.225 C 11.2 g/m*3 28.23 C 8.45833 km/h
545 04-08-2019 16:00:00 30.03333 C 10.48 g/m*3 30.03 C 9.4 km/h
546 04-08-2019 17:00:00 30.95833 C 10.24 g/m*3 30.96 C 8.45833 km/h
547 04-08-2019 18:00:00 30.79167 C 10.68 g/m*3 30.79 C 7.25 km/h
548 04-08-2019 19:00:00 28.75833 C 11.81 g/m*3 28.76 C 2.00833 km/h
549 04-08-2019 20:00:00 25.78333 C 12.49 g/m*3 25.78 C 0 km/h
550 04-08-2019 21:00:00 22.51667 C 12.06 g/m*3 22.52 C 0.26667 km/h
Sensor: Nr:Datum:Temp:Abs-Feuchte:Windchill:Wind:
Aussen-T/F 551 04-08-2019 22:00:00 21.95833 C 12.33 g/m*3 21.96 C 1.06667 km/h
552 04-08-2019 23:00:00 22.39167 C 12.16 g/m*3 22.39 C 2.53333 km/h
553 05-08-2019 00:00:00 22.875 C 11.8 g/m*3 22.88 C 1.46667 km/h
554 05-08-2019 01:00:00 21.65833 C 11.88 g/m*3 21.66 C 0 km/h
555 05-08-2019 02:00:00 20.28333 C 11.74 g/m*3 20.28 C 0 km/h
556 05-08-2019 03:00:00 19.6 C 11.76 g/m*3 19.6 C 0.26667 km/h
557 05-08-2019 04:00:00 19.31667 C 12.58 g/m*3 19.32 C 0 km/h
558 05-08-2019 05:00:00 19.325 C 12.96 g/m*3 19.33 C 1.74167 km/h
559 05-08-2019 06:00:00 18.28333 C 13.64 g/m*3 18.28 C 1.06667 km/h
560 05-08-2019 07:00:00 17.53333 C 13.79 g/m*3 17.53 C 1.46667 km/h
561 05-08-2019 08:00:00 17.64167 C 14.21 g/m*3 17.64 C 0.53333 km/h
562 05-08-2019 09:00:00 18.75 C 15.24 g/m*3 18.75 C 0.66667 km/h
563 05-08-2019 10:00:00 20.08333 C 16.08 g/m*3 20.08 C 1.06667 km/h
564 05-08-2019 11:00:00 21.99167 C 16.31 g/m*3 21.99 C 1.86667 km/h
565 05-08-2019 12:00:00 24.25 C 15.17 g/m*3 24.25 C 12.89167 km/h
566 05-08-2019 13:00:00 26 C 14.55 g/m*3 26 C 12.5 km/h
567 05-08-2019 14:00:00 27.11667 C 14.16 g/m*3 27.12 C 11.56667 km/h
568 05-08-2019 15:00:00 28.375 C 12.91 g/m*3 28.38 C 10.9 km/h
569 05-08-2019 16:00:00 28.875 C 11.79 g/m*3 28.88 C 12.23333 km/h
570 05-08-2019 17:00:00 28.225 C 11.59 g/m*3 28.23 C 11.43333 km/h
571 05-08-2019 18:00:00 27.7 C 11.28 g/m*3 27.7 C 9.15833 km/h
572 05-08-2019 19:00:00 26.7 C 11.75 g/m*3 26.7 C 5.89167 km/h
573 05-08-2019 20:00:00 25.1 C 12.4 g/m*3 25.1 C 1.6 km/h
574 05-08-2019 21:00:00 22.075 C 11.92 g/m*3 22.08 C 0 km/h
575 05-08-2019 22:00:00 20.53333 C 12.36 g/m*3 20.53 C 0 km/h
Sensor: Nr:Datum:Temp:Abs-Feuchte:Windchill:Wind:
Aussen-T/F 576 05-08-2019 23:00:00 19.28333 C 12.26 g/m*3 19.28 C 0 km/h
577 06-08-2019 00:00:00 18.00833 C 12.02 g/m*3 18.01 C 0 km/h
578 06-08-2019 01:00:00 17.10833 C 11.86 g/m*3 17.11 C 0 km/h
579 06-08-2019 02:00:00 17.00833 C 12 g/m*3 17.01 C 0 km/h
580 06-08-2019 03:00:00 17.45833 C 12.36 g/m*3 17.46 C 0.8 km/h
581 06-08-2019 04:00:00 17.20833 C 12.28 g/m*3 17.21 C 0.26667 km/h
582 06-08-2019 05:00:00 16.60833 C 12.11 g/m*3 16.61 C 0.13333 km/h
583 06-08-2019 06:00:00 16.66667 C 12.28 g/m*3 16.67 C 0.13333 km/h
584 06-08-2019 07:00:00 17.83333 C 12.66 g/m*3 17.83 C 2.40833 km/h
585 06-08-2019 08:00:00 18.675 C 12.96 g/m*3 18.68 C 3.475 km/h
586 06-08-2019 09:00:00 20.1 C 13.3 g/m*3 20.1 C 6.29167 km/h
587 06-08-2019 10:00:00 19.91667 C 14.4 g/m*3 19.92 C 2.14167 km/h
588 06-08-2019 11:00:00 19.65 C 15.1 g/m*3 19.65 C 0.8 km/h
589 06-08-2019 12:00:00 21.31667 C 15.35 g/m*3 21.32 C 4.40833 km/h
590 06-08-2019 13:00:00 22.325 C 15.31 g/m*3 22.33 C 7.66667 km/h
591 06-08-2019 14:00:00 23.61667 C 14.87 g/m*3 23.62 C 13.43333 km/h
592 06-08-2019 15:00:00 24.725 C 14.68 g/m*3 24.73 C 11.825 km/h
593 06-08-2019 16:00:00 25.39167 C 14.57 g/m*3 25.39 C 10.63333 km/h
594 06-08-2019 17:00:00 26.4 C 14.31 g/m*3 26.4 C 10.09167 km/h
595 06-08-2019 18:00:00 25.20833 C 14.4 g/m*3 25.21 C 4.84167 km/h
596 06-08-2019 19:00:00 22.54167 C 15.37 g/m*3 22.54 C 6.16667 km/h
597 06-08-2019 20:00:00 19.05 C 14.78 g/m*3 19.05 C 0.13333 km/h
598 06-08-2019 21:00:00 18.00833 C 14.32 g/m*3 18.01 C 0.53333 km/h
599 06-08-2019 22:00:00 17.51667 C 14.03 g/m*3 17.52 C 0.13333 km/h
600 06-08-2019 23:00:00 17.08333 C 13.8 g/m*3 17.08 C 1.075 km/h
Sensor: Nr:Datum:Temp:Abs-Feuchte:Windchill:Wind:
Aussen-T/F 601 07-08-2019 00:00:00 16.68333 C 13.49 g/m*3 16.68 C 0.13333 km/h
602 07-08-2019 01:00:00 16.3 C 13.25 g/m*3 16.3 C 0 km/h
603 07-08-2019 02:00:00 16.45833 C 13.45 g/m*3 16.46 C 1.2 km/h
604 07-08-2019 03:00:00 16.58333 C 13.58 g/m*3 16.58 C 0 km/h
605 07-08-2019 04:00:00 16.63333 C 13.73 g/m*3 16.63 C 0 km/h
606 07-08-2019 05:00:00 16.66667 C 13.76 g/m*3 16.67 C 0 km/h
607 07-08-2019 06:00:00 16.875 C 13.93 g/m*3 16.88 C 0.13333 km/h
608 07-08-2019 07:00:00 17.25 C 14.25 g/m*3 17.25 C 0.26667 km/h
609 07-08-2019 08:00:00 17.75833 C 14.69 g/m*3 17.76 C 0.66667 km/h
610 07-08-2019 09:00:00 18.25 C 15.12 g/m*3 18.25 C 4.15 km/h
611 07-08-2019 10:00:00 18.96667 C 15.68 g/m*3 18.97 C 1.6 km/h
612 07-08-2019 11:00:00 19.725 C 15.83 g/m*3 19.73 C 2.275 km/h
613 07-08-2019 12:00:00 20.83333 C 15.33 g/m*3 20.83 C 3.88333 km/h
614 07-08-2019 13:00:00 21.85833 C 14.69 g/m*3 21.86 C 5.76667 km/h
615 07-08-2019 14:00:00 22.525 C 15.07 g/m*3 22.53 C 7.375 km/h
616 07-08-2019 15:00:00 22.59167 C 14.64 g/m*3 22.59 C 10.48333 km/h
617 07-08-2019 16:00:00 22.08333 C 14.2 g/m*3 22.08 C 9.7 km/h
618 07-08-2019 17:00:00 22.53333 C 14.26 g/m*3 22.53 C 8.35 km/h
619 07-08-2019 18:00:00 23.35833 C 14.35 g/m*3 23.36 C 8.75 km/h
620 07-08-2019 19:00:00 22.38333 C 14.63 g/m*3 22.38 C 4.03333 km/h
621 07-08-2019 20:00:00 20.05833 C 14.48 g/m*3 20.06 C 2.55 km/h
622 07-08-2019 21:00:00 18.05 C 13.36 g/m*3 18.05 C 0.8 km/h
623 07-08-2019 22:00:00 16.74167 C 12.79 g/m*3 16.74 C 0.53333 km/h
624 07-08-2019 23:00:00 16.64167 C 12.63 g/m*3 16.64 C 1.06667 km/h
625 08-08-2019 00:00:00 15.76667 C 12.28 g/m*3 15.77 C 1.88333 km/h
Sensor: Nr:Datum:Temp:Abs-Feuchte:Windchill:Wind:
Aussen-T/F 626 08-08-2019 01:00:00 16.35 C 12.8 g/m*3 16.35 C 1.6 km/h
627 08-08-2019 02:00:00 16.45 C 12.88 g/m*3 16.45 C 0.66667 km/h
628 08-08-2019 03:00:00 16.44167 C 12.86 g/m*3 16.44 C 2.00833 km/h
629 08-08-2019 04:00:00 16.06667 C 12.68 g/m*3 16.07 C 0.13333 km/h
630 08-08-2019 05:00:00 15.31667 C 12.19 g/m*3 15.32 C 0.53333 km/h
631 08-08-2019 06:00:00 15.7 C 12.58 g/m*3 15.7 C 4.40833 km/h
632 08-08-2019 07:00:00 15.95 C 12.71 g/m*3 15.95 C 1.73333 km/h
633 08-08-2019 08:00:00 17.05833 C 13.24 g/m*3 17.06 C 8.75833 km/h
634 08-08-2019 09:00:00 18.55833 C 13.35 g/m*3 18.56 C 8.20833 km/h
635 08-08-2019 10:00:00 20.05833 C 12.66 g/m*3 20.06 C 11.29167 km/h
636 08-08-2019 11:00:00 21.74167 C 12.57 g/m*3 21.74 C 11.825 km/h
637 08-08-2019 12:00:00 22.99167 C 12.57 g/m*3 22.99 C 15.56667 km/h
638 08-08-2019 13:00:00 24.025 C 12.51 g/m*3 24.03 C 11.95833 km/h
639 08-08-2019 14:00:00 24.20833 C 12.62 g/m*3 24.21 C 10.1 km/h
640 08-08-2019 15:00:00 24.51667 C 12.81 g/m*3 24.52 C 7.51667 km/h
641 08-08-2019 16:00:00 26.58333 C 12.93 g/m*3 26.58 C 12.1 km/h
642 08-08-2019 17:00:00 27.18333 C 12.52 g/m*3 27.18 C 11.15833 km/h
643 08-08-2019 18:00:00 27.46667 C 12.5 g/m*3 27.47 C 8.875 km/h
644 08-08-2019 19:00:00 25.43333 C 14.64 g/m*3 25.43 C 0.94167 km/h
645 08-08-2019 20:00:00 23.575 C 14.35 g/m*3 23.58 C 0 km/h
646 08-08-2019 21:00:00 20.625 C 13.7 g/m*3 20.63 C 0 km/h
647 08-08-2019 22:00:00 19.15833 C 13.68 g/m*3 19.16 C 0 km/h
648 08-08-2019 23:00:00 18.16667 C 13.57 g/m*3 18.17 C 0 km/h
649 09-08-2019 00:00:00 17.15833 C 13.06 g/m*3 17.16 C 0 km/h
650 09-08-2019 01:00:00 16.25833 C 12.63 g/m*3 16.26 C 0 km/h
Sensor: Nr:Datum:Temp:Abs-Feuchte:Windchill:Wind:
Aussen-T/F 651 09-08-2019 02:00:00 15.875 C 12.44 g/m*3 15.88 C 0 km/h
652 09-08-2019 03:00:00 15.21667 C 12.05 g/m*3 15.22 C 0 km/h
653 09-08-2019 04:00:00 14.725 C 11.81 g/m*3 14.73 C 0 km/h
654 09-08-2019 05:00:00 14.44167 C 11.66 g/m*3 14.44 C 0 km/h
655 09-08-2019 06:00:00 14.56667 C 11.86 g/m*3 14.57 C 0 km/h
656 09-08-2019 07:00:00 15.40833 C 12.53 g/m*3 15.41 C 0 km/h
657 09-08-2019 08:00:00 16.44167 C 13.04 g/m*3 16.44 C 0.53333 km/h
658 09-08-2019 09:00:00 18.26667 C 13.71 g/m*3 18.27 C 0 km/h
659 09-08-2019 10:00:00 20.60833 C 14.46 g/m*3 20.61 C 0 km/h
660 09-08-2019 11:00:00 23.8 C 15.4 g/m*3 23.8 C 0.26667 km/h
661 09-08-2019 12:00:00 25.26667 C 15.38 g/m*3 25.27 C 0.26667 km/h
662 09-08-2019 13:00:00 25.275 C 15.53 g/m*3 25.28 C 0.13333 km/h
663 09-08-2019 14:00:00 24.75 C 17.55 g/m*3 24.75 C 0 km/h
664 09-08-2019 15:00:00 24.43333 C 18.3 g/m*3 24.43 C 0.26667 km/h
665 09-08-2019 16:00:00 27.25 C 18.24 g/m*3 27.25 C 4.55833 km/h
666 09-08-2019 17:00:00 25.45 C 19.24 g/m*3 25.45 C 0.8 km/h
667 09-08-2019 18:00:00 22.78333 C 18.05 g/m*3 22.78 C 1.33333 km/h
668 09-08-2019 19:00:00 21.5 C 17.55 g/m*3 21.5 C 8.59167 km/h
669 09-08-2019 20:00:00 19.63333 C 15.91 g/m*3 19.63 C 0.93333 km/h
670 09-08-2019 21:00:00 19.31667 C 15.86 g/m*3 19.32 C 0.93333 km/h
671 09-08-2019 22:00:00 19.30833 C 15.93 g/m*3 19.31 C 0.26667 km/h
672 09-08-2019 23:00:00 18.86667 C 15.52 g/m*3 18.87 C 0.13333 km/h
673 10-08-2019 00:00:00 18.775 C 15.53 g/m*3 18.77 C 0.26667 km/h
674 10-08-2019 01:00:00 18.73333 C 15.55 g/m*3 18.73 C 0 km/h
675 10-08-2019 02:00:00 18.50833 C 15.35 g/m*3 18.51 C 0 km/h
Sensor: Nr:Datum:Temp:Abs-Feuchte:Windchill:Wind:
Aussen-T/F 676 10-08-2019 03:00:00 18.29167 C 15.16 g/m*3 18.29 C 0.4 km/h
677 10-08-2019 04:00:00 18.11667 C 15 g/m*3 18.12 C 0 km/h
678 10-08-2019 05:00:00 17.53333 C 14.49 g/m*3 17.53 C 0 km/h
679 10-08-2019 06:00:00 17.45 C 14.42 g/m*3 17.45 C 0 km/h
680 10-08-2019 07:00:00 17.33333 C 14.32 g/m*3 17.33 C 4.96667 km/h
681 10-08-2019 08:00:00 17.41667 C 14.11 g/m*3 17.42 C 11.01667 km/h
682 10-08-2019 09:00:00 19.125 C 14.12 g/m*3 19.13 C 14.76667 km/h
683 10-08-2019 10:00:00 20.36667 C 14.04 g/m*3 20.37 C 14.36667 km/h
684 10-08-2019 11:00:00 21.43333 C 13.96 g/m*3 21.43 C 13.7 km/h
685 10-08-2019 12:00:00 22.38333 C 13.69 g/m*3 22.38 C 16.23333 km/h
686 10-08-2019 13:00:00 23.26667 C 13.23 g/m*3 23.27 C 16.76667 km/h
687 10-08-2019 14:00:00 23.83333 C 13.09 g/m*3 23.83 C 17.43333 km/h
688 10-08-2019 15:00:00 24.99167 C 12.75 g/m*3 24.99 C 17.43333 km/h
689 10-08-2019 16:00:00 25.24167 C 12.48 g/m*3 25.24 C 15.29167 km/h
690 10-08-2019 17:00:00 26.29167 C 12.19 g/m*3 26.29 C 15.3 km/h
691 10-08-2019 18:00:00 25.99167 C 11.94 g/m*3 25.99 C 13.43333 km/h
692 10-08-2019 19:00:00 25.00833 C 11.44 g/m*3 25.01 C 10.89167 km/h
693 10-08-2019 20:00:00 22.63333 C 12.33 g/m*3 22.63 C 2.275 km/h
694 10-08-2019 21:00:00 19.41667 C 12.14 g/m*3 19.42 C 0.26667 km/h
695 10-08-2019 22:00:00 17.71667 C 11.89 g/m*3 17.72 C 0 km/h
696 10-08-2019 23:00:00 16.45833 C 11.49 g/m*3 16.46 C 0.13333 km/h
697 11-08-2019 00:00:00 15.75833 C 11.39 g/m*3 15.76 C 0 km/h
698 11-08-2019 01:00:00 15.375 C 11.46 g/m*3 15.38 C 0 km/h
699 11-08-2019 02:00:00 15.7 C 11.57 g/m*3 15.7 C 0 km/h
700 11-08-2019 03:00:00 15.20833 C 11.23 g/m*3 15.21 C 0 km/h
Sensor: Nr:Datum:Temp:Abs-Feuchte:Windchill:Wind:
Aussen-T/F 701 11-08-2019 04:00:00 14.43333 C 10.94 g/m*3 14.43 C 0 km/h
702 11-08-2019 05:00:00 13.58333 C 10.6 g/m*3 13.58 C 0 km/h
703 11-08-2019 06:00:00 13.40833 C 10.78 g/m*3 13.41 C 0.26667 km/h
704 11-08-2019 07:00:00 14.04167 C 11.16 g/m*3 14.04 C 0 km/h
705 11-08-2019 08:00:00 14.9 C 11.64 g/m*3 14.9 C 0 km/h
706 11-08-2019 09:00:00 16.21667 C 12.02 g/m*3 16.22 C 0.53333 km/h
707 11-08-2019 10:00:00 19.375 C 11.62 g/m*3 19.38 C 9.00833 km/h
708 11-08-2019 11:00:00 21.26667 C 11.02 g/m*3 21.27 C 11.825 km/h
709 11-08-2019 12:00:00 22.09167 C 10.89 g/m*3 22.09 C 10.75833 km/h
710 11-08-2019 13:00:00 22.775 C 10.37 g/m*3 22.78 C 14.5 km/h
711 11-08-2019 14:00:00 22.89167 C 10.74 g/m*3 22.89 C 9.14167 km/h
712 11-08-2019 15:00:00 21.50833 C 11.57 g/m*3 21.51 C 3.2 km/h
713 11-08-2019 16:00:00 20.05 C 12.13 g/m*3 20.05 C 3.34167 km/h
714 11-08-2019 17:00:00 17.18333 C 12.7 g/m*3 17.18 C 2.26667 km/h
715 11-08-2019 18:00:00 16.475 C 12.68 g/m*3 16.48 C 1.73333 km/h
716 11-08-2019 19:00:00 16.075 C 12.27 g/m*3 16.08 C 1.06667 km/h
717 11-08-2019 20:00:00 15.775 C 12.23 g/m*3 15.78 C 0.26667 km/h
718 11-08-2019 21:00:00 15.23333 C 11.93 g/m*3 15.23 C 0.8 km/h
719 11-08-2019 22:00:00 14.3 C 11.28 g/m*3 14.3 C 0.66667 km/h
720 11-08-2019 23:00:00 14.24167 C 11.43 g/m*3 14.24 C 1.46667 km/h
721 12-08-2019 00:00:00 14.85833 C 11.77 g/m*3 14.86 C 2.4 km/h
722 12-08-2019 01:00:00 14.325 C 11.33 g/m*3 14.33 C 1.33333 km/h
723 12-08-2019 02:00:00 13.66667 C 11.04 g/m*3 13.67 C 0.26667 km/h
724 12-08-2019 03:00:00 13.125 C 10.74 g/m*3 13.13 C 0 km/h
725 12-08-2019 04:00:00 12.89167 C 10.7 g/m*3 12.89 C 0 km/h
Sensor: Nr:Datum:Temp:Abs-Feuchte:Windchill:Wind:
Aussen-T/F 726 12-08-2019 05:00:00 12.675 C 10.56 g/m*3 12.68 C 0 km/h
727 12-08-2019 06:00:00 12.69167 C 10.63 g/m*3 12.69 C 0 km/h
728 12-08-2019 07:00:00 13.05833 C 10.93 g/m*3 13.06 C 0 km/h
729 12-08-2019 08:00:00 13.5 C 11.23 g/m*3 13.5 C 0 km/h
730 12-08-2019 09:00:00 15.05 C 11.91 g/m*3 15.05 C 3.075 km/h
731 12-08-2019 10:00:00 17.65 C 12.41 g/m*3 17.65 C 6.58333 km/h
732 12-08-2019 11:00:00 20.08333 C 12.61 g/m*3 20.08 C 7.525 km/h
733 12-08-2019 12:00:00 21.275 C 12.22 g/m*3 21.28 C 8.60833 km/h
734 12-08-2019 13:00:00 21.775 C 11.64 g/m*3 21.78 C 10.89167 km/h
735 12-08-2019 14:00:00 22.55 C 12.07 g/m*3 22.55 C 11.3 km/h
736 12-08-2019 15:00:00 23.475 C 11.74 g/m*3 23.48 C 12.625 km/h
737 12-08-2019 16:00:00 22.54167 C 11.71 g/m*3 22.54 C 14.5 km/h
738 12-08-2019 17:00:00 17.89167 C 11.79 g/m*3 17.89 C 5.89167 km/h
739 12-08-2019 18:00:00 15.925 C 12.21 g/m*3 15.93 C 0.4 km/h
740 12-08-2019 19:00:00 15.925 C 12.48 g/m*3 15.93 C 0.53333 km/h
741 12-08-2019 20:00:00 15.54167 C 12.21 g/m*3 15.54 C 0.26667 km/h
742 12-08-2019 21:00:00 15.19167 C 12.14 g/m*3 15.19 C 0.26667 km/h
743 12-08-2019 22:00:00 14.975 C 12.04 g/m*3 14.98 C 0.66667 km/h
744 12-08-2019 23:00:00 14.01667 C 11.19 g/m*3 14.02 C 0.53333 km/h
745 13-08-2019 00:00:00 13.55833 C 11.06 g/m*3 13.56 C 0.26667 km/h
746 13-08-2019 01:00:00 13.025 C 10.71 g/m*3 13.03 C 0.26667 km/h
747 13-08-2019 02:00:00 12.83333 C 10.69 g/m*3 12.83 C 0.53333 km/h
748 13-08-2019 03:00:00 12.9 C 10.77 g/m*3 12.9 C 0 km/h
749 13-08-2019 04:00:00 13.275 C 11.05 g/m*3 13.28 C 2.14167 km/h
750 13-08-2019 05:00:00 13.18333 C 10.9 g/m*3 13.18 C 1.475 km/h
Sensor: Nr:Datum:Temp:Abs-Feuchte:Windchill:Wind:
Aussen-T/F 751 13-08-2019 06:00:00 12.75 C 10.63 g/m*3 12.75 C 0.53333 km/h
752 13-08-2019 07:00:00 12.9 C 10.74 g/m*3 12.9 C 2.13333 km/h
753 13-08-2019 08:00:00 13.39167 C 10.78 g/m*3 13.39 C 6.85 km/h
754 13-08-2019 09:00:00 14.85 C 11.03 g/m*3 14.85 C 6.96667 km/h
755 13-08-2019 10:00:00 16.225 C 10.31 g/m*3 16.23 C 10.08333 km/h
756 13-08-2019 11:00:00 17.175 C 9.83 g/m*3 17.18 C 10.625 km/h
757 13-08-2019 12:00:00 18.13333 C 9.82 g/m*3 18.13 C 11.15833 km/h
758 13-08-2019 13:00:00 19.025 C 9.08 g/m*3 19.02 C 10.76667 km/h
759 13-08-2019 14:00:00 19.875 C 9.06 g/m*3 19.88 C 11.01667 km/h
760 13-08-2019 15:00:00 21.275 C 9.37 g/m*3 21.28 C 13.56667 km/h
761 13-08-2019 16:00:00 21.38333 C 9.54 g/m*3 21.38 C 11.15833 km/h
762 13-08-2019 17:00:00 21.25833 C 9.39 g/m*3 21.26 C 9.41667 km/h
763 13-08-2019 18:00:00 21.175 C 9.59 g/m*3 21.18 C 8.73333 km/h
764 13-08-2019 19:00:00 18.53333 C 10.26 g/m*3 18.53 C 9.39167 km/h
765 13-08-2019 20:00:00 14.91667 C 11.06 g/m*3 14.92 C 0.93333 km/h
766 13-08-2019 21:00:00 13.99167 C 11.01 g/m*3 13.99 C 0 km/h
767 13-08-2019 22:00:00 13.63333 C 10.92 g/m*3 13.63 C 0 km/h
768 13-08-2019 23:00:00 13.36667 C 10.79 g/m*3 13.37 C 0 km/h
769 14-08-2019 00:00:00 13.05 C 10.59 g/m*3 13.05 C 0 km/h
770 14-08-2019 01:00:00 12.61667 C 10.32 g/m*3 12.62 C 0 km/h
771 14-08-2019 02:00:00 12.10833 C 10 g/m*3 12.11 C 0 km/h
772 14-08-2019 03:00:00 11.93333 C 9.98 g/m*3 11.93 C 0 km/h
773 14-08-2019 04:00:00 11.43333 C 9.68 g/m*3 11.43 C 0 km/h
774 14-08-2019 05:00:00 11.00833 C 9.51 g/m*3 11.01 C 0 km/h
775 14-08-2019 06:00:00 10.61667 C 9.3 g/m*3 10.62 C 0 km/h
Sensor: Nr:Datum:Temp:Abs-Feuchte:Windchill:Wind:
Aussen-T/F 776 14-08-2019 07:00:00 10.61667 C 9.38 g/m*3 10.62 C 0 km/h
777 14-08-2019 08:00:00 11.4 C 9.89 g/m*3 11.4 C 2.01667 km/h
778 14-08-2019 09:00:00 13.28333 C 10.79 g/m*3 13.28 C 5.625 km/h
779 14-08-2019 10:00:00 14.26667 C 11.26 g/m*3 14.27 C 0.13333 km/h
780 14-08-2019 11:00:00 15.66667 C 11.12 g/m*3 15.67 C 2 km/h
781 14-08-2019 12:00:00 18.1 C 9.7 g/m*3 18.1 C 8.70833 km/h
782 14-08-2019 13:00:00 19.59167 C 9.28 g/m*3 19.59 C 9.00833 km/h
783 14-08-2019 14:00:00 21.08333 C 9.23 g/m*3 21.08 C 11.00833 km/h
784 14-08-2019 15:00:00 22.60833 C 9.9 g/m*3 22.61 C 10.475 km/h
785 14-08-2019 16:00:00 23.74167 C 9.92 g/m*3 23.74 C 11.69167 km/h
786 14-08-2019 17:00:00 24.44167 C 9.98 g/m*3 24.44 C 13.43333 km/h
787 14-08-2019 18:00:00 24 C 10.17 g/m*3 24 C 11.96667 km/h
788 14-08-2019 19:00:00 22.31667 C 11.17 g/m*3 22.32 C 5.1 km/h
789 14-08-2019 20:00:00 19.675 C 11.46 g/m*3 19.68 C 0 km/h
790 14-08-2019 21:00:00 18.1 C 11.45 g/m*3 18.1 C 0 km/h
791 14-08-2019 22:00:00 17.63333 C 11.45 g/m*3 17.63 C 0 km/h
792 14-08-2019 23:00:00 17.4 C 11.34 g/m*3 17.4 C 0 km/h
793 15-08-2019 00:00:00 17.35833 C 11.32 g/m*3 17.36 C 0.26667 km/h
794 15-08-2019 01:00:00 17.38333 C 11.47 g/m*3 17.38 C 0.13333 km/h
795 15-08-2019 02:00:00 16.2 C 12.19 g/m*3 16.2 C 0.66667 km/h
796 15-08-2019 03:00:00 15.275 C 12.05 g/m*3 15.28 C 0 km/h
797 15-08-2019 04:00:00 14.90833 C 11.94 g/m*3 14.91 C 0.13333 km/h
798 15-08-2019 05:00:00 14.84167 C 11.96 g/m*3 14.84 C 0 km/h
799 15-08-2019 06:00:00 14.96667 C 12.14 g/m*3 14.97 C 0.4 km/h
800 15-08-2019 07:00:00 15.6 C 12.28 g/m*3 15.6 C 3.35833 km/h
Sensor: Nr:Datum:Temp:Abs-Feuchte:Windchill:Wind:
Aussen-T/F 801 15-08-2019 08:00:00 17.59167 C 12.58 g/m*3 17.59 C 11.025 km/h
802 15-08-2019 09:00:00 18.48333 C 12.88 g/m*3 18.48 C 11.025 km/h
803 15-08-2019 10:00:00 19.14167 C 13.31 g/m*3 19.14 C 12.76667 km/h
804 15-08-2019 11:00:00 19.28333 C 13.52 g/m*3 19.28 C 12.49167 km/h
805 15-08-2019 12:00:00 19.90833 C 13.69 g/m*3 19.91 C 12.89167 km/h
806 15-08-2019 13:00:00 18.94167 C 14.4 g/m*3 18.94 C 8.73333 km/h
807 15-08-2019 14:00:00 19.73333 C 14.63 g/m*3 19.73 C 10.20833 km/h
808 15-08-2019 15:00:00 20.79167 C 14.72 g/m*3 20.79 C 12.88333 km/h
809 15-08-2019 16:00:00 19.325 C 14.88 g/m*3 19.33 C 11.95833 km/h
810 15-08-2019 17:00:00 17.3 C 13.69 g/m*3 17.3 C 4.41667 km/h
811 15-08-2019 18:00:00 16.975 C 13.61 g/m*3 16.98 C 2.66667 km/h
812 15-08-2019 19:00:00 17.25 C 13.89 g/m*3 17.25 C 1.2 km/h
813 15-08-2019 20:00:00 17.09167 C 13.76 g/m*3 17.09 C 1.33333 km/h
814 15-08-2019 21:00:00 16.40833 C 13.23 g/m*3 16.41 C 2.54167 km/h
815 15-08-2019 22:00:00 15.93333 C 12.83 g/m*3 15.93 C 1.46667 km/h
816 15-08-2019 23:00:00 15.54167 C 12.59 g/m*3 15.54 C 1.06667 km/h
817 16-08-2019 00:00:00 15.29167 C 12.41 g/m*3 15.29 C 0.53333 km/h
818 16-08-2019 01:00:00 14.63333 C 11.94 g/m*3 14.63 C 0.13333 km/h
819 16-08-2019 02:00:00 14.575 C 11.99 g/m*3 14.58 C 0.8 km/h
820 16-08-2019 03:00:00 14.64167 C 12.04 g/m*3 14.64 C 0.4 km/h
821 16-08-2019 04:00:00 14.08333 C 11.64 g/m*3 14.08 C 0 km/h
822 16-08-2019 05:00:00 13.575 C 11.31 g/m*3 13.58 C 0.66667 km/h
823 16-08-2019 06:00:00 13.69167 C 11.48 g/m*3 13.69 C 2.26667 km/h
824 16-08-2019 07:00:00 14.18333 C 11.78 g/m*3 14.18 C 2.54167 km/h
825 16-08-2019 08:00:00 14.45833 C 11.8 g/m*3 14.46 C 5.1 km/h
Sensor: Nr:Datum:Temp:Abs-Feuchte:Windchill:Wind:
Aussen-T/F 826 16-08-2019 09:00:00 15.54167 C 11.89 g/m*3 15.54 C 9.29167 km/h
827 16-08-2019 10:00:00 16.26667 C 11.87 g/m*3 16.27 C 12.36667 km/h
828 16-08-2019 11:00:00 17.1 C 12 g/m*3 17.1 C 11.56667 km/h
829 16-08-2019 12:00:00 18.43333 C 12.04 g/m*3 18.43 C 12.9 km/h
830 16-08-2019 13:00:00 19.65 C 11.98 g/m*3 19.65 C 16.5 km/h
831 16-08-2019 14:00:00 20.4 C 11.97 g/m*3 20.4 C 12.76667 km/h
832 16-08-2019 15:00:00 21.90833 C 11.78 g/m*3 21.91 C 10.9 km/h
833 16-08-2019 16:00:00 23.63333 C 11.61 g/m*3 23.63 C 11.03333 km/h
834 16-08-2019 17:00:00 24.475 C 11.58 g/m*3 24.48 C 11.41667 km/h
835 16-08-2019 18:00:00 24.43333 C 11.61 g/m*3 24.43 C 9.94167 km/h
836 16-08-2019 19:00:00 23.41667 C 12.24 g/m*3 23.42 C 6.325 km/h
837 16-08-2019 20:00:00 20.075 C 12.43 g/m*3 20.08 C 0.13333 km/h
838 16-08-2019 21:00:00 17.75833 C 12.16 g/m*3 17.76 C 0 km/h
839 16-08-2019 22:00:00 16.88333 C 12.19 g/m*3 16.88 C 0 km/h
840 16-08-2019 23:00:00 16.23333 C 11.96 g/m*3 16.23 C 0 km/h
841 17-08-2019 00:00:00 15.69167 C 11.75 g/m*3 15.69 C 0 km/h
842 17-08-2019 01:00:00 15.86667 C 11.93 g/m*3 15.87 C 0 km/h
843 17-08-2019 02:00:00 15.76667 C 11.91 g/m*3 15.77 C 0 km/h
844 17-08-2019 03:00:00 15.76667 C 12.24 g/m*3 15.77 C 0 km/h
845 17-08-2019 04:00:00 15.69167 C 12.47 g/m*3 15.69 C 0 km/h
846 17-08-2019 05:00:00 15.63333 C 12.53 g/m*3 15.63 C 0 km/h
847 17-08-2019 06:00:00 15.65833 C 12.55 g/m*3 15.66 C 0 km/h
848 17-08-2019 07:00:00 16.13333 C 12.91 g/m*3 16.13 C 0.26667 km/h
849 17-08-2019 08:00:00 16.95833 C 13.1 g/m*3 16.96 C 3.075 km/h
850 17-08-2019 09:00:00 18.66667 C 12.81 g/m*3 18.67 C 7.76667 km/h
Sensor: Nr:Datum:Temp:Abs-Feuchte:Windchill:Wind:
Aussen-T/F 851 17-08-2019 10:00:00 19.01667 C 13.23 g/m*3 19.02 C 2.13333 km/h
852 17-08-2019 11:00:00 18.59167 C 13.81 g/m*3 18.59 C 1.60833 km/h
853 17-08-2019 12:00:00 19.275 C 14.11 g/m*3 19.27 C 2.14167 km/h
854 17-08-2019 13:00:00 20.68333 C 13.73 g/m*3 20.68 C 12.625 km/h
855 17-08-2019 14:00:00 21 C 13.72 g/m*3 21 C 10.35 km/h
856 17-08-2019 15:00:00 21.31667 C 13.96 g/m*3 21.32 C 8.34167 km/h
857 17-08-2019 16:00:00 21 C 13.91 g/m*3 21 C 8.85833 km/h
858 17-08-2019 17:00:00 20.44167 C 13.82 g/m*3 20.44 C 4.55833 km/h
859 17-08-2019 18:00:00 19.975 C 14.34 g/m*3 19.98 C 0.93333 km/h
860 17-08-2019 19:00:00 19.125 C 14.49 g/m*3 19.13 C 0.4 km/h
861 17-08-2019 20:00:00 18.325 C 14.26 g/m*3 18.33 C 0.13333 km/h
862 17-08-2019 21:00:00 17.84167 C 14.1 g/m*3 17.84 C 0.26667 km/h
863 17-08-2019 22:00:00 17.74167 C 14.22 g/m*3 17.74 C 0.4 km/h
864 17-08-2019 23:00:00 17.525 C 14.13 g/m*3 17.52 C 0.13333 km/h
865 18-08-2019 00:00:00 17.4 C 14.08 g/m*3 17.4 C 0 km/h
866 18-08-2019 01:00:00 17.38333 C 14.15 g/m*3 17.38 C 0 km/h
867 18-08-2019 02:00:00 17.225 C 14.08 g/m*3 17.23 C 0 km/h
868 18-08-2019 03:00:00 17.2 C 14.06 g/m*3 17.2 C 0 km/h
869 18-08-2019 04:00:00 17.18333 C 14.04 g/m*3 17.18 C 0 km/h
870 18-08-2019 05:00:00 17.3 C 14.25 g/m*3 17.3 C 0 km/h
871 18-08-2019 06:00:00 17.26667 C 14.26 g/m*3 17.27 C 0 km/h
872 18-08-2019 07:00:00 17.34167 C 14.33 g/m*3 17.34 C 0 km/h
873 18-08-2019 08:00:00 17.93333 C 14.84 g/m*3 17.93 C 0 km/h
874 18-08-2019 09:00:00 18.85833 C 15.72 g/m*3 18.86 C 0 km/h
875 18-08-2019 10:00:00 19.93333 C 16.77 g/m*3 19.93 C 1.33333 km/h
Sensor: Nr:Datum:Temp:Abs-Feuchte:Windchill:Wind:
Aussen-T/F 876 18-08-2019 11:00:00 22.19167 C 18.07 g/m*3 22.19 C 9.00833 km/h
877 18-08-2019 12:00:00 24.075 C 16.99 g/m*3 24.08 C 17.03333 km/h
878 18-08-2019 13:00:00 24.4 C 16.88 g/m*3 24.4 C 15.98333 km/h
879 18-08-2019 14:00:00 24.725 C 16.96 g/m*3 24.73 C 17.84167 km/h
880 18-08-2019 15:00:00 24.7 C 17.16 g/m*3 24.7 C 15.03333 km/h
881 18-08-2019 16:00:00 24.99167 C 16.74 g/m*3 24.99 C 14.9 km/h
882 18-08-2019 17:00:00 24.35 C 16.14 g/m*3 24.35 C 15.83333 km/h
883 18-08-2019 18:00:00 20.49167 C 16.3 g/m*3 20.49 C 1.33333 km/h
884 18-08-2019 19:00:00 20.00833 C 16.22 g/m*3 20.01 C 1.2 km/h
885 18-08-2019 20:00:00 19.45833 C 15.85 g/m*3 19.46 C 1.86667 km/h
886 18-08-2019 21:00:00 18.8 C 15.19 g/m*3 18.8 C 0.93333 km/h
887 18-08-2019 22:00:00 17.65 C 14.22 g/m*3 17.65 C 0.8 km/h
888 18-08-2019 23:00:00 16.59167 C 13.41 g/m*3 16.59 C 1.06667 km/h
889 19-08-2019 00:00:00 16.14167 C 13.19 g/m*3 16.14 C 0.53333 km/h
890 19-08-2019 01:00:00 16.10833 C 13.17 g/m*3 16.11 C 0.93333 km/h
891 19-08-2019 02:00:00 15.81667 C 12.94 g/m*3 15.82 C 0.26667 km/h
892 19-08-2019 03:00:00 15.38333 C 12.61 g/m*3 15.38 C 0 km/h
893 19-08-2019 04:00:00 14.78333 C 12.17 g/m*3 14.78 C 0 km/h
894 19-08-2019 05:00:00 15.125 C 12.53 g/m*3 15.13 C 0.13333 km/h
895 19-08-2019 06:00:00 14.61667 C 12.13 g/m*3 14.62 C 0 km/h
896 19-08-2019 07:00:00 15.025 C 12.48 g/m*3 15.03 C 2 km/h
897 19-08-2019 08:00:00 15.65833 C 12.95 g/m*3 15.66 C 0.93333 km/h
898 19-08-2019 09:00:00 15.89167 C 13.07 g/m*3 15.89 C 6.03333 km/h
899 19-08-2019 10:00:00 16.63333 C 12.41 g/m*3 16.63 C 7.79167 km/h
900 19-08-2019 11:00:00 18.55833 C 11.87 g/m*3 18.56 C 10.36667 km/h
Sensor: Nr:Datum:Temp:Abs-Feuchte:Windchill:Wind:
Aussen-T/F 901 19-08-2019 12:00:00 20.275 C 11.33 g/m*3 20.27 C 11.95833 km/h
902 19-08-2019 13:00:00 21.525 C 11.02 g/m*3 21.53 C 11.69167 km/h
903 19-08-2019 14:00:00 22.79167 C 10.93 g/m*3 22.79 C 13.7 km/h
904 19-08-2019 15:00:00 23.46667 C 10.69 g/m*3 23.47 C 13.55833 km/h
905 19-08-2019 16:00:00 23.78333 C 10.89 g/m*3 23.78 C 11.425 km/h
906 19-08-2019 17:00:00 24.025 C 10.55 g/m*3 24.03 C 11.68333 km/h
907 19-08-2019 18:00:00 23.51667 C 10.69 g/m*3 23.52 C 7.65 km/h
908 19-08-2019 19:00:00 22.95833 C 11.55 g/m*3 22.96 C 4.7 km/h
909 19-08-2019 20:00:00 19.71667 C 11.84 g/m*3 19.72 C 0.8 km/h
910 19-08-2019 21:00:00 17.30833 C 11.03 g/m*3 17.31 C 0 km/h
911 19-08-2019 22:00:00 16.51667 C 11.29 g/m*3 16.52 C 0 km/h
912 19-08-2019 23:00:00 15.21667 C 10.86 g/m*3 15.22 C 0.13333 km/h
913 20-08-2019 00:00:00 13.975 C 10.43 g/m*3 13.98 C 0 km/h
914 20-08-2019 01:00:00 13.21667 C 10.16 g/m*3 13.22 C 0.53333 km/h
915 20-08-2019 02:00:00 12.825 C 10.09 g/m*3 12.83 C 2.13333 km/h
916 20-08-2019 03:00:00 12.21667 C 9.79 g/m*3 12.22 C 0 km/h
917 20-08-2019 04:00:00 11.34167 C 9.46 g/m*3 11.34 C 0.4 km/h
918 20-08-2019 05:00:00 10.9 C 9.32 g/m*3 10.9 C 0.13333 km/h
919 20-08-2019 06:00:00 10.425 C 9.12 g/m*3 10.43 C 0.26667 km/h
920 20-08-2019 07:00:00 10.78333 C 9.41 g/m*3 10.78 C 0 km/h
921 20-08-2019 08:00:00 11.425 C 9.83 g/m*3 11.43 C 0.93333 km/h
922 20-08-2019 09:00:00 12.61667 C 10.53 g/m*3 12.62 C 1.06667 km/h
923 20-08-2019 10:00:00 15.26667 C 11.21 g/m*3 15.27 C 0.66667 km/h
924 20-08-2019 11:00:00 17.375 C 10.89 g/m*3 17.38 C 2.13333 km/h
925 20-08-2019 12:00:00 18.625 C 10.65 g/m*3 18.63 C 1.46667 km/h
Sensor: Nr:Datum:Temp:Abs-Feuchte:Windchill:Wind:
Aussen-T/F 926 20-08-2019 13:00:00 19.525 C 10.45 g/m*3 19.52 C 3.875 km/h
927 20-08-2019 14:00:00 20.43333 C 10.16 g/m*3 20.43 C 4.54167 km/h
928 20-08-2019 15:00:00 21.10833 C 10.37 g/m*3 21.11 C 5.08333 km/h
929 20-08-2019 16:00:00 21.41667 C 11.04 g/m*3 21.42 C 2.13333 km/h
930 20-08-2019 17:00:00 20.68333 C 11.59 g/m*3 20.68 C 2.40833 km/h
931 20-08-2019 18:00:00 20.375 C 13.06 g/m*3 20.38 C 0.26667 km/h
932 20-08-2019 19:00:00 18.88333 C 12.11 g/m*3 18.88 C 0.13333 km/h
933 20-08-2019 20:00:00 17.58333 C 11.35 g/m*3 17.58 C 0.8 km/h
934 20-08-2019 21:00:00 16.76667 C 11.4 g/m*3 16.77 C 0.26667 km/h
935 20-08-2019 22:00:00 15.925 C 11.36 g/m*3 15.93 C 0.4 km/h
936 20-08-2019 23:00:00 15.175 C 11.02 g/m*3 15.18 C 0.26667 km/h
937 21-08-2019 00:00:00 14.11667 C 10.59 g/m*3 14.12 C 0 km/h
938 21-08-2019 01:00:00 13.55833 C 10.42 g/m*3 13.56 C 0 km/h
939 21-08-2019 02:00:00 12.65833 C 10.08 g/m*3 12.66 C 0.13333 km/h
940 21-08-2019 03:00:00 11.99167 C 9.85 g/m*3 11.99 C 0.13333 km/h
941 21-08-2019 04:00:00 11.30833 C 9.54 g/m*3 11.31 C 0.13333 km/h
942 21-08-2019 05:00:00 10.73333 C 9.25 g/m*3 10.73 C 0 km/h
943 21-08-2019 06:00:00 10.325 C 9.1 g/m*3 10.33 C 0 km/h
944 21-08-2019 07:00:00 10.35833 C 9.16 g/m*3 10.36 C 0.26667 km/h
945 21-08-2019 08:00:00 10.85833 C 9.52 g/m*3 10.86 C 0.13333 km/h
946 21-08-2019 09:00:00 11.86667 C 10.15 g/m*3 11.87 C 0.66667 km/h
947 21-08-2019 10:00:00 13.33333 C 11.14 g/m*3 13.33 C 0 km/h
948 21-08-2019 11:00:00 15.80833 C 12.13 g/m*3 15.81 C 0.93333 km/h
949 21-08-2019 12:00:00 18.54167 C 11.58 g/m*3 18.54 C 1.46667 km/h
950 21-08-2019 13:00:00 20.375 C 10.25 g/m*3 20.38 C 5.38333 km/h
Sensor: Nr:Datum:Temp:Abs-Feuchte:Windchill:Wind:
Aussen-T/F 951 21-08-2019 14:00:00 21.79167 C 10.04 g/m*3 21.79 C 6.575 km/h
952 21-08-2019 15:00:00 22.95833 C 10.3 g/m*3 22.96 C 2.13333 km/h
953 21-08-2019 16:00:00 24.475 C 9.39 g/m*3 24.48 C 7.23333 km/h
954 21-08-2019 17:00:00 24.65 C 9.4 g/m*3 24.65 C 4.28333 km/h
955 21-08-2019 18:00:00 24.64167 C 10 g/m*3 24.64 C 4.94167 km/h
956 21-08-2019 19:00:00 23.46667 C 11.61 g/m*3 23.47 C 1.6 km/h
957 21-08-2019 20:00:00 19.875 C 11.09 g/m*3 19.88 C 0 km/h
958 21-08-2019 21:00:00 17.49167 C 9.97 g/m*3 17.49 C 0.4 km/h
959 21-08-2019 22:00:00 16.29167 C 9.59 g/m*3 16.29 C 0 km/h
960 21-08-2019 23:00:00 15.05833 C 9.99 g/m*3 15.06 C 0 km/h
961 22-08-2019 00:00:00 13.475 C 9.75 g/m*3 13.48 C 0 km/h
962 22-08-2019 01:00:00 12.41667 C 9.41 g/m*3 12.42 C 0 km/h
963 22-08-2019 02:00:00 11.66667 C 9.25 g/m*3 11.67 C 0 km/h
964 22-08-2019 03:00:00 11.125 C 9.12 g/m*3 11.13 C 0 km/h
965 22-08-2019 04:00:00 10.55833 C 8.92 g/m*3 10.56 C 0 km/h
966 22-08-2019 05:00:00 9.99167 C 8.7 g/m*3 9.99 C 0 km/h
967 22-08-2019 06:00:00 9.71667 C 8.65 g/m*3 9.72 C 0 km/h
968 22-08-2019 07:00:00 9.7 C 8.73 g/m*3 9.7 C 0 km/h
969 22-08-2019 08:00:00 10.30833 C 9.13 g/m*3 10.31 C 0 km/h
970 22-08-2019 09:00:00 11.525 C 9.93 g/m*3 11.53 C 0 km/h
971 22-08-2019 10:00:00 13.51667 C 11.07 g/m*3 13.52 C 0 km/h
972 22-08-2019 11:00:00 16.925 C 11.87 g/m*3 16.93 C 0 km/h
973 22-08-2019 12:00:00 20.11667 C 11.46 g/m*3 20.12 C 3.46667 km/h
974 22-08-2019 13:00:00 22.71667 C 10.89 g/m*3 22.72 C 5.09167 km/h
975 22-08-2019 14:00:00 24.08333 C 10.49 g/m*3 24.08 C 6.71667 km/h
Sensor: Nr:Datum:Temp:Abs-Feuchte:Windchill:Wind:
Aussen-T/F 976 22-08-2019 15:00:00 25.89167 C 9.9 g/m*3 25.89 C 6.84167 km/h
977 22-08-2019 16:00:00 27.33333 C 9.76 g/m*3 27.33 C 6.16667 km/h
978 22-08-2019 17:00:00 28.01667 C 9.41 g/m*3 28.02 C 6.16667 km/h
979 22-08-2019 18:00:00 28.38333 C 9.67 g/m*3 28.38 C 3.46667 km/h
980 22-08-2019 19:00:00 26.06667 C 11.97 g/m*3 26.07 C 0.26667 km/h
981 22-08-2019 20:00:00 21.49167 C 11.04 g/m*3 21.49 C 0.26667 km/h
982 22-08-2019 21:00:00 18.25 C 10.74 g/m*3 18.25 C 0 km/h
983 22-08-2019 22:00:00 16.40833 C 10.6 g/m*3 16.41 C 0 km/h
984 22-08-2019 23:00:00 14.90833 C 10.12 g/m*3 14.91 C 0 km/h
985 23-08-2019 00:00:00 13.94167 C 9.97 g/m*3 13.94 C 0 km/h
986 23-08-2019 01:00:00 13.26667 C 9.81 g/m*3 13.27 C 0 km/h
987 23-08-2019 02:00:00 12.775 C 9.72 g/m*3 12.78 C 0 km/h
988 23-08-2019 03:00:00 11.975 C 9.49 g/m*3 11.98 C 0 km/h
989 23-08-2019 04:00:00 11.56667 C 9.45 g/m*3 11.57 C 0 km/h
990 23-08-2019 05:00:00 11.06667 C 9.24 g/m*3 11.07 C 0 km/h
991 23-08-2019 06:00:00 10.66667 C 9.14 g/m*3 10.67 C 0 km/h
992 23-08-2019 07:00:00 10.7 C 9.25 g/m*3 10.7 C 0 km/h
993 23-08-2019 08:00:00 11.3 C 9.68 g/m*3 11.3 C 0 km/h
994 23-08-2019 09:00:00 12.35 C 10.35 g/m*3 12.35 C 0 km/h
995 23-08-2019 10:00:00 14.34167 C 11.59 g/m*3 14.34 C 0 km/h
996 23-08-2019 11:00:00 17.6 C 12.75 g/m*3 17.6 C 0 km/h
997 23-08-2019 12:00:00 21.16667 C 12.76 g/m*3 21.17 C 1.46667 km/h
998 23-08-2019 13:00:00 24.1 C 11.12 g/m*3 24.1 C 3.86667 km/h
999 23-08-2019 14:00:00 26.13333 C 10.36 g/m*3 26.13 C 7.925 km/h
1000 23-08-2019 15:00:00 27.85833 C 10.32 g/m*3 27.86 C 6.84167 km/h
Sensor: Nr:Datum:Temp:Abs-Feuchte:Windchill:Wind:
Aussen-T/F 1001 23-08-2019 16:00:00 29.15 C 10.11 g/m*3 29.15 C 9.28333 km/h
1002 23-08-2019 17:00:00 29.375 C 9.97 g/m*3 29.38 C 12.5 km/h
1003 23-08-2019 18:00:00 28.94167 C 9.47 g/m*3 28.94 C 12.36667 km/h
1004 23-08-2019 19:00:00 27.20833 C 12.06 g/m*3 27.21 C 1.875 km/h
1005 23-08-2019 20:00:00 23.01667 C 11.42 g/m*3 23.02 C 0.66667 km/h
1006 23-08-2019 21:00:00 20.16667 C 11.34 g/m*3 20.17 C 0 km/h
1007 23-08-2019 22:00:00 17.85 C 11.09 g/m*3 17.85 C 0 km/h
1008 23-08-2019 23:00:00 16.23333 C 10.61 g/m*3 16.23 C 0 km/h
1009 24-08-2019 00:00:00 14.96667 C 10.33 g/m*3 14.97 C 0 km/h
1010 24-08-2019 01:00:00 14.05833 C 10.23 g/m*3 14.06 C 0 km/h
1011 24-08-2019 02:00:00 13.425 C 10.07 g/m*3 13.43 C 0 km/h
1012 24-08-2019 03:00:00 12.7 C 9.88 g/m*3 12.7 C 0 km/h
1013 24-08-2019 04:00:00 12.06667 C 9.67 g/m*3 12.07 C 0 km/h
1014 24-08-2019 05:00:00 11.66667 C 9.58 g/m*3 11.67 C 0 km/h
1015 24-08-2019 06:00:00 11.425 C 9.54 g/m*3 11.43 C 0 km/h
1016 24-08-2019 07:00:00 11.575 C 9.75 g/m*3 11.58 C 0 km/h
1017 24-08-2019 08:00:00 12.06667 C 10.08 g/m*3 12.07 C 0 km/h
1018 24-08-2019 09:00:00 13.23333 C 10.82 g/m*3 13.23 C 0 km/h
1019 24-08-2019 10:00:00 15.5 C 12.09 g/m*3 15.5 C 0.4 km/h
1020 24-08-2019 11:00:00 18.88333 C 12.89 g/m*3 18.88 C 0.66667 km/h
1021 24-08-2019 12:00:00 22.24167 C 13.01 g/m*3 22.24 C 2.66667 km/h
1022 24-08-2019 13:00:00 25.4 C 12.28 g/m*3 25.4 C 7.78333 km/h
1023 24-08-2019 14:00:00 27.05 C 11.27 g/m*3 27.05 C 8.58333 km/h
1024 24-08-2019 15:00:00 28.69167 C 10.64 g/m*3 28.69 C 8.875 km/h
1025 24-08-2019 16:00:00 29.81667 C 10.33 g/m*3 29.82 C 11.69167 km/h
Sensor: Nr:Datum:Temp:Abs-Feuchte:Windchill:Wind:
Aussen-T/F 1026 24-08-2019 17:00:00 30.29167 C 10.09 g/m*3 30.29 C 11.15833 km/h
1027 24-08-2019 18:00:00 30.66667 C 10.95 g/m*3 30.67 C 9.55 km/h
1028 24-08-2019 19:00:00 28.56667 C 13.72 g/m*3 28.57 C 1.6 km/h
1029 24-08-2019 20:00:00 24.29167 C 13.11 g/m*3 24.29 C 0.66667 km/h
1030 24-08-2019 21:00:00 22.01667 C 12.87 g/m*3 22.02 C 0.4 km/h
1031 24-08-2019 22:00:00 19.78333 C 12.64 g/m*3 19.78 C 0.13333 km/h
1032 24-08-2019 23:00:00 18.175 C 12.16 g/m*3 18.18 C 0 km/h
1033 25-08-2019 00:00:00 17.35833 C 12.09 g/m*3 17.36 C 0 km/h
1034 25-08-2019 01:00:00 16.96667 C 11.95 g/m*3 16.97 C 0.26667 km/h
1035 25-08-2019 02:00:00 16.15833 C 11.73 g/m*3 16.16 C 0 km/h
1036 25-08-2019 03:00:00 15.53333 C 11.66 g/m*3 15.53 C 0.26667 km/h
1037 25-08-2019 04:00:00 15.19167 C 11.47 g/m*3 15.19 C 0.13333 km/h
1038 25-08-2019 05:00:00 14.65833 C 11.28 g/m*3 14.66 C 0 km/h
1039 25-08-2019 06:00:00 14.41667 C 11.24 g/m*3 14.42 C 0 km/h
1040 25-08-2019 07:00:00 14.80833 C 11.59 g/m*3 14.81 C 0.26667 km/h
1041 25-08-2019 08:00:00 15.84167 C 12.21 g/m*3 15.84 C 0 km/h
1042 25-08-2019 09:00:00 17.2 C 12.94 g/m*3 17.2 C 0 km/h
1043 25-08-2019 10:00:00 18.78333 C 13.62 g/m*3 18.78 C 0 km/h
1044 25-08-2019 11:00:00 21.64167 C 14.72 g/m*3 21.64 C 1.46667 km/h
1045 25-08-2019 12:00:00 24.54167 C 15.7 g/m*3 24.54 C 3.33333 km/h
1046 25-08-2019 13:00:00 26.76667 C 15.98 g/m*3 26.77 C 3.33333 km/h
1047 25-08-2019 14:00:00 28.375 C 15.82 g/m*3 28.38 C 4.28333 km/h
1048 25-08-2019 15:00:00 30.28333 C 15.83 g/m*3 30.28 C 5.5 km/h
1049 25-08-2019 16:00:00 31.18333 C 16.05 g/m*3 31.18 C 6.05833 km/h
1050 25-08-2019 17:00:00 32.3 C 16.12 g/m*3 32.3 C 3.875 km/h
Sensor: Nr:Datum:Temp:Abs-Feuchte:Windchill:Wind:
Aussen-T/F 1051 25-08-2019 18:00:00 30.05 C 16.09 g/m*3 30.05 C 4.425 km/h
1052 25-08-2019 19:00:00 27.125 C 16.41 g/m*3 27.13 C 0.13333 km/h
1053 25-08-2019 20:00:00 24.31667 C 15.82 g/m*3 24.32 C 0.13333 km/h
1054 25-08-2019 21:00:00 22.98333 C 15.85 g/m*3 22.98 C 0 km/h
1055 25-08-2019 22:00:00 21.19167 C 15.27 g/m*3 21.19 C 0 km/h
1056 25-08-2019 23:00:00 20.10833 C 14.86 g/m*3 20.11 C 0 km/h
1057 26-08-2019 00:00:00 19.475 C 14.76 g/m*3 19.48 C 0 km/h
1058 26-08-2019 01:00:00 19.14167 C 14.65 g/m*3 19.14 C 0 km/h
1059 26-08-2019 02:00:00 18.53333 C 14.39 g/m*3 18.53 C 0.13333 km/h
1060 26-08-2019 03:00:00 18.025 C 14.1 g/m*3 18.02 C 0 km/h
1061 26-08-2019 04:00:00 17.41667 C 13.8 g/m*3 17.42 C 0 km/h
1062 26-08-2019 05:00:00 17.14167 C 13.74 g/m*3 17.14 C 0.13333 km/h
1063 26-08-2019 06:00:00 16.76667 C 13.46 g/m*3 16.77 C 0 km/h
1064 26-08-2019 07:00:00 16.71667 C 13.55 g/m*3 16.72 C 0 km/h
1065 26-08-2019 08:00:00 17.475 C 14.29 g/m*3 17.48 C 0 km/h
1066 26-08-2019 09:00:00 18.55 C 15.21 g/m*3 18.55 C 0 km/h
1067 26-08-2019 10:00:00 20.15833 C 16.12 g/m*3 20.16 C 0.13333 km/h
1068 26-08-2019 11:00:00 22.95 C 17.15 g/m*3 22.95 C 0.93333 km/h
1069 26-08-2019 12:00:00 25.70833 C 17.45 g/m*3 25.71 C 1.86667 km/h
1070 26-08-2019 13:00:00 28.3 C 16.68 g/m*3 28.3 C 5.075 km/h
1071 26-08-2019 14:00:00 30.01667 C 15.99 g/m*3 30.02 C 5.08333 km/h
1072 26-08-2019 15:00:00 30.85833 C 16.04 g/m*3 30.86 C 4.95 km/h
1073 26-08-2019 16:00:00 28.55 C 16.58 g/m*3 28.55 C 2 km/h
1074 26-08-2019 17:00:00 27.475 C 17.77 g/m*3 27.48 C 0 km/h
1075 26-08-2019 18:00:00 27.10833 C 18.14 g/m*3 27.11 C 0 km/h
Sensor: Nr:Datum:Temp:Abs-Feuchte:Windchill:Wind:
Aussen-T/F 1076 26-08-2019 19:00:00 28.06667 C 18.01 g/m*3 28.07 C 0 km/h
1077 26-08-2019 20:00:00 24.69167 C 16.65 g/m*3 24.69 C 0 km/h
1078 26-08-2019 21:00:00 22.45 C 16.03 g/m*3 22.45 C 0 km/h
1079 26-08-2019 22:00:00 21.09167 C 15.61 g/m*3 21.09 C 0 km/h
1080 26-08-2019 23:00:00 20.175 C 15.34 g/m*3 20.18 C 0.13333 km/h
1081 27-08-2019 00:00:00 19.40833 C 15.01 g/m*3 19.41 C 0 km/h
1082 27-08-2019 01:00:00 19.01667 C 15.01 g/m*3 19.02 C 0 km/h
1083 27-08-2019 02:00:00 18.39167 C 14.59 g/m*3 18.39 C 0 km/h
1084 27-08-2019 03:00:00 17.91667 C 14.38 g/m*3 17.92 C 0.13333 km/h
1085 27-08-2019 04:00:00 17.55833 C 14.1 g/m*3 17.56 C 0 km/h
1086 27-08-2019 05:00:00 17.15833 C 13.88 g/m*3 17.16 C 0 km/h
1087 27-08-2019 06:00:00 16.79167 C 13.62 g/m*3 16.79 C 0 km/h
1088 27-08-2019 07:00:00 16.85 C 13.77 g/m*3 16.85 C 0 km/h
1089 27-08-2019 08:00:00 17.325 C 14.24 g/m*3 17.33 C 0 km/h
1090 27-08-2019 09:00:00 18.4 C 15.26 g/m*3 18.4 C 0 km/h
1091 27-08-2019 10:00:00 19.78333 C 16.4 g/m*3 19.78 C 0 km/h
1092 27-08-2019 11:00:00 22.275 C 17.8 g/m*3 22.28 C 0 km/h
1093 27-08-2019 12:00:00 25.41667 C 17.97 g/m*3 25.42 C 0 km/h
1094 27-08-2019 13:00:00 28.99167 C 16.36 g/m*3 28.99 C 1.06667 km/h
1095 27-08-2019 14:00:00 30.54167 C 15.38 g/m*3 30.54 C 2 km/h
1096 27-08-2019 15:00:00 31.89167 C 14.46 g/m*3 31.89 C 4.95833 km/h
1097 27-08-2019 16:00:00 33.23333 C 15.02 g/m*3 33.23 C 4.28333 km/h
1098 27-08-2019 17:00:00 32.29167 C 16.29 g/m*3 32.29 C 1.46667 km/h
1099 27-08-2019 18:00:00 29.55833 C 16.9 g/m*3 29.56 C 1.2 km/h
1100 27-08-2019 19:00:00 27.7 C 17.08 g/m*3 27.7 C 5.23333 km/h
Sensor: Nr:Datum:Temp:Abs-Feuchte:Windchill:Wind:
Aussen-T/F 1101 27-08-2019 20:00:00 23.50833 C 17.31 g/m*3 23.51 C 0.53333 km/h
1102 27-08-2019 21:00:00 22.09167 C 16.5 g/m*3 22.09 C 0.4 km/h
1103 27-08-2019 22:00:00 21.14167 C 15.96 g/m*3 21.14 C 0 km/h
1104 27-08-2019 23:00:00 20.43333 C 15.63 g/m*3 20.43 C 0.13333 km/h
1105 28-08-2019 00:00:00 19.9 C 15.48 g/m*3 19.9 C 0.4 km/h
1106 28-08-2019 01:00:00 19.61667 C 15.5 g/m*3 19.62 C 0 km/h
1107 28-08-2019 02:00:00 19.24167 C 15.32 g/m*3 19.24 C 0 km/h
1108 28-08-2019 03:00:00 18.71667 C 14.98 g/m*3 18.72 C 0.4 km/h
1109 28-08-2019 04:00:00 18.33333 C 14.71 g/m*3 18.33 C 0 km/h
1110 28-08-2019 05:00:00 17.96667 C 14.47 g/m*3 17.97 C 0 km/h
1111 28-08-2019 06:00:00 18.01667 C 14.62 g/m*3 18.02 C 0 km/h
1112 28-08-2019 07:00:00 17.85833 C 14.51 g/m*3 17.86 C 0 km/h
1113 28-08-2019 08:00:00 18.64167 C 15.28 g/m*3 18.64 C 0.93333 km/h
1114 28-08-2019 09:00:00 19.75833 C 15.89 g/m*3 19.76 C 2.8 km/h
1115 28-08-2019 10:00:00 22.45 C 15.49 g/m*3 22.45 C 7.4 km/h
1116 28-08-2019 11:00:00 23.975 C 15.57 g/m*3 23.98 C 4.40833 km/h
1117 28-08-2019 12:00:00 24.49167 C 15.85 g/m*3 24.49 C 4.025 km/h
1118 28-08-2019 13:00:00 26.54167 C 14.76 g/m*3 26.54 C 7.66667 km/h
1119 28-08-2019 14:00:00 29.44167 C 14.81 g/m*3 29.44 C 9.29167 km/h
1120 28-08-2019 15:00:00 30.35833 C 13.68 g/m*3 30.36 C 11.43333 km/h
1121 28-08-2019 16:00:00 31.55833 C 13.63 g/m*3 31.56 C 11.29167 km/h
1122 28-08-2019 17:00:00 31.80833 C 14.03 g/m*3 31.81 C 7.39167 km/h
1123 28-08-2019 18:00:00 31.18333 C 14.79 g/m*3 31.18 C 4.96667 km/h
1124 28-08-2019 19:00:00 27.875 C 14.09 g/m*3 27.88 C 0.53333 km/h
1125 28-08-2019 20:00:00 25.59167 C 13.46 g/m*3 25.59 C 0.4 km/h
Sensor: Nr:Datum:Temp:Abs-Feuchte:Windchill:Wind:
Aussen-T/F 1126 28-08-2019 21:00:00 24.2 C 13.75 g/m*3 24.2 C 0.53333 km/h
1127 28-08-2019 22:00:00 22.43333 C 13.94 g/m*3 22.43 C 0 km/h
1128 28-08-2019 23:00:00 21.38333 C 13.92 g/m*3 21.38 C 0 km/h
1129 29-08-2019 00:00:00 20.775 C 13.89 g/m*3 20.78 C 0 km/h
1130 29-08-2019 01:00:00 20.10833 C 13.75 g/m*3 20.11 C 0 km/h
1131 29-08-2019 02:00:00 19.2 C 13.55 g/m*3 19.2 C 0 km/h
1132 29-08-2019 03:00:00 18.225 C 13.21 g/m*3 18.23 C 0 km/h
1133 29-08-2019 04:00:00 17.53333 C 13.15 g/m*3 17.53 C 0 km/h
1134 29-08-2019 05:00:00 17.78333 C 13.63 g/m*3 17.78 C 0 km/h
1135 29-08-2019 06:00:00 18.34167 C 14.08 g/m*3 18.34 C 0.53333 km/h
1136 29-08-2019 07:00:00 19.04167 C 14.58 g/m*3 19.04 C 2.4 km/h
1137 29-08-2019 08:00:00 19.89167 C 14.95 g/m*3 19.89 C 3.06667 km/h
1138 29-08-2019 09:00:00 20.7 C 15.27 g/m*3 20.7 C 2.4 km/h
1139 29-08-2019 10:00:00 21.175 C 16.01 g/m*3 21.18 C 0.4 km/h
1140 29-08-2019 11:00:00 22.13333 C 16.14 g/m*3 22.13 C 2.94167 km/h
1141 29-08-2019 12:00:00 23.29167 C 16.23 g/m*3 23.29 C 5.075 km/h
1142 29-08-2019 13:00:00 25.45 C 16.23 g/m*3 25.45 C 8.475 km/h
1143 29-08-2019 14:00:00 26.78333 C 16.49 g/m*3 26.78 C 7.925 km/h
1144 29-08-2019 15:00:00 27.53333 C 16.59 g/m*3 27.53 C 9.41667 km/h
1145 29-08-2019 16:00:00 27.875 C 16.18 g/m*3 27.88 C 9.40833 km/h
1146 29-08-2019 17:00:00 27.28333 C 15.75 g/m*3 27.28 C 8.74167 km/h
1147 29-08-2019 18:00:00 26.44167 C 15.18 g/m*3 26.44 C 8.325 km/h
1148 29-08-2019 19:00:00 24.73333 C 14.66 g/m*3 24.73 C 4.675 km/h
1149 29-08-2019 20:00:00 22.80833 C 14.37 g/m*3 22.81 C 1.2 km/h
1150 29-08-2019 21:00:00 20.89167 C 13.97 g/m*3 20.89 C 0.4 km/h
Sensor: Nr:Datum:Temp:Abs-Feuchte:Windchill:Wind:
Aussen-T/F 1151 29-08-2019 22:00:00 20.525 C 14.05 g/m*3 20.53 C 0.13333 km/h
1152 29-08-2019 23:00:00 20.48333 C 14.15 g/m*3 20.48 C 0.26667 km/h
1153 30-08-2019 00:00:00 20.30833 C 13.9 g/m*3 20.31 C 2.4 km/h
1154 30-08-2019 01:00:00 19.18333 C 13.66 g/m*3 19.18 C 0 km/h
1155 30-08-2019 02:00:00 18.2 C 13.38 g/m*3 18.2 C 0 km/h
1156 30-08-2019 03:00:00 17.48333 C 13.17 g/m*3 17.48 C 0 km/h
1157 30-08-2019 04:00:00 16.65833 C 12.77 g/m*3 16.66 C 0 km/h
1158 30-08-2019 05:00:00 15.975 C 12.62 g/m*3 15.98 C 0.13333 km/h
1159 30-08-2019 06:00:00 15.91667 C 12.64 g/m*3 15.92 C 0.13333 km/h
1160 30-08-2019 07:00:00 15.41667 C 12.32 g/m*3 15.42 C 0 km/h
1161 30-08-2019 08:00:00 16.09167 C 12.94 g/m*3 16.09 C 0.26667 km/h
1162 30-08-2019 09:00:00 17.96667 C 13.59 g/m*3 17.97 C 1.06667 km/h
1163 30-08-2019 10:00:00 19.41667 C 13.65 g/m*3 19.42 C 1.2 km/h
1164 30-08-2019 11:00:00 20.825 C 13.78 g/m*3 20.83 C 1.46667 km/h
1165 30-08-2019 12:00:00 22.16667 C 14.24 g/m*3 22.17 C 3.86667 km/h
1166 30-08-2019 13:00:00 23.59167 C 14.51 g/m*3 23.59 C 4.84167 km/h
1167 30-08-2019 14:00:00 25 C 14 g/m*3 25 C 6.01667 km/h
1168 30-08-2019 15:00:00 26.16667 C 12.59 g/m*3 26.17 C 5.75833 km/h
1169 30-08-2019 16:00:00 27.98333 C 12.41 g/m*3 27.98 C 5.49167 km/h
1170 30-08-2019 17:00:00 29.66667 C 11.27 g/m*3 29.67 C 3.73333 km/h
1171 30-08-2019 18:00:00 29.54167 C 11.12 g/m*3 29.54 C 6.29167 km/h
1172 30-08-2019 19:00:00 27.175 C 12.24 g/m*3 27.18 C 2.13333 km/h
1173 30-08-2019 20:00:00 23 C 11.42 g/m*3 23 C 0.26667 km/h
1174 30-08-2019 21:00:00 20.38333 C 11.5 g/m*3 20.38 C 0 km/h
1175 30-08-2019 22:00:00 18.64167 C 11.58 g/m*3 18.64 C 0 km/h
Sensor: Nr:Datum:Temp:Abs-Feuchte:Windchill:Wind:
Aussen-T/F 1176 30-08-2019 23:00:00 17.38333 C 11.44 g/m*3 17.38 C 0 km/h
1177 31-08-2019 00:00:00 16.65 C 11.48 g/m*3 16.65 C 0 km/h
1178 31-08-2019 01:00:00 15.825 C 11.35 g/m*3 15.83 C 0 km/h
1179 31-08-2019 02:00:00 15.21667 C 11.21 g/m*3 15.22 C 0 km/h
1180 31-08-2019 03:00:00 14.75 C 11.18 g/m*3 14.75 C 0 km/h
1181 31-08-2019 04:00:00 14.31667 C 11.09 g/m*3 14.32 C 0 km/h
1182 31-08-2019 05:00:00 14.15 C 11.15 g/m*3 14.15 C 0 km/h
1183 31-08-2019 06:00:00 14.1 C 11.17 g/m*3 14.1 C 0 km/h
1184 31-08-2019 07:00:00 14.10833 C 11.25 g/m*3 14.11 C 0 km/h
1185 31-08-2019 08:00:00 14.76667 C 11.71 g/m*3 14.77 C 0 km/h
1186 31-08-2019 09:00:00 15.89167 C 12.49 g/m*3 15.89 C 0 km/h
1187 31-08-2019 10:00:00 17.8 C 13.51 g/m*3 17.8 C 0 km/h
1188 31-08-2019 11:00:00 20.6 C 14.54 g/m*3 20.6 C 0 km/h
1189 31-08-2019 12:00:00 23.625 C 15.57 g/m*3 23.63 C 0.675 km/h
1190 31-08-2019 13:00:00 28.49167 C 15.25 g/m*3 28.49 C 7.24167 km/h
1191 31-08-2019 14:00:00 30.36667 C 14.64 g/m*3 30.37 C 6.83333 km/h
1192 31-08-2019 15:00:00 31.43333 C 14.19 g/m*3 31.43 C 8.2 km/h
1193 31-08-2019 16:00:00 32.48333 C 14.66 g/m*3 32.48 C 6.16667 km/h
1194 31-08-2019 17:00:00 33.89167 C 14.86 g/m*3 33.89 C 8.05 km/h
1195 31-08-2019 18:00:00 33.71667 C 14.79 g/m*3 33.72 C 6.43333 km/h
1196 31-08-2019 19:00:00 31.13333 C 15.74 g/m*3 31.13 C 0.8 km/h
1197 31-08-2019 20:00:00 25.89167 C 14.52 g/m*3 25.89 C 0.4 km/h
1198 31-08-2019 21:00:00 24.875 C 14.17 g/m*3 24.88 C 4.95833 km/h
1199 31-08-2019 22:00:00 24.58333 C 15.85 g/m*3 24.58 C 4.81667 km/h
1200 31-08-2019 23:00:00 20.69167 C 15.76 g/m*3 20.69 C 1.73333 km/h
Sensor: Nr:Datum:Temp:Abs-Feuchte:Windchill:Wind:
Aussen-T/F 1201 01-09-2019 00:00:00 19.66667 C 15.46 g/m*3 19.67 C 0.66667 km/h
1202 01-09-2019 01:00:00 19.34167 C 15.12 g/m*3 19.34 C 0.53333 km/h
1203 01-09-2019 02:00:00 19.10833 C 14.09 g/m*3 19.11 C 0 km/h
1204 01-09-2019 03:00:00 18.325 C 13.17 g/m*3 18.33 C 1.33333 km/h
1205 01-09-2019 04:00:00 17.88333 C 12.23 g/m*3 17.88 C 2.66667 km/h
1206 01-09-2019 05:00:00 17.84167 C 12.03 g/m*3 17.84 C 4.81667 km/h
1207 01-09-2019 06:00:00 17.30833 C 11.73 g/m*3 17.31 C 2.80833 km/h
1208 01-09-2019 07:00:00 16.1 C 11.74 g/m*3 16.1 C 0.53333 km/h
1209 01-09-2019 08:00:00 17.48333 C 12.3 g/m*3 17.48 C 4.28333 km/h
1210 01-09-2019 09:00:00 18.13333 C 12.46 g/m*3 18.13 C 5.75 km/h
1211 01-09-2019 10:00:00 19.10833 C 12.55 g/m*3 19.11 C 7.65 km/h
1212 01-09-2019 11:00:00 20.025 C 12.85 g/m*3 20.02 C 8.05833 km/h
1213 01-09-2019 12:00:00 20.05 C 12.97 g/m*3 20.05 C 10.08333 km/h
1214 01-09-2019 13:00:00 19.69167 C 13.22 g/m*3 19.69 C 11.29167 km/h
1215 01-09-2019 14:00:00 20.075 C 13.13 g/m*3 20.08 C 8.04167 km/h
1216 01-09-2019 15:00:00 20.61667 C 12.84 g/m*3 20.62 C 8.05 km/h
1217 01-09-2019 16:00:00 20.38333 C 12.02 g/m*3 20.38 C 11.01667 km/h
1218 01-09-2019 17:00:00 19.975 C 11.29 g/m*3 19.98 C 10.49167 km/h
1219 01-09-2019 18:00:00 20.75833 C 10.94 g/m*3 20.76 C 10.1 km/h
1220 01-09-2019 19:00:00 20.60833 C 10.37 g/m*3 20.61 C 6.725 km/h
1221 01-09-2019 20:00:00 18.38333 C 10.45 g/m*3 18.38 C 1.475 km/h
1222 01-09-2019 21:00:00 16.68333 C 10.27 g/m*3 16.68 C 0 km/h
1223 01-09-2019 22:00:00 16.39167 C 9.96 g/m*3 16.39 C 0 km/h
1224 01-09-2019 23:00:00 15.59167 C 9.97 g/m*3 15.59 C 0 km/h
1225 02-09-2019 00:00:00 14.44167 C 9.36 g/m*3 14.44 C 0 km/h
Sensor: Nr:Datum:Temp:Abs-Feuchte:Windchill:Wind:
Aussen-T/F 1226 02-09-2019 01:00:00 13.29167 C 8.99 g/m*3 13.29 C 0 km/h
1227 02-09-2019 02:00:00 13.3 C 9.27 g/m*3 13.3 C 0 km/h
1228 02-09-2019 03:00:00 13.025 C 9.37 g/m*3 13.03 C 0 km/h
1229 02-09-2019 04:00:00 12 C 8.94 g/m*3 12 C 0.4 km/h
1230 02-09-2019 05:00:00 11.21667 C 8.72 g/m*3 11.22 C 0 km/h
1231 02-09-2019 06:00:00 10.15 C 8.45 g/m*3 10.15 C 0 km/h
1232 02-09-2019 07:00:00 9.73333 C 8.47 g/m*3 9.73 C 0.53333 km/h
1233 02-09-2019 08:00:00 10.03333 C 8.75 g/m*3 10.03 C 0 km/h
1234 02-09-2019 09:00:00 10.83333 C 9.17 g/m*3 10.83 C 0 km/h
1235 02-09-2019 10:00:00 12.85833 C 9.9 g/m*3 12.86 C 0.8 km/h
1236 02-09-2019 11:00:00 16.2 C 9.16 g/m*3 16.2 C 7.93333 km/h
1237 02-09-2019 12:00:00 17.53333 C 8.44 g/m*3 17.53 C 8.74167 km/h
1238 02-09-2019 13:00:00 18.70833 C 7.96 g/m*3 18.71 C 9.95833 km/h
1239 02-09-2019 14:00:00 19.83333 C 7.92 g/m*3 19.83 C 9.28333 km/h
1240 02-09-2019 15:00:00 20.175 C 7.9 g/m*3 20.18 C 7.90833 km/h
1241 02-09-2019 16:00:00 21.80833 C 7.98 g/m*3 21.81 C 9.68333 km/h
1242 02-09-2019 17:00:00 23.09167 C 7.83 g/m*3 23.09 C 6.70833 km/h
1243 02-09-2019 18:00:00 22.99167 C 7.67 g/m*3 22.99 C 5.48333 km/h
1244 02-09-2019 19:00:00 20.575 C 8.35 g/m*3 20.58 C 1.2 km/h
1245 02-09-2019 20:00:00 16.9 C 8.1 g/m*3 16.9 C 0.93333 km/h
1246 02-09-2019 21:00:00 15.39167 C 7.97 g/m*3 15.39 C 0.26667 km/h
1247 02-09-2019 22:00:00 13.475 C 8.19 g/m*3 13.48 C 0 km/h
1248 02-09-2019 23:00:00 12.98333 C 8.24 g/m*3 12.98 C 0 km/h
1249 03-09-2019 00:00:00 12.39167 C 8.17 g/m*3 12.39 C 0 km/h
1250 03-09-2019 01:00:00 12.125 C 8.22 g/m*3 12.13 C 0 km/h
Sensor: Nr:Datum:Temp:Abs-Feuchte:Windchill:Wind:
Aussen-T/F 1251 03-09-2019 02:00:00 10.89167 C 7.86 g/m*3 10.89 C 0 km/h
1252 03-09-2019 03:00:00 10.175 C 7.75 g/m*3 10.18 C 0 km/h
1253 03-09-2019 04:00:00 10.08333 C 7.92 g/m*3 10.08 C 0 km/h
1254 03-09-2019 05:00:00 9.45 C 7.72 g/m*3 9.45 C 0 km/h
1255 03-09-2019 06:00:00 8.91667 C 7.64 g/m*3 8.92 C 0 km/h
1256 03-09-2019 07:00:00 8.65833 C 7.66 g/m*3 8.66 C 0.13333 km/h
1257 03-09-2019 08:00:00 9.08333 C 7.95 g/m*3 9.08 C 0 km/h
1258 03-09-2019 09:00:00 10.375 C 8.56 g/m*3 10.38 C 0.26667 km/h
1259 03-09-2019 10:00:00 13.225 C 9.38 g/m*3 13.23 C 1.46667 km/h
1260 03-09-2019 11:00:00 17.34167 C 9.34 g/m*3 17.34 C 5.90833 km/h
1261 03-09-2019 12:00:00 19.95833 C 9.22 g/m*3 19.96 C 8.18333 km/h
1262 03-09-2019 13:00:00 21.25 C 9.23 g/m*3 21.25 C 11.55833 km/h
1263 03-09-2019 14:00:00 22.64167 C 9.16 g/m*3 22.64 C 10.35 km/h
1264 03-09-2019 15:00:00 23.75 C 9.83 g/m*3 23.75 C 10.20833 km/h
1265 03-09-2019 16:00:00 23.58333 C 10.59 g/m*3 23.58 C 10.75 km/h
1266 03-09-2019 17:00:00 23.65 C 10.86 g/m*3 23.65 C 11.7 km/h
1267 03-09-2019 18:00:00 23.225 C 10.95 g/m*3 23.23 C 10.63333 km/h
1268 03-09-2019 19:00:00 21.11667 C 10.84 g/m*3 21.12 C 7.91667 km/h
1269 03-09-2019 20:00:00 18.86667 C 10.66 g/m*3 18.87 C 2.40833 km/h
1270 03-09-2019 21:00:00 16.325 C 10.42 g/m*3 16.33 C 0 km/h
1271 03-09-2019 22:00:00 15.33333 C 10.37 g/m*3 15.33 C 0.13333 km/h
1272 03-09-2019 23:00:00 14.05 C 10.08 g/m*3 14.05 C 0 km/h
1273 04-09-2019 00:00:00 13.05 C 9.9 g/m*3 13.05 C 0 km/h
1274 04-09-2019 01:00:00 12.35 C 9.74 g/m*3 12.35 C 0 km/h
1275 04-09-2019 02:00:00 11.85833 C 9.58 g/m*3 11.86 C 0 km/h
Sensor: Nr:Datum:Temp:Abs-Feuchte:Windchill:Wind:
Aussen-T/F 1276 04-09-2019 03:00:00 11.325 C 9.39 g/m*3 11.33 C 0 km/h
1277 04-09-2019 04:00:00 10.74167 C 9.12 g/m*3 10.74 C 0 km/h
1278 04-09-2019 05:00:00 10.36667 C 9 g/m*3 10.37 C 0 km/h
1279 04-09-2019 06:00:00 10.15833 C 8.95 g/m*3 10.16 C 0 km/h
1280 04-09-2019 07:00:00 10.09167 C 8.96 g/m*3 10.09 C 0 km/h
1281 04-09-2019 08:00:00 10.675 C 9.35 g/m*3 10.68 C 0.4 km/h
1282 04-09-2019 09:00:00 13.11667 C 10.54 g/m*3 13.12 C 4.26667 km/h
1283 04-09-2019 10:00:00 14.875 C 10.87 g/m*3 14.88 C 3.73333 km/h
1284 04-09-2019 11:00:00 18.09167 C 11.22 g/m*3 18.09 C 11.68333 km/h
1285 04-09-2019 12:00:00 19.78333 C 11.25 g/m*3 19.78 C 12.1 km/h
1286 04-09-2019 13:00:00 21.16667 C 11.47 g/m*3 21.17 C 12.63333 km/h
1287 04-09-2019 14:00:00 22.59167 C 11.56 g/m*3 22.59 C 14.63333 km/h
1288 04-09-2019 15:00:00 23.85 C 11.54 g/m*3 23.85 C 11.01667 km/h
1289 04-09-2019 16:00:00 25.11667 C 11.74 g/m*3 25.12 C 11.825 km/h
1290 04-09-2019 17:00:00 26.875 C 11.46 g/m*3 26.88 C 10.35 km/h
1291 04-09-2019 18:00:00 25.04167 C 10.84 g/m*3 25.04 C 14.49167 km/h
1292 04-09-2019 19:00:00 23.58333 C 11.1 g/m*3 23.58 C 9.65833 km/h
1293 04-09-2019 20:00:00 19.81667 C 11.87 g/m*3 19.82 C 9.50833 km/h
1294 04-09-2019 21:00:00 17.625 C 12.77 g/m*3 17.63 C 0.53333 km/h
1295 04-09-2019 22:00:00 16.28333 C 12.52 g/m*3 16.28 C 0.53333 km/h
1296 04-09-2019 23:00:00 15.64167 C 12.12 g/m*3 15.64 C 0.4 km/h
1297 05-09-2019 00:00:00 15.6 C 12.1 g/m*3 15.6 C 0 km/h
1298 05-09-2019 01:00:00 15.41667 C 11.73 g/m*3 15.42 C 1.33333 km/h
1299 05-09-2019 02:00:00 14.29167 C 10.66 g/m*3 14.29 C 1.06667 km/h
1300 05-09-2019 03:00:00 13.975 C 10.44 g/m*3 13.98 C 1.6 km/h
Sensor: Nr:Datum:Temp:Abs-Feuchte:Windchill:Wind:
Aussen-T/F 1301 05-09-2019 04:00:00 14.075 C 10.3 g/m*3 14.08 C 3.06667 km/h
1302 05-09-2019 05:00:00 13.48333 C 9.83 g/m*3 13.48 C 3.875 km/h
1303 05-09-2019 06:00:00 12.56667 C 9.49 g/m*3 12.57 C 4.13333 km/h
1304 05-09-2019 07:00:00 12.20833 C 9.38 g/m*3 12.21 C 5.49167 km/h
1305 05-09-2019 08:00:00 12.58333 C 9.44 g/m*3 12.58 C 8.75833 km/h
1306 05-09-2019 09:00:00 13.59167 C 9.67 g/m*3 13.59 C 7.65833 km/h
1307 05-09-2019 10:00:00 15.475 C 10.21 g/m*3 15.48 C 9.95 km/h
1308 05-09-2019 11:00:00 16.775 C 10.05 g/m*3 16.77 C 14.24167 km/h
1309 05-09-2019 12:00:00 17.09167 C 9.8 g/m*3 17.09 C 10.48333 km/h
1310 05-09-2019 13:00:00 18.1 C 9.41 g/m*3 18.1 C 10.225 km/h
1311 05-09-2019 14:00:00 18.09167 C 9.72 g/m*3 18.09 C 13.03333 km/h
1312 05-09-2019 15:00:00 18.5 C 9.11 g/m*3 18.5 C 11.15833 km/h
1313 05-09-2019 16:00:00 18.91667 C 9.07 g/m*3 18.92 C 13.16667 km/h
1314 05-09-2019 17:00:00 17.225 C 9.36 g/m*3 17.23 C 15.43333 km/h
1315 05-09-2019 18:00:00 16.4 C 9.44 g/m*3 16.4 C 8.59167 km/h
1316 05-09-2019 19:00:00 16.46667 C 9.02 g/m*3 16.47 C 6.325 km/h
1317 05-09-2019 20:00:00 15.70833 C 9.25 g/m*3 15.71 C 6.71667 km/h
1318 05-09-2019 21:00:00 14.93333 C 8.97 g/m*3 14.93 C 5.35833 km/h
1319 05-09-2019 22:00:00 14.49167 C 9.01 g/m*3 14.49 C 2.53333 km/h
1320 05-09-2019 23:00:00 13.94167 C 8.89 g/m*3 13.94 C 1.875 km/h
1321 06-09-2019 00:00:00 12.025 C 8.52 g/m*3 12.03 C 0.4 km/h
1322 06-09-2019 01:00:00 11.23333 C 8.41 g/m*3 11.23 C 1.73333 km/h
1323 06-09-2019 02:00:00 10.40833 C 8.34 g/m*3 10.41 C 0 km/h
1324 06-09-2019 03:00:00 9.875 C 8.21 g/m*3 9.88 C 0.13333 km/h
1325 06-09-2019 04:00:00 9.00833 C 7.89 g/m*3 9.01 C 0 km/h
Sensor: Nr:Datum:Temp:Abs-Feuchte:Windchill:Wind:
Aussen-T/F 1326 06-09-2019 05:00:00 8.075 C 7.6 g/m*3 8.07 C 0 km/h
1327 06-09-2019 06:00:00 7.56667 C 7.46 g/m*3 7.57 C 0 km/h
1328 06-09-2019 07:00:00 7.31667 C 7.41 g/m*3 7.32 C 0 km/h
1329 06-09-2019 08:00:00 7.85 C 7.77 g/m*3 7.85 C 0 km/h
1330 06-09-2019 09:00:00 8.75 C 8.25 g/m*3 8.75 C 0 km/h
1331 06-09-2019 10:00:00 10.175 C 9.03 g/m*3 10.18 C 0.13333 km/h
1332 06-09-2019 11:00:00 12.55833 C 9.18 g/m*3 12.56 C 1.73333 km/h
1333 06-09-2019 12:00:00 15.03333 C 8.28 g/m*3 15.03 C 4.00833 km/h
1334 06-09-2019 13:00:00 16.51667 C 8.14 g/m*3 16.52 C 4.4 km/h
1335 06-09-2019 14:00:00 18.3 C 7.75 g/m*3 18.3 C 8.325 km/h
1336 06-09-2019 15:00:00 19.475 C 7.53 g/m*3 19.48 C 9.26667 km/h
1337 06-09-2019 16:00:00 20.7 C 7.17 g/m*3 20.7 C 7.24167 km/h
1338 06-09-2019 17:00:00 22.36667 C 7.38 g/m*3 22.37 C 7.79167 km/h
1339 06-09-2019 18:00:00 22.25 C 7.74 g/m*3 22.25 C 6.975 km/h
1340 06-09-2019 19:00:00 19.41667 C 8.07 g/m*3 19.42 C 0.8 km/h
1341 06-09-2019 20:00:00 16.04167 C 7.71 g/m*3 16.04 C 0 km/h
1342 06-09-2019 21:00:00 14.65 C 7.6 g/m*3 14.65 C 0 km/h
1343 06-09-2019 22:00:00 12.74167 C 7.65 g/m*3 12.74 C 0.26667 km/h
1344 06-09-2019 23:00:00 12.69167 C 7.95 g/m*3 12.69 C 2 km/h
1345 07-09-2019 00:00:00 12.25833 C 7.99 g/m*3 12.26 C 0.93333 km/h
1346 07-09-2019 01:00:00 12.41667 C 8.06 g/m*3 12.42 C 1.73333 km/h
1347 07-09-2019 02:00:00 12.19167 C 8.09 g/m*3 12.19 C 1.73333 km/h
1348 07-09-2019 03:00:00 12.375 C 8.15 g/m*3 12.38 C 3.33333 km/h
1349 07-09-2019 04:00:00 12.69167 C 8.26 g/m*3 12.69 C 3.89167 km/h
1350 07-09-2019 05:00:00 12.64167 C 8.27 g/m*3 12.64 C 1.075 km/h
Sensor: Nr:Datum:Temp:Abs-Feuchte:Windchill:Wind:
Aussen-T/F 1351 07-09-2019 06:00:00 12.29167 C 8.35 g/m*3 12.29 C 0 km/h
1352 07-09-2019 07:00:00 11.96667 C 9.01 g/m*3 11.97 C 0.13333 km/h
1353 07-09-2019 08:00:00 11.78333 C 9.52 g/m*3 11.78 C 0.13333 km/h
1354 07-09-2019 09:00:00 11.80833 C 9.78 g/m*3 11.81 C 0 km/h
1355 07-09-2019 10:00:00 12.225 C 10.16 g/m*3 12.23 C 0 km/h
1356 07-09-2019 11:00:00 12.80833 C 10.52 g/m*3 12.81 C 0.4 km/h
1357 07-09-2019 12:00:00 13.475 C 10.93 g/m*3 13.48 C 1.06667 km/h
1358 07-09-2019 13:00:00 14.19167 C 11.31 g/m*3 14.19 C 1.06667 km/h
1359 07-09-2019 14:00:00 14.46667 C 11.38 g/m*3 14.47 C 1.73333 km/h
1360 07-09-2019 15:00:00 14.93333 C 11.53 g/m*3 14.93 C 3.73333 km/h
1361 07-09-2019 16:00:00 15.25 C 11.63 g/m*3 15.25 C 0.93333 km/h
1362 07-09-2019 17:00:00 15.30833 C 11.66 g/m*3 15.31 C 3.21667 km/h
1363 07-09-2019 18:00:00 14.29167 C 11.14 g/m*3 14.29 C 0.93333 km/h
1364 07-09-2019 19:00:00 13.34167 C 10.59 g/m*3 13.34 C 0.66667 km/h
1365 07-09-2019 20:00:00 12.64167 C 10.32 g/m*3 12.64 C 0.13333 km/h
1366 07-09-2019 21:00:00 12.00833 C 9.95 g/m*3 12.01 C 0 km/h
1367 07-09-2019 22:00:00 11.8 C 9.94 g/m*3 11.8 C 0 km/h
1368 07-09-2019 23:00:00 11.725 C 9.95 g/m*3 11.73 C 0 km/h
1369 08-09-2019 00:00:00 11.7 C 9.94 g/m*3 11.7 C 0 km/h
1370 08-09-2019 01:00:00 11.75833 C 10.04 g/m*3 11.76 C 0 km/h
1371 08-09-2019 02:00:00 11.29167 C 9.74 g/m*3 11.29 C 0 km/h
1372 08-09-2019 03:00:00 11.3 C 9.79 g/m*3 11.3 C 0 km/h
1373 08-09-2019 04:00:00 11.7 C 10.08 g/m*3 11.7 C 0 km/h
1374 08-09-2019 05:00:00 11.90833 C 10.17 g/m*3 11.91 C 0 km/h
1375 08-09-2019 06:00:00 12.075 C 10.36 g/m*3 12.08 C 0.13333 km/h
Sensor: Nr:Datum:Temp:Abs-Feuchte:Windchill:Wind:
Aussen-T/F 1376 08-09-2019 07:00:00 12.20833 C 10.41 g/m*3 12.21 C 0.4 km/h
1377 08-09-2019 08:00:00 12.31667 C 10.43 g/m*3 12.32 C 1.46667 km/h
1378 08-09-2019 09:00:00 12.325 C 10.38 g/m*3 12.33 C 4.13333 km/h
1379 08-09-2019 10:00:00 12.575 C 10.57 g/m*3 12.58 C 0 km/h
1380 08-09-2019 11:00:00 12.625 C 10.64 g/m*3 12.63 C 0.4 km/h
1381 08-09-2019 12:00:00 12.81667 C 10.75 g/m*3 12.82 C 2.53333 km/h
1382 08-09-2019 13:00:00 13.94167 C 11.24 g/m*3 13.94 C 1.6 km/h
1383 08-09-2019 14:00:00 14.875 C 11.24 g/m*3 14.88 C 3.6 km/h
1384 08-09-2019 15:00:00 15.73333 C 11.27 g/m*3 15.73 C 1.6 km/h
1385 08-09-2019 16:00:00 15.65833 C 11.32 g/m*3 15.66 C 1.46667 km/h
1386 08-09-2019 17:00:00 13.49167 C 10.83 g/m*3 13.49 C 2.53333 km/h
1387 08-09-2019 18:00:00 12.8 C 10.56 g/m*3 12.8 C 0.8 km/h
1388 08-09-2019 19:00:00 12.96667 C 10.8 g/m*3 12.97 C 0 km/h
1389 08-09-2019 20:00:00 12.56667 C 10.5 g/m*3 12.57 C 3.35 km/h
1390 08-09-2019 21:00:00 12.1 C 10.23 g/m*3 12.1 C 0.53333 km/h
1391 08-09-2019 22:00:00 11.81667 C 10.11 g/m*3 11.82 C 0 km/h
1392 08-09-2019 23:00:00 11.71667 C 10.05 g/m*3 11.72 C 0 km/h
1393 09-09-2019 00:00:00 11.45 C 9.88 g/m*3 11.45 C 0 km/h
1394 09-09-2019 01:00:00 11.26667 C 9.78 g/m*3 11.27 C 0.26667 km/h
1395 09-09-2019 02:00:00 11.29167 C 9.87 g/m*3 11.29 C 0 km/h
1396 09-09-2019 03:00:00 11.36667 C 9.94 g/m*3 11.37 C 0 km/h
1397 09-09-2019 04:00:00 11.36667 C 9.94 g/m*3 11.37 C 0 km/h
1398 09-09-2019 05:00:00 11.29167 C 9.89 g/m*3 11.29 C 0 km/h
1399 09-09-2019 06:00:00 11.3 C 9.89 g/m*3 11.3 C 0 km/h
1400 09-09-2019 07:00:00 11.275 C 9.88 g/m*3 11.28 C 0 km/h
Sensor: Nr:Datum:Temp:Abs-Feuchte:Windchill:Wind:
Aussen-T/F 1401 09-09-2019 08:00:00 11.39167 C 9.95 g/m*3 11.39 C 0 km/h
1402 09-09-2019 09:00:00 12.01667 C 10.35 g/m*3 12.02 C 0.26667 km/h
1403 09-09-2019 10:00:00 12.23333 C 10.49 g/m*3 12.23 C 0.13333 km/h
1404 09-09-2019 11:00:00 12.55833 C 10.62 g/m*3 12.56 C 2.66667 km/h
1405 09-09-2019 12:00:00 13.15 C 10.48 g/m*3 13.15 C 1.73333 km/h
1406 09-09-2019 13:00:00 14.2 C 10.57 g/m*3 14.2 C 2.4 km/h
1407 09-09-2019 14:00:00 14.81667 C 10.11 g/m*3 14.82 C 1.73333 km/h
1408 09-09-2019 15:00:00 15.175 C 10.39 g/m*3 15.18 C 0.8 km/h
1409 09-09-2019 16:00:00 15.475 C 10.21 g/m*3 15.48 C 1.06667 km/h
1410 09-09-2019 17:00:00 15.74167 C 9.89 g/m*3 15.74 C 1.33333 km/h
1411 09-09-2019 18:00:00 16.33333 C 10.25 g/m*3 16.33 C 1.46667 km/h
1412 09-09-2019 19:00:00 14.35 C 10.11 g/m*3 14.35 C 0.53333 km/h
1413 09-09-2019 20:00:00 12.00833 C 9.36 g/m*3 12.01 C 0.4 km/h
1414 09-09-2019 21:00:00 10.79167 C 8.96 g/m*3 10.79 C 0.13333 km/h
1415 09-09-2019 22:00:00 10.05 C 8.74 g/m*3 10.05 C 0 km/h
1416 09-09-2019 23:00:00 9.30833 C 8.44 g/m*3 9.31 C 0 km/h
1417 10-09-2019 00:00:00 8.75833 C 8.22 g/m*3 8.76 C 0 km/h
1418 10-09-2019 01:00:00 8.44167 C 8.09 g/m*3 8.44 C 0 km/h
1419 10-09-2019 02:00:00 8.3 C 8.07 g/m*3 8.3 C 0 km/h
1420 10-09-2019 03:00:00 8.625 C 8.26 g/m*3 8.63 C 0.53333 km/h
1421 10-09-2019 04:00:00 8.65 C 8.28 g/m*3 8.65 C 0.66667 km/h
1422 10-09-2019 05:00:00 8.55833 C 8.24 g/m*3 8.56 C 0.26667 km/h
1423 10-09-2019 06:00:00 8.2 C 8.1 g/m*3 8.2 C 0.8 km/h
1424 10-09-2019 07:00:00 8.225 C 8.14 g/m*3 8.23 C 0.13333 km/h
1425 10-09-2019 08:00:00 8.21667 C 8.13 g/m*3 8.22 C 2.26667 km/h
Sensor: Nr:Datum:Temp:Abs-Feuchte:Windchill:Wind:
Aussen-T/F 1426 10-09-2019 09:00:00 8.45833 C 8.26 g/m*3 8.46 C 2.13333 km/h
1427 10-09-2019 10:00:00 9.05 C 8.58 g/m*3 9.05 C 1.33333 km/h
1428 10-09-2019 11:00:00 9.94167 C 9.08 g/m*3 9.94 C 2.26667 km/h
1429 10-09-2019 12:00:00 11.78333 C 9.92 g/m*3 11.78 C 0.4 km/h
1430 10-09-2019 13:00:00 14.85833 C 9.92 g/m*3 14.86 C 1.6 km/h
1431 10-09-2019 14:00:00 17.25 C 9.44 g/m*3 17.25 C 3.60833 km/h
1432 10-09-2019 15:00:00 18.43333 C 9.19 g/m*3 18.43 C 5.36667 km/h
1433 10-09-2019 16:00:00 19.65 C 8.8 g/m*3 19.65 C 8.20833 km/h
1434 10-09-2019 17:00:00 18.38333 C 10.55 g/m*3 18.38 C 0.8 km/h
1435 10-09-2019 18:00:00 18.33333 C 10.97 g/m*3 18.33 C 0 km/h
1436 10-09-2019 19:00:00 16.4 C 10.1 g/m*3 16.4 C 0.13333 km/h
1437 10-09-2019 20:00:00 13.775 C 8.93 g/m*3 13.78 C 0 km/h
1438 10-09-2019 21:00:00 12.03333 C 8.86 g/m*3 12.03 C 0 km/h
1439 10-09-2019 22:00:00 10.66667 C 8.52 g/m*3 10.67 C 0 km/h
1440 10-09-2019 23:00:00 9.78333 C 8.23 g/m*3 9.78 C 0 km/h
1441 11-09-2019 00:00:00 9.2 C 8.04 g/m*3 9.2 C 0 km/h
1442 11-09-2019 01:00:00 8.61667 C 7.86 g/m*3 8.62 C 0 km/h
1443 11-09-2019 02:00:00 8.04167 C 7.69 g/m*3 8.04 C 0.13333 km/h
1444 11-09-2019 03:00:00 7.64167 C 7.55 g/m*3 7.64 C 0 km/h
1445 11-09-2019 04:00:00 7.26667 C 7.41 g/m*3 7.27 C 0 km/h
1446 11-09-2019 05:00:00 6.90833 C 7.3 g/m*3 6.91 C 0 km/h
1447 11-09-2019 06:00:00 6.65833 C 7.2 g/m*3 6.66 C 0 km/h
1448 11-09-2019 07:00:00 6.55 C 7.2 g/m*3 6.55 C 0.675 km/h
1449 11-09-2019 08:00:00 7.99167 C 7.97 g/m*3 7.99 C 1.60833 km/h
1450 11-09-2019 09:00:00 9.51667 C 8.59 g/m*3 9.52 C 2.8 km/h
Sensor: Nr:Datum:Temp:Abs-Feuchte:Windchill:Wind:
Aussen-T/F 1451 11-09-2019 10:00:00 10.85 C 9.29 g/m*3 10.85 C 0 km/h
1452 11-09-2019 11:00:00 13.10833 C 10.13 g/m*3 13.11 C 1.6 km/h
1453 11-09-2019 12:00:00 17.29167 C 9.85 g/m*3 17.29 C 9.41667 km/h
1454 11-09-2019 13:00:00 19.9 C 9.95 g/m*3 19.9 C 12.75833 km/h
1455 11-09-2019 14:00:00 20.58333 C 9.88 g/m*3 20.58 C 16.5 km/h
1456 11-09-2019 15:00:00 20.53333 C 10.07 g/m*3 20.53 C 10.225 km/h
1457 11-09-2019 16:00:00 20.03333 C 11.17 g/m*3 20.03 C 4.825 km/h
1458 11-09-2019 17:00:00 19.16667 C 10.86 g/m*3 19.17 C 8.45833 km/h
1459 11-09-2019 18:00:00 18.35833 C 10.7 g/m*3 18.36 C 3.75833 km/h
1460 11-09-2019 19:00:00 17.26667 C 10.41 g/m*3 17.27 C 3.20833 km/h
1461 11-09-2019 20:00:00 16.50833 C 10.64 g/m*3 16.51 C 0.93333 km/h
1462 11-09-2019 21:00:00 16.275 C 10.82 g/m*3 16.27 C 0.93333 km/h
1463 11-09-2019 22:00:00 16.41667 C 11.06 g/m*3 16.42 C 0.93333 km/h
1464 11-09-2019 23:00:00 15.7 C 11.15 g/m*3 15.7 C 0.93333 km/h
1465 12-09-2019 00:00:00 15.51667 C 10.97 g/m*3 15.52 C 1.86667 km/h
1466 12-09-2019 01:00:00 16.14167 C 11.09 g/m*3 16.14 C 1.74167 km/h
1467 12-09-2019 02:00:00 17.23333 C 10.81 g/m*3 17.23 C 6.975 km/h
1468 12-09-2019 03:00:00 17.24167 C 11 g/m*3 17.24 C 6.70833 km/h
1469 12-09-2019 04:00:00 17.05 C 11.08 g/m*3 17.05 C 2.93333 km/h
1470 12-09-2019 05:00:00 16.975 C 11.25 g/m*3 16.98 C 8.31667 km/h
1471 12-09-2019 06:00:00 16.9 C 11.4 g/m*3 16.9 C 5.75833 km/h
1472 12-09-2019 07:00:00 16.24167 C 11.53 g/m*3 16.24 C 0.8 km/h
1473 12-09-2019 08:00:00 16.83333 C 12.06 g/m*3 16.83 C 5.76667 km/h
1474 12-09-2019 09:00:00 17.40833 C 12.53 g/m*3 17.41 C 9.025 km/h
1475 12-09-2019 10:00:00 18.21667 C 13.08 g/m*3 18.22 C 11.15833 km/h
Sensor: Nr:Datum:Temp:Abs-Feuchte:Windchill:Wind:
Aussen-T/F 1476 12-09-2019 11:00:00 19.21667 C 13.52 g/m*3 19.22 C 9.01667 km/h
1477 12-09-2019 12:00:00 20.25833 C 13.93 g/m*3 20.26 C 10.34167 km/h
1478 12-09-2019 13:00:00 20.9 C 14.27 g/m*3 20.9 C 7.79167 km/h
1479 12-09-2019 14:00:00 21.38333 C 14.69 g/m*3 21.38 C 1.6 km/h
1480 12-09-2019 15:00:00 22.25833 C 14.77 g/m*3 22.26 C 4.025 km/h
1481 12-09-2019 16:00:00 22.95 C 14.67 g/m*3 22.95 C 7.91667 km/h
1482 12-09-2019 17:00:00 24.44167 C 14.46 g/m*3 24.44 C 11.83333 km/h
1483 12-09-2019 18:00:00 24.95833 C 14.66 g/m*3 24.96 C 6.56667 km/h
1484 12-09-2019 19:00:00 22.86667 C 14.23 g/m*3 22.87 C 0.53333 km/h
1485 12-09-2019 20:00:00 19.11667 C 13.29 g/m*3 19.12 C 0.4 km/h
1486 12-09-2019 21:00:00 18.225 C 13.19 g/m*3 18.23 C 0.26667 km/h
1487 12-09-2019 22:00:00 18.35 C 13.17 g/m*3 18.35 C 0.4 km/h
1488 12-09-2019 23:00:00 17.06667 C 12.6 g/m*3 17.07 C 0 km/h
1489 13-09-2019 00:00:00 15.98333 C 12.26 g/m*3 15.98 C 0.93333 km/h
1490 13-09-2019 01:00:00 15.55 C 12.18 g/m*3 15.55 C 3.6 km/h
1491 13-09-2019 02:00:00 15.25 C 12.05 g/m*3 15.25 C 1.46667 km/h
1492 13-09-2019 03:00:00 15.1 C 12.07 g/m*3 15.1 C 1.06667 km/h
1493 13-09-2019 04:00:00 15.575 C 12.4 g/m*3 15.58 C 2.93333 km/h
1494 13-09-2019 05:00:00 16.19167 C 12.55 g/m*3 16.19 C 6.84167 km/h
1495 13-09-2019 06:00:00 16.25833 C 12.58 g/m*3 16.26 C 4.3 km/h
1496 13-09-2019 07:00:00 16.64167 C 12.75 g/m*3 16.64 C 2.94167 km/h
1497 13-09-2019 08:00:00 16.85833 C 13.01 g/m*3 16.86 C 0.8 km/h
1498 13-09-2019 09:00:00 17.49167 C 13.31 g/m*3 17.49 C 2 km/h
1499 13-09-2019 10:00:00 18.51667 C 13.63 g/m*3 18.52 C 0.8 km/h
1500 13-09-2019 11:00:00 19.6 C 13.91 g/m*3 19.6 C 2.8 km/h
Sensor: Nr:Datum:Temp:Abs-Feuchte:Windchill:Wind:
Aussen-T/F 1501 13-09-2019 12:00:00 20.35 C 14.02 g/m*3 20.35 C 1.2 km/h
1502 13-09-2019 13:00:00 20.60833 C 13.82 g/m*3 20.61 C 4.675 km/h
1503 13-09-2019 14:00:00 21.16667 C 14.03 g/m*3 21.17 C 6.15833 km/h
1504 13-09-2019 15:00:00 20.85833 C 14.13 g/m*3 20.86 C 12.76667 km/h
1505 13-09-2019 16:00:00 19.325 C 14.49 g/m*3 19.33 C 5.90833 km/h
1506 13-09-2019 17:00:00 19.20833 C 14.74 g/m*3 19.21 C 0 km/h
1507 13-09-2019 18:00:00 20 C 15.42 g/m*3 20 C 0 km/h
1508 13-09-2019 19:00:00 19.48333 C 14.46 g/m*3 19.48 C 0 km/h
1509 13-09-2019 20:00:00 17.60833 C 13.73 g/m*3 17.61 C 0.26667 km/h
1510 13-09-2019 21:00:00 16.95 C 13.39 g/m*3 16.95 C 0 km/h
1511 13-09-2019 22:00:00 16.25833 C 12.87 g/m*3 16.26 C 0 km/h
1512 13-09-2019 23:00:00 15.48333 C 12.38 g/m*3 15.48 C 0 km/h
1513 14-09-2019 00:00:00 15.39167 C 12.41 g/m*3 15.39 C 0 km/h
1514 14-09-2019 01:00:00 14.63333 C 11.86 g/m*3 14.63 C 0 km/h
1515 14-09-2019 02:00:00 13.525 C 11.07 g/m*3 13.53 C 0 km/h
1516 14-09-2019 03:00:00 12.70833 C 10.58 g/m*3 12.71 C 0 km/h
1517 14-09-2019 04:00:00 12.00833 C 10.18 g/m*3 12.01 C 0 km/h
1518 14-09-2019 05:00:00 11.31667 C 9.79 g/m*3 11.32 C 0 km/h
1519 14-09-2019 06:00:00 10.78333 C 9.48 g/m*3 10.78 C 0 km/h
1520 14-09-2019 07:00:00 10.4 C 9.25 g/m*3 10.4 C 0 km/h
1521 14-09-2019 08:00:00 10.40833 C 9.26 g/m*3 10.41 C 0 km/h
1522 14-09-2019 09:00:00 11.00833 C 9.71 g/m*3 11.01 C 0.13333 km/h
1523 14-09-2019 10:00:00 12.25833 C 10.51 g/m*3 12.26 C 0.26667 km/h
1524 14-09-2019 11:00:00 13.69167 C 11.26 g/m*3 13.69 C 0.26667 km/h
1525 14-09-2019 12:00:00 16.14167 C 11.54 g/m*3 16.14 C 0.8 km/h
Sensor: Nr:Datum:Temp:Abs-Feuchte:Windchill:Wind:
Aussen-T/F 1526 14-09-2019 13:00:00 18.675 C 11.2 g/m*3 18.68 C 3.74167 km/h
1527 14-09-2019 14:00:00 20.43333 C 11.02 g/m*3 20.43 C 4.95 km/h
1528 14-09-2019 15:00:00 21.74167 C 10.66 g/m*3 21.74 C 5.35833 km/h
1529 14-09-2019 16:00:00 22.44167 C 10.43 g/m*3 22.44 C 4.3 km/h
1530 14-09-2019 17:00:00 24.14167 C 10.29 g/m*3 24.14 C 4.81667 km/h
1531 14-09-2019 18:00:00 23.6 C 11.63 g/m*3 23.6 C 0 km/h
1532 14-09-2019 19:00:00 19.45833 C 10.87 g/m*3 19.46 C 0.13333 km/h
1533 14-09-2019 20:00:00 16.95833 C 10.12 g/m*3 16.96 C 0 km/h
1534 14-09-2019 21:00:00 15.96667 C 10.01 g/m*3 15.97 C 0 km/h
1535 14-09-2019 22:00:00 13.8 C 9.68 g/m*3 13.8 C 0 km/h
1536 14-09-2019 23:00:00 12.48333 C 9.38 g/m*3 12.48 C 0 km/h
1537 15-09-2019 00:00:00 11.65 C 9.12 g/m*3 11.65 C 0 km/h
1538 15-09-2019 01:00:00 10.825 C 8.89 g/m*3 10.83 C 0 km/h
1539 15-09-2019 02:00:00 10.375 C 8.83 g/m*3 10.38 C 0 km/h
1540 15-09-2019 03:00:00 10.16667 C 8.79 g/m*3 10.17 C 0.13333 km/h
1541 15-09-2019 04:00:00 9.75833 C 8.61 g/m*3 9.76 C 0.13333 km/h
1542 15-09-2019 05:00:00 9.31667 C 8.46 g/m*3 9.32 C 0 km/h
1543 15-09-2019 06:00:00 8.76667 C 8.17 g/m*3 8.77 C 0 km/h
1544 15-09-2019 07:00:00 8.775 C 8.26 g/m*3 8.78 C 0.53333 km/h
1545 15-09-2019 08:00:00 9.29167 C 8.62 g/m*3 9.29 C 0.53333 km/h
1546 15-09-2019 09:00:00 10.03333 C 9.04 g/m*3 10.03 C 0 km/h
1547 15-09-2019 10:00:00 11.35833 C 9.83 g/m*3 11.36 C 0 km/h
1548 15-09-2019 11:00:00 13.71667 C 11.23 g/m*3 13.72 C 0 km/h
1549 15-09-2019 12:00:00 16.96667 C 12.32 g/m*3 16.97 C 0 km/h
1550 15-09-2019 13:00:00 20.45833 C 12.4 g/m*3 20.46 C 0 km/h
Sensor: Nr:Datum:Temp:Abs-Feuchte:Windchill:Wind:
Aussen-T/F 1551 15-09-2019 14:00:00 22.79167 C 12.41 g/m*3 22.79 C 0.53333 km/h
1552 15-09-2019 15:00:00 24.05 C 12.35 g/m*3 24.05 C 0.53333 km/h
1553 15-09-2019 16:00:00 24.65833 C 11.93 g/m*3 24.66 C 2.66667 km/h
1554 15-09-2019 17:00:00 25.84167 C 11.52 g/m*3 25.84 C 1.6 km/h
1555 15-09-2019 18:00:00 26.43333 C 11.47 g/m*3 26.43 C 0.4 km/h
1556 15-09-2019 19:00:00 21.96667 C 11.11 g/m*3 21.97 C 0 km/h
1557 15-09-2019 20:00:00 18.225 C 9.86 g/m*3 18.23 C 0 km/h
1558 15-09-2019 21:00:00 16.76667 C 9.56 g/m*3 16.77 C 0 km/h
1559 15-09-2019 22:00:00 14.475 C 9.48 g/m*3 14.48 C 0 km/h
1560 15-09-2019 23:00:00 12.99167 C 9.21 g/m*3 12.99 C 0 km/h
1561 16-09-2019 00:00:00 12.55 C 9.24 g/m*3 12.55 C 0 km/h
1562 16-09-2019 01:00:00 12.25833 C 9.26 g/m*3 12.26 C 0.53333 km/h
1563 16-09-2019 02:00:00 11.41667 C 9.02 g/m*3 11.42 C 0.26667 km/h
1564 16-09-2019 03:00:00 11.11667 C 9.09 g/m*3 11.12 C 0.4 km/h
1565 16-09-2019 04:00:00 11.45833 C 9.31 g/m*3 11.46 C 0.66667 km/h
1566 16-09-2019 05:00:00 11.51667 C 9.27 g/m*3 11.52 C 0.4 km/h
1567 16-09-2019 06:00:00 11.23333 C 9.22 g/m*3 11.23 C 0 km/h
1568 16-09-2019 07:00:00 11.31667 C 9.35 g/m*3 11.32 C 0.13333 km/h
1569 16-09-2019 08:00:00 12.075 C 9.65 g/m*3 12.08 C 1.2 km/h
1570 16-09-2019 09:00:00 13.4 C 10.02 g/m*3 13.4 C 1.06667 km/h
1571 16-09-2019 10:00:00 14.99167 C 10.52 g/m*3 14.99 C 0.93333 km/h
1572 16-09-2019 11:00:00 17.41667 C 11.29 g/m*3 17.42 C 1.33333 km/h
1573 16-09-2019 12:00:00 19.64167 C 11.69 g/m*3 19.64 C 4.40833 km/h
1574 16-09-2019 13:00:00 21.18333 C 11.4 g/m*3 21.18 C 5.9 km/h
1575 16-09-2019 14:00:00 22.05 C 11.19 g/m*3 22.05 C 4.26667 km/h
Sensor: Nr:Datum:Temp:Abs-Feuchte:Windchill:Wind:
Aussen-T/F 1576 16-09-2019 15:00:00 22.075 C 11.53 g/m*3 22.08 C 4.275 km/h
1577 16-09-2019 16:00:00 22.10833 C 10.87 g/m*3 22.11 C 7.65 km/h
1578 16-09-2019 17:00:00 21.8 C 11.67 g/m*3 21.8 C 7.525 km/h
1579 16-09-2019 18:00:00 20.725 C 11.4 g/m*3 20.73 C 4.95 km/h
1580 16-09-2019 19:00:00 19.71667 C 11.57 g/m*3 19.72 C 8.46667 km/h
1581 16-09-2019 20:00:00 17.64167 C 12.45 g/m*3 17.64 C 2.275 km/h
1582 16-09-2019 21:00:00 16.74167 C 12.53 g/m*3 16.74 C 1.46667 km/h
1583 16-09-2019 22:00:00 16.43333 C 12.39 g/m*3 16.43 C 4.825 km/h
1584 16-09-2019 23:00:00 15.4 C 12.03 g/m*3 15.4 C 4.14167 km/h
1585 17-09-2019 00:00:00 15.05833 C 11.74 g/m*3 15.06 C 1.73333 km/h
1586 17-09-2019 01:00:00 14.81667 C 11.42 g/m*3 14.82 C 4 km/h
1587 17-09-2019 02:00:00 14.66667 C 11.26 g/m*3 14.67 C 3.475 km/h
1588 17-09-2019 03:00:00 14.54167 C 11.1 g/m*3 14.54 C 1.46667 km/h
1589 17-09-2019 04:00:00 14.30833 C 11.03 g/m*3 14.31 C 0.4 km/h
1590 17-09-2019 05:00:00 14.16667 C 11 g/m*3 14.17 C 0.53333 km/h
1591 17-09-2019 06:00:00 14.1 C 10.95 g/m*3 14.1 C 3.74167 km/h
1592 17-09-2019 07:00:00 14.01667 C 10.81 g/m*3 14.02 C 1.86667 km/h
1593 17-09-2019 08:00:00 14 C 10.57 g/m*3 14 C 4.00833 km/h
1594 17-09-2019 09:00:00 14.04167 C 10.08 g/m*3 14.04 C 8.33333 km/h
1595 17-09-2019 10:00:00 14.925 C 9.51 g/m*3 14.93 C 11.29167 km/h
1596 17-09-2019 11:00:00 15.73333 C 9.52 g/m*3 15.73 C 11.56667 km/h
1597 17-09-2019 12:00:00 16.125 C 9.35 g/m*3 16.13 C 13.83333 km/h
1598 17-09-2019 13:00:00 16.625 C 9.11 g/m*3 16.63 C 13.43333 km/h
1599 17-09-2019 14:00:00 17.44167 C 9.01 g/m*3 17.44 C 13.43333 km/h
1600 17-09-2019 15:00:00 17.66667 C 8.72 g/m*3 17.67 C 12.1 km/h
Sensor: Nr:Datum:Temp:Abs-Feuchte:Windchill:Wind:
Aussen-T/F 1601 17-09-2019 16:00:00 18.05833 C 8.61 g/m*3 18.06 C 12.76667 km/h
1602 17-09-2019 17:00:00 18.125 C 8.63 g/m*3 18.13 C 11.41667 km/h
1603 17-09-2019 18:00:00 18.45 C 8.52 g/m*3 18.45 C 13.43333 km/h
1604 17-09-2019 19:00:00 17.3 C 8.79 g/m*3 17.3 C 5.775 km/h
1605 17-09-2019 20:00:00 16.71667 C 8.94 g/m*3 16.72 C 6.03333 km/h
1606 17-09-2019 21:00:00 16.00833 C 8.74 g/m*3 16.01 C 12.36667 km/h
1607 17-09-2019 22:00:00 14.55833 C 7.86 g/m*3 14.56 C 11.7 km/h
1608 17-09-2019 23:00:00 13.40833 C 7.65 g/m*3 13.41 C 6.45 km/h
1609 18-09-2019 00:00:00 11.80833 C 7.43 g/m*3 11.81 C 3.86667 km/h
1610 18-09-2019 01:00:00 10.83333 C 7.47 g/m*3 10.83 C 2.8 km/h
1611 18-09-2019 02:00:00 9.26667 C 7.32 g/m*3 9.27 C 0 km/h
1612 18-09-2019 03:00:00 8.25 C 7.19 g/m*3 8.25 C 0 km/h
1613 18-09-2019 04:00:00 7.425 C 7.05 g/m*3 7.43 C 0 km/h
1614 18-09-2019 05:00:00 6.76667 C 6.89 g/m*3 6.77 C 0 km/h
1615 18-09-2019 06:00:00 6.08333 C 6.7 g/m*3 6.08 C 0 km/h
1616 18-09-2019 07:00:00 5.8 C 6.67 g/m*3 5.8 C 0 km/h
1617 18-09-2019 08:00:00 6.10833 C 6.87 g/m*3 6.11 C 0 km/h
1618 18-09-2019 09:00:00 7.01667 C 7.37 g/m*3 7.02 C 0 km/h
1619 18-09-2019 10:00:00 8.375 C 8.05 g/m*3 8.38 C 0 km/h
1620 18-09-2019 11:00:00 10.625 C 8.65 g/m*3 10.63 C 1.33333 km/h
1621 18-09-2019 12:00:00 13.6 C 8.4 g/m*3 13.6 C 5.61667 km/h
1622 18-09-2019 13:00:00 15.1 C 7.76 g/m*3 15.1 C 9 km/h
1623 18-09-2019 14:00:00 16.25 C 7.43 g/m*3 16.25 C 9.54167 km/h
1624 18-09-2019 15:00:00 17.00833 C 7.27 g/m*3 17.01 C 8.86667 km/h
1625 18-09-2019 16:00:00 17.225 C 7.48 g/m*3 17.23 C 9.95 km/h
Sensor: Nr:Datum:Temp:Abs-Feuchte:Windchill:Wind:
Aussen-T/F 1626 18-09-2019 17:00:00 18.14167 C 7.1 g/m*3 18.14 C 11.56667 km/h
1627 18-09-2019 18:00:00 18.08333 C 6.92 g/m*3 18.08 C 8.58333 km/h
1628 18-09-2019 19:00:00 15.75 C 7.28 g/m*3 15.75 C 1.06667 km/h
1629 18-09-2019 20:00:00 12.30833 C 7.28 g/m*3 12.31 C 0 km/h
1630 18-09-2019 21:00:00 11.525 C 7.45 g/m*3 11.53 C 0 km/h
1631 18-09-2019 22:00:00 10.68333 C 7.43 g/m*3 10.68 C 0 km/h
1632 18-09-2019 23:00:00 9.85833 C 7.44 g/m*3 9.86 C 0 km/h
1633 19-09-2019 00:00:00 9.16667 C 7.4 g/m*3 9.17 C 0 km/h
1634 19-09-2019 01:00:00 8.5 C 7.23 g/m*3 8.5 C 0 km/h
1635 19-09-2019 02:00:00 7.20833 C 6.97 g/m*3 7.21 C 0 km/h
1636 19-09-2019 03:00:00 6.58333 C 6.86 g/m*3 6.58 C 0 km/h
1637 19-09-2019 04:00:00 6.08333 C 6.73 g/m*3 6.08 C 0 km/h
1638 19-09-2019 05:00:00 5.65833 C 6.6 g/m*3 5.66 C 0 km/h
1639 19-09-2019 06:00:00 5.26667 C 6.48 g/m*3 5.27 C 0 km/h
1640 19-09-2019 07:00:00 5.14167 C 6.45 g/m*3 5.14 C 0 km/h
1641 19-09-2019 08:00:00 5.33333 C 6.59 g/m*3 5.33 C 0 km/h
1642 19-09-2019 09:00:00 6.31667 C 7.08 g/m*3 6.32 C 0 km/h
1643 19-09-2019 10:00:00 7.725 C 7.8 g/m*3 7.73 C 0 km/h
1644 19-09-2019 11:00:00 9.70833 C 8.42 g/m*3 9.71 C 0.4 km/h
1645 19-09-2019 12:00:00 13.33333 C 7.53 g/m*3 13.33 C 10.35833 km/h
1646 19-09-2019 13:00:00 14.46667 C 7.05 g/m*3 14.47 C 6.3 km/h
1647 19-09-2019 14:00:00 15.7 C 6.76 g/m*3 15.7 C 7.38333 km/h
1648 19-09-2019 15:00:00 16.48333 C 6.7 g/m*3 16.48 C 9.54167 km/h
1649 19-09-2019 16:00:00 17.08333 C 6.67 g/m*3 17.08 C 9.28333 km/h
1650 19-09-2019 17:00:00 18.04167 C 6.51 g/m*3 18.04 C 8.59167 km/h
Sensor: Nr:Datum:Temp:Abs-Feuchte:Windchill:Wind:
Aussen-T/F 1651 19-09-2019 18:00:00 18.01667 C 6.64 g/m*3 18.02 C 4.96667 km/h
1652 19-09-2019 19:00:00 15.00833 C 7.05 g/m*3 15.01 C 0 km/h
1653 19-09-2019 20:00:00 11.975 C 6.78 g/m*3 11.98 C 0 km/h
1654 19-09-2019 21:00:00 10.525 C 6.78 g/m*3 10.53 C 0 km/h
1655 19-09-2019 22:00:00 9.59167 C 6.78 g/m*3 9.59 C 0 km/h
1656 19-09-2019 23:00:00 8.45 C 6.65 g/m*3 8.45 C 0 km/h
1657 20-09-2019 00:00:00 7.625 C 6.46 g/m*3 7.63 C 0 km/h
1658 20-09-2019 01:00:00 7.05 C 6.42 g/m*3 7.05 C 0 km/h
1659 20-09-2019 02:00:00 6.21667 C 6.27 g/m*3 6.22 C 0 km/h
1660 20-09-2019 03:00:00 5.75 C 6.19 g/m*3 5.75 C 0 km/h
1661 20-09-2019 04:00:00 5.15 C 6.09 g/m*3 5.15 C 0 km/h
1662 20-09-2019 05:00:00 4.69167 C 6.03 g/m*3 4.69 C 0 km/h
1663 20-09-2019 06:00:00 4.325 C 5.97 g/m*3 4.33 C 0 km/h
1664 20-09-2019 07:00:00 4.125 C 5.96 g/m*3 4.13 C 0 km/h
1665 20-09-2019 08:00:00 4.65 C 6.24 g/m*3 4.65 C 0 km/h
1666 20-09-2019 09:00:00 5.625 C 6.69 g/m*3 5.63 C 0 km/h
1667 20-09-2019 10:00:00 7.39167 C 7.47 g/m*3 7.39 C 0 km/h
1668 20-09-2019 11:00:00 10 C 8.1 g/m*3 10 C 0 km/h
1669 20-09-2019 12:00:00 13.41667 C 7.68 g/m*3 13.42 C 4.95833 km/h
1670 20-09-2019 13:00:00 15.83333 C 7.25 g/m*3 15.83 C 5.21667 km/h
1671 20-09-2019 14:00:00 17.63333 C 7.14 g/m*3 17.63 C 7.11667 km/h
1672 20-09-2019 15:00:00 18.525 C 6.89 g/m*3 18.52 C 7.925 km/h
1673 20-09-2019 16:00:00 19.26667 C 7.01 g/m*3 19.27 C 9.28333 km/h
1674 20-09-2019 17:00:00 20.33333 C 7.02 g/m*3 20.33 C 8.59167 km/h
1675 20-09-2019 18:00:00 20.525 C 7.17 g/m*3 20.53 C 4.55 km/h
Sensor: Nr:Datum:Temp:Abs-Feuchte:Windchill:Wind:
Aussen-T/F 1676 20-09-2019 19:00:00 15.85 C 7.09 g/m*3 15.85 C 0.8 km/h
1677 20-09-2019 20:00:00 13.7 C 6.96 g/m*3 13.7 C 1.33333 km/h
1678 20-09-2019 21:00:00 11.68333 C 7.14 g/m*3 11.68 C 0 km/h
1679 20-09-2019 22:00:00 9.525 C 6.97 g/m*3 9.53 C 0 km/h
1680 20-09-2019 23:00:00 8.425 C 6.87 g/m*3 8.43 C 0 km/h
1681 21-09-2019 00:00:00 7.44167 C 6.69 g/m*3 7.44 C 0 km/h
1682 21-09-2019 01:00:00 6.85 C 6.55 g/m*3 6.85 C 0 km/h
1683 21-09-2019 02:00:00 6.34167 C 6.4 g/m*3 6.34 C 0 km/h
1684 21-09-2019 03:00:00 5.80833 C 6.27 g/m*3 5.81 C 0 km/h
1685 21-09-2019 04:00:00 5.45833 C 6.24 g/m*3 5.46 C 0 km/h
1686 21-09-2019 05:00:00 5.275 C 6.25 g/m*3 5.28 C 0 km/h
1687 21-09-2019 06:00:00 4.80833 C 6.1 g/m*3 4.81 C 0 km/h
1688 21-09-2019 07:00:00 4.60833 C 6.09 g/m*3 4.61 C 0 km/h
1689 21-09-2019 08:00:00 4.725 C 6.21 g/m*3 4.72 C 0 km/h
1690 21-09-2019 09:00:00 5.79167 C 6.72 g/m*3 5.79 C 0 km/h
1691 21-09-2019 10:00:00 8.225 C 7.58 g/m*3 8.23 C 0 km/h
1692 21-09-2019 11:00:00 11.40833 C 8.4 g/m*3 11.41 C 0 km/h
1693 21-09-2019 12:00:00 14.95 C 8.6 g/m*3 14.95 C 0.66667 km/h
1694 21-09-2019 13:00:00 18.2 C 7.78 g/m*3 18.2 C 4 km/h
1695 21-09-2019 14:00:00 21.43333 C 6.23 g/m*3 21.43 C 7.24167 km/h
1696 21-09-2019 15:00:00 22.63333 C 6.11 g/m*3 22.63 C 7.925 km/h
1697 21-09-2019 16:00:00 23.23333 C 6.53 g/m*3 23.23 C 7.375 km/h
1698 21-09-2019 17:00:00 24.65833 C 7.13 g/m*3 24.66 C 5.09167 km/h
1699 21-09-2019 18:00:00 22.74167 C 7.97 g/m*3 22.74 C 0.66667 km/h
1700 21-09-2019 19:00:00 18.49167 C 7.54 g/m*3 18.49 C 1.6 km/h
Sensor: Nr:Datum:Temp:Abs-Feuchte:Windchill:Wind:
Aussen-T/F 1701 21-09-2019 20:00:00 16.16667 C 7.62 g/m*3 16.17 C 0.66667 km/h
1702 21-09-2019 21:00:00 13.66667 C 7.8 g/m*3 13.67 C 0 km/h
1703 21-09-2019 22:00:00 11.99167 C 7.62 g/m*3 11.99 C 0 km/h
1704 21-09-2019 23:00:00 10.88333 C 7.52 g/m*3 10.88 C 0 km/h
1705 22-09-2019 00:00:00 9.825 C 7.43 g/m*3 9.82 C 0 km/h
1706 22-09-2019 01:00:00 9.08333 C 7.39 g/m*3 9.08 C 0 km/h
1707 22-09-2019 02:00:00 8.425 C 7.24 g/m*3 8.43 C 0 km/h
1708 22-09-2019 03:00:00 7.96667 C 7.23 g/m*3 7.97 C 0 km/h
1709 22-09-2019 04:00:00 7.39167 C 7.07 g/m*3 7.39 C 0 km/h
1710 22-09-2019 05:00:00 7.06667 C 7.06 g/m*3 7.07 C 0 km/h
1711 22-09-2019 06:00:00 6.99167 C 7.12 g/m*3 6.99 C 0 km/h
1712 22-09-2019 07:00:00 6.93333 C 7.14 g/m*3 6.93 C 0 km/h
1713 22-09-2019 08:00:00 7.55833 C 7.47 g/m*3 7.56 C 0 km/h
1714 22-09-2019 09:00:00 8.63333 C 8.02 g/m*3 8.63 C 0 km/h
1715 22-09-2019 10:00:00 11.05 C 9.19 g/m*3 11.05 C 0 km/h
1716 22-09-2019 11:00:00 14.83333 C 10.13 g/m*3 14.83 C 0 km/h
1717 22-09-2019 12:00:00 17.68333 C 10.99 g/m*3 17.68 C 0 km/h
1718 22-09-2019 13:00:00 20.70833 C 11.63 g/m*3 20.71 C 0.26667 km/h
1719 22-09-2019 14:00:00 24.05 C 11.64 g/m*3 24.05 C 2.93333 km/h
1720 22-09-2019 15:00:00 24.85 C 11.36 g/m*3 24.85 C 3.86667 km/h
1721 22-09-2019 16:00:00 24.73333 C 12.25 g/m*3 24.73 C 0.8 km/h
1722 22-09-2019 17:00:00 23.48333 C 12.59 g/m*3 23.48 C 0 km/h
1723 22-09-2019 18:00:00 21.74167 C 12.24 g/m*3 21.74 C 0 km/h
1724 22-09-2019 19:00:00 20.33333 C 11.45 g/m*3 20.33 C 0 km/h
1725 22-09-2019 20:00:00 19.075 C 10.9 g/m*3 19.08 C 2 km/h
Sensor: Nr:Datum:Temp:Abs-Feuchte:Windchill:Wind:
Aussen-T/F 1726 22-09-2019 21:00:00 18.175 C 10.66 g/m*3 18.18 C 1.46667 km/h
1727 22-09-2019 22:00:00 18.3 C 10.92 g/m*3 18.3 C 0.13333 km/h
1728 22-09-2019 23:00:00 17.80833 C 11.4 g/m*3 17.81 C 0 km/h
1729 23-09-2019 00:00:00 17.55833 C 12.04 g/m*3 17.56 C 2.80833 km/h
1730 23-09-2019 01:00:00 18.375 C 12.81 g/m*3 18.38 C 3.33333 km/h
1731 23-09-2019 02:00:00 18.10833 C 12.21 g/m*3 18.11 C 9.26667 km/h
1732 23-09-2019 03:00:00 17.2 C 12.06 g/m*3 17.2 C 4.95 km/h
1733 23-09-2019 04:00:00 16.05833 C 11.82 g/m*3 16.06 C 0.93333 km/h
1734 23-09-2019 05:00:00 15.14167 C 11.8 g/m*3 15.14 C 1.86667 km/h
1735 23-09-2019 06:00:00 14.43333 C 11.53 g/m*3 14.43 C 0.26667 km/h
1736 23-09-2019 07:00:00 14.23333 C 11.52 g/m*3 14.23 C 0 km/h
1737 23-09-2019 08:00:00 14.25 C 11.64 g/m*3 14.25 C 0 km/h
1738 23-09-2019 09:00:00 14.74167 C 12.1 g/m*3 14.74 C 0 km/h
1739 23-09-2019 10:00:00 15.425 C 12.63 g/m*3 15.43 C 0.4 km/h
1740 23-09-2019 11:00:00 16.26667 C 13.08 g/m*3 16.27 C 2.8 km/h
1741 23-09-2019 12:00:00 17.06667 C 13.18 g/m*3 17.07 C 8.06667 km/h
1742 23-09-2019 13:00:00 18.2 C 12.67 g/m*3 18.2 C 10.49167 km/h
1743 23-09-2019 14:00:00 19.425 C 11.89 g/m*3 19.43 C 13.3 km/h
1744 23-09-2019 15:00:00 19.61667 C 11.63 g/m*3 19.62 C 12.36667 km/h
1745 23-09-2019 16:00:00 19.94167 C 11.61 g/m*3 19.94 C 14.36667 km/h
1746 23-09-2019 17:00:00 20.24167 C 11.57 g/m*3 20.24 C 12.49167 km/h
1747 23-09-2019 18:00:00 18.46667 C 11.71 g/m*3 18.47 C 1.2 km/h
1748 23-09-2019 19:00:00 16 C 11.16 g/m*3 16 C 0.13333 km/h
1749 23-09-2019 20:00:00 14.34167 C 10.75 g/m*3 14.34 C 0 km/h
1750 23-09-2019 21:00:00 13.96667 C 10.85 g/m*3 13.97 C 0 km/h
Sensor: Nr:Datum:Temp:Abs-Feuchte:Windchill:Wind:
Aussen-T/F 1751 23-09-2019 22:00:00 13.9 C 11.03 g/m*3 13.9 C 0 km/h
1752 23-09-2019 23:00:00 14.11667 C 11.21 g/m*3 14.12 C 0 km/h
1753 24-09-2019 00:00:00 14.33333 C 11.37 g/m*3 14.33 C 0 km/h
1754 24-09-2019 01:00:00 13.95 C 11.01 g/m*3 13.95 C 0 km/h
1755 24-09-2019 02:00:00 12.66667 C 10.28 g/m*3 12.67 C 0 km/h
1756 24-09-2019 03:00:00 11.96667 C 9.98 g/m*3 11.97 C 0 km/h
1757 24-09-2019 04:00:00 11.50833 C 9.77 g/m*3 11.51 C 0 km/h
1758 24-09-2019 05:00:00 10.675 C 9.31 g/m*3 10.68 C 0 km/h
1759 24-09-2019 06:00:00 10.25 C 9.1 g/m*3 10.25 C 0 km/h
1760 24-09-2019 07:00:00 9.89167 C 8.94 g/m*3 9.89 C 0 km/h
1761 24-09-2019 08:00:00 10.65 C 9.44 g/m*3 10.65 C 0 km/h
1762 24-09-2019 09:00:00 11.35833 C 9.93 g/m*3 11.36 C 0.8 km/h
1763 24-09-2019 10:00:00 12.49167 C 10.66 g/m*3 12.49 C 0 km/h
1764 24-09-2019 11:00:00 14.48333 C 11.78 g/m*3 14.48 C 0.93333 km/h
1765 24-09-2019 12:00:00 17.53333 C 12.03 g/m*3 17.53 C 3.88333 km/h
1766 24-09-2019 13:00:00 18.59167 C 11.6 g/m*3 18.59 C 6.44167 km/h
1767 24-09-2019 14:00:00 19.21667 C 11.33 g/m*3 19.22 C 1.60833 km/h
1768 24-09-2019 15:00:00 18.63333 C 11.3 g/m*3 18.63 C 0.66667 km/h
1769 24-09-2019 16:00:00 17.70833 C 12.37 g/m*3 17.71 C 0.93333 km/h
1770 24-09-2019 17:00:00 16.95 C 12.96 g/m*3 16.95 C 0 km/h
1771 24-09-2019 18:00:00 16.125 C 12.64 g/m*3 16.13 C 0 km/h
1772 24-09-2019 19:00:00 15.1 C 12.01 g/m*3 15.1 C 0 km/h
1773 24-09-2019 20:00:00 14.01667 C 11.37 g/m*3 14.02 C 0 km/h
1774 24-09-2019 21:00:00 13.65 C 11.21 g/m*3 13.65 C 0 km/h
1775 24-09-2019 22:00:00 13.64167 C 11.29 g/m*3 13.64 C 0 km/h
Sensor: Nr:Datum:Temp:Abs-Feuchte:Windchill:Wind:
Aussen-T/F 1776 24-09-2019 23:00:00 13.775 C 11.42 g/m*3 13.78 C 0 km/h
1777 25-09-2019 00:00:00 13.99167 C 11.57 g/m*3 13.99 C 0.13333 km/h
1778 25-09-2019 01:00:00 14.13333 C 11.72 g/m*3 14.13 C 1.34167 km/h
1779 25-09-2019 02:00:00 14.49167 C 11.93 g/m*3 14.49 C 3.35 km/h
1780 25-09-2019 03:00:00 14.6 C 12.01 g/m*3 14.6 C 0.4 km/h
1781 25-09-2019 04:00:00 14.55833 C 11.98 g/m*3 14.56 C 0.53333 km/h
1782 25-09-2019 05:00:00 14.01667 C 11.59 g/m*3 14.02 C 1.33333 km/h
1783 25-09-2019 06:00:00 13.64167 C 11.33 g/m*3 13.64 C 0.93333 km/h
1784 25-09-2019 07:00:00 13.61667 C 11.33 g/m*3 13.62 C 0.8 km/h
1785 25-09-2019 08:00:00 13.75 C 11.51 g/m*3 13.75 C 0 km/h
1786 25-09-2019 09:00:00 14.33333 C 11.94 g/m*3 14.33 C 1.33333 km/h
1787 25-09-2019 10:00:00 14.90833 C 12.03 g/m*3 14.91 C 8.475 km/h
1788 25-09-2019 11:00:00 16.225 C 11.94 g/m*3 16.23 C 13.69167 km/h
1789 25-09-2019 12:00:00 16.875 C 11.57 g/m*3 16.88 C 10.35833 km/h
1790 25-09-2019 13:00:00 17.38333 C 11.46 g/m*3 17.38 C 11.81667 km/h
1791 25-09-2019 14:00:00 17.38333 C 11.57 g/m*3 17.38 C 10.35833 km/h
1792 25-09-2019 15:00:00 16.325 C 12.4 g/m*3 16.33 C 4.8 km/h
1793 25-09-2019 16:00:00 17.08333 C 12.36 g/m*3 17.08 C 7.38333 km/h
1794 25-09-2019 17:00:00 17.53333 C 12.19 g/m*3 17.53 C 7.24167 km/h
1795 25-09-2019 18:00:00 16.775 C 11.91 g/m*3 16.77 C 2.54167 km/h
1796 25-09-2019 19:00:00 15.625 C 11.72 g/m*3 15.63 C 0.53333 km/h
1797 25-09-2019 20:00:00 15.10833 C 11.76 g/m*3 15.11 C 0 km/h
1798 25-09-2019 21:00:00 14.71667 C 11.69 g/m*3 14.72 C 0.13333 km/h
1799 25-09-2019 22:00:00 14.7 C 11.8 g/m*3 14.7 C 0 km/h
1800 25-09-2019 23:00:00 14.65833 C 11.93 g/m*3 14.66 C 0 km/h
Sensor: Nr:Datum:Temp:Abs-Feuchte:Windchill:Wind:
Aussen-T/F 1801 26-09-2019 00:00:00 14.55833 C 11.86 g/m*3 14.56 C 0.26667 km/h
1802 26-09-2019 01:00:00 14.23333 C 11.65 g/m*3 14.23 C 0 km/h
1803 26-09-2019 02:00:00 14.13333 C 11.67 g/m*3 14.13 C 0 km/h
1804 26-09-2019 03:00:00 13.60833 C 11.29 g/m*3 13.61 C 0 km/h
1805 26-09-2019 04:00:00 13.25833 C 11.08 g/m*3 13.26 C 0 km/h
1806 26-09-2019 05:00:00 13.90833 C 11.6 g/m*3 13.91 C 2.01667 km/h
1807 26-09-2019 06:00:00 14.125 C 11.78 g/m*3 14.13 C 0.53333 km/h
1808 26-09-2019 07:00:00 14.35833 C 11.84 g/m*3 14.36 C 0.13333 km/h
1809 26-09-2019 08:00:00 14.74167 C 12.12 g/m*3 14.74 C 0.26667 km/h
1810 26-09-2019 09:00:00 15.10833 C 12.35 g/m*3 15.11 C 0.4 km/h
1811 26-09-2019 10:00:00 15.86667 C 12.91 g/m*3 15.87 C 0.13333 km/h
1812 26-09-2019 11:00:00 16.59167 C 13.37 g/m*3 16.59 C 0.93333 km/h
1813 26-09-2019 12:00:00 17.61667 C 13.75 g/m*3 17.62 C 5.225 km/h
1814 26-09-2019 13:00:00 17.775 C 13.9 g/m*3 17.77 C 1.06667 km/h
1815 26-09-2019 14:00:00 17.51667 C 13.84 g/m*3 17.52 C 0.93333 km/h
1816 26-09-2019 15:00:00 18.05833 C 14.13 g/m*3 18.06 C 1.2 km/h
1817 26-09-2019 16:00:00 18.83333 C 14.32 g/m*3 18.83 C 4.15 km/h
1818 26-09-2019 17:00:00 18.91667 C 14.2 g/m*3 18.92 C 4.675 km/h
1819 26-09-2019 18:00:00 18.71667 C 14.24 g/m*3 18.72 C 2.68333 km/h
1820 26-09-2019 19:00:00 18.04167 C 13.99 g/m*3 18.04 C 2.01667 km/h
1821 26-09-2019 20:00:00 17.39167 C 13.29 g/m*3 17.39 C 6.03333 km/h
1822 26-09-2019 21:00:00 17.36667 C 13.16 g/m*3 17.37 C 5.5 km/h
1823 26-09-2019 22:00:00 17.725 C 13.08 g/m*3 17.73 C 10.23333 km/h
1824 26-09-2019 23:00:00 17.81667 C 12.99 g/m*3 17.82 C 7.5 km/h
1825 27-09-2019 00:00:00 17.98333 C 12.86 g/m*3 17.98 C 6.975 km/h
Sensor: Nr:Datum:Temp:Abs-Feuchte:Windchill:Wind:
Aussen-T/F 1826 27-09-2019 01:00:00 18.05 C 12.68 g/m*3 18.05 C 10.20833 km/h
1827 27-09-2019 02:00:00 17.96667 C 12.58 g/m*3 17.97 C 9.68333 km/h
1828 27-09-2019 03:00:00 16.71667 C 12.82 g/m*3 16.72 C 6.18333 km/h
1829 27-09-2019 04:00:00 16.29167 C 12.83 g/m*3 16.29 C 2.95 km/h
1830 27-09-2019 05:00:00 16.16667 C 12.81 g/m*3 16.17 C 2.13333 km/h
1831 27-09-2019 06:00:00 15.78333 C 12.67 g/m*3 15.78 C 2.15 km/h
1832 27-09-2019 07:00:00 14.41667 C 11.71 g/m*3 14.42 C 2.28333 km/h
1833 27-09-2019 08:00:00 14.1 C 11.62 g/m*3 14.1 C 0.66667 km/h
1834 27-09-2019 09:00:00 13.99167 C 11.57 g/m*3 13.99 C 3.75 km/h
1835 27-09-2019 10:00:00 14.69167 C 12.02 g/m*3 14.69 C 6.58333 km/h
1836 27-09-2019 11:00:00 15.35 C 12.16 g/m*3 15.35 C 6.7 km/h
1837 27-09-2019 12:00:00 15.96667 C 12.11 g/m*3 15.97 C 11.29167 km/h
1838 27-09-2019 13:00:00 17.29167 C 11.95 g/m*3 17.29 C 12.9 km/h
1839 27-09-2019 14:00:00 18.15833 C 11.77 g/m*3 18.16 C 14.9 km/h
1840 27-09-2019 15:00:00 18.21667 C 11.79 g/m*3 18.22 C 13.83333 km/h
1841 27-09-2019 16:00:00 17.96667 C 11.79 g/m*3 17.97 C 12.1 km/h
1842 27-09-2019 17:00:00 18.98333 C 11.78 g/m*3 18.98 C 12.36667 km/h
1843 27-09-2019 18:00:00 18.01667 C 11.54 g/m*3 18.02 C 10.75833 km/h
1844 27-09-2019 19:00:00 16.05833 C 11.25 g/m*3 16.06 C 3.75833 km/h
1845 27-09-2019 20:00:00 15.13333 C 11.37 g/m*3 15.13 C 0.26667 km/h
1846 27-09-2019 21:00:00 14.275 C 11.06 g/m*3 14.28 C 0.26667 km/h
1847 27-09-2019 22:00:00 13.83333 C 11.04 g/m*3 13.83 C 0 km/h
1848 27-09-2019 23:00:00 13.5 C 10.98 g/m*3 13.5 C 0 km/h
1849 28-09-2019 00:00:00 12.875 C 10.64 g/m*3 12.88 C 0.66667 km/h
1850 28-09-2019 01:00:00 12.90833 C 10.72 g/m*3 12.91 C 3.21667 km/h
Sensor: Nr:Datum:Temp:Abs-Feuchte:Windchill:Wind:
Aussen-T/F 1851 28-09-2019 02:00:00 14.21667 C 11.16 g/m*3 14.22 C 9.13333 km/h
1852 28-09-2019 03:00:00 14.825 C 11.33 g/m*3 14.83 C 6.45 km/h
1853 28-09-2019 04:00:00 14.04167 C 11.17 g/m*3 14.04 C 5.63333 km/h
1854 28-09-2019 05:00:00 13.95 C 11.05 g/m*3 13.95 C 6.84167 km/h
1855 28-09-2019 06:00:00 14.4 C 11.21 g/m*3 14.4 C 9.4 km/h
1856 28-09-2019 07:00:00 14.1 C 11.28 g/m*3 14.1 C 1.875 km/h
1857 28-09-2019 08:00:00 13.89167 C 11.18 g/m*3 13.89 C 7.94167 km/h
1858 28-09-2019 09:00:00 14.35833 C 11.11 g/m*3 14.36 C 12.225 km/h
1859 28-09-2019 10:00:00 15.4 C 11.21 g/m*3 15.4 C 12.75833 km/h
1860 28-09-2019 11:00:00 16.30833 C 11.15 g/m*3 16.31 C 17.43333 km/h
1861 28-09-2019 12:00:00 16.85 C 11.27 g/m*3 16.85 C 13.16667 km/h
1862 28-09-2019 13:00:00 17.21667 C 11.3 g/m*3 17.22 C 17.3 km/h
1863 28-09-2019 14:00:00 17.49167 C 11.4 g/m*3 17.49 C 17.3 km/h
1864 28-09-2019 15:00:00 17.16667 C 11.3 g/m*3 17.17 C 15.43333 km/h
1865 28-09-2019 16:00:00 17.35833 C 11.48 g/m*3 17.36 C 14.23333 km/h
1866 28-09-2019 17:00:00 17.71667 C 11.43 g/m*3 17.72 C 15.96667 km/h
1867 28-09-2019 18:00:00 17.14167 C 11.18 g/m*3 17.14 C 11.025 km/h
1868 28-09-2019 19:00:00 15.7 C 10.78 g/m*3 15.7 C 8.99167 km/h
1869 28-09-2019 20:00:00 15.24167 C 10.7 g/m*3 15.24 C 5.89167 km/h
1870 28-09-2019 21:00:00 14.975 C 10.58 g/m*3 14.98 C 7.79167 km/h
1871 28-09-2019 22:00:00 15.13333 C 10.51 g/m*3 15.13 C 9.53333 km/h
1872 28-09-2019 23:00:00 14.15 C 10.33 g/m*3 14.15 C 4.55 km/h
1873 29-09-2019 00:00:00 13.875 C 10.33 g/m*3 13.88 C 2.81667 km/h
1874 29-09-2019 01:00:00 13.95 C 10.4 g/m*3 13.95 C 0.66667 km/h
1875 29-09-2019 02:00:00 13.65 C 10.49 g/m*3 13.65 C 0 km/h
Sensor: Nr:Datum:Temp:Abs-Feuchte:Windchill:Wind:
Aussen-T/F 1876 29-09-2019 03:00:00 13.48333 C 10.54 g/m*3 13.48 C 0 km/h
1877 29-09-2019 04:00:00 13.525 C 10.66 g/m*3 13.53 C 0 km/h
1878 29-09-2019 05:00:00 13.81667 C 10.66 g/m*3 13.82 C 0.26667 km/h
1879 29-09-2019 06:00:00 13.94167 C 10.43 g/m*3 13.94 C 0.93333 km/h
1880 29-09-2019 07:00:00 14.025 C 10.46 g/m*3 14.03 C 1.33333 km/h
1881 29-09-2019 08:00:00 14.95833 C 10.59 g/m*3 14.96 C 5.75833 km/h
1882 29-09-2019 09:00:00 16.53333 C 10.83 g/m*3 16.53 C 13.69167 km/h
1883 29-09-2019 10:00:00 17.45833 C 10.94 g/m*3 17.46 C 19.175 km/h
1884 29-09-2019 11:00:00 17.74167 C 11 g/m*3 17.74 C 17.84167 km/h
1885 29-09-2019 12:00:00 18.25833 C 11.19 g/m*3 18.26 C 17.16667 km/h
1886 29-09-2019 13:00:00 18.1 C 11.15 g/m*3 18.1 C 13.03333 km/h
1887 29-09-2019 14:00:00 18.61667 C 10.9 g/m*3 18.62 C 21.325 km/h
1888 29-09-2019 15:00:00 18.21667 C 11.38 g/m*3 18.22 C 17.44167 km/h
1889 29-09-2019 16:00:00 17.10833 C 11.91 g/m*3 17.11 C 13.025 km/h
1890 29-09-2019 17:00:00 17 C 11.93 g/m*3 17 C 12.35833 km/h
1891 29-09-2019 18:00:00 17.5 C 12.36 g/m*3 17.5 C 12.1 km/h
1892 29-09-2019 19:00:00 17.70833 C 12.54 g/m*3 17.71 C 15.56667 km/h
1893 29-09-2019 20:00:00 17.275 C 12.96 g/m*3 17.27 C 5.9 km/h
1894 29-09-2019 21:00:00 16.79167 C 13.17 g/m*3 16.79 C 5.63333 km/h
1895 29-09-2019 22:00:00 16.91667 C 13.29 g/m*3 16.92 C 12.08333 km/h
1896 29-09-2019 23:00:00 16.61667 C 13 g/m*3 16.62 C 14.49167 km/h
1897 30-09-2019 00:00:00 15.65 C 11.66 g/m*3 15.65 C 18.11667 km/h
1898 30-09-2019 01:00:00 15.34167 C 11.27 g/m*3 15.34 C 18.225 km/h
1899 30-09-2019 02:00:00 15.15833 C 11.2 g/m*3 15.16 C 17.03333 km/h
1900 30-09-2019 03:00:00 15.25833 C 11.31 g/m*3 15.26 C 15.3 km/h
Sensor: Nr:Datum:Temp:Abs-Feuchte:Windchill:Wind:
Aussen-T/F 1901 30-09-2019 04:00:00 15.04167 C 11.38 g/m*3 15.04 C 11.95 km/h
1902 30-09-2019 05:00:00 13.75833 C 10.95 g/m*3 13.76 C 9.925 km/h
1903 30-09-2019 06:00:00 13.19167 C 10.65 g/m*3 13.19 C 9.93333 km/h
1904 30-09-2019 07:00:00 13.08333 C 10.34 g/m*3 13.08 C 10.08333 km/h
1905 30-09-2019 08:00:00 13.29167 C 10.07 g/m*3 13.29 C 12.1 km/h
1906 30-09-2019 09:00:00 13.94167 C 10 g/m*3 13.94 C 13.3 km/h
1907 30-09-2019 10:00:00 14.45 C 10.08 g/m*3 14.45 C 14.5 km/h
1908 30-09-2019 11:00:00 15.13333 C 10.09 g/m*3 15.13 C 15.16667 km/h
1909 30-09-2019 12:00:00 15.71667 C 9.81 g/m*3 15.72 C 16.76667 km/h
1910 30-09-2019 13:00:00 16.40833 C 9.68 g/m*3 16.41 C 15.56667 km/h
1911 30-09-2019 14:00:00 17.10833 C 9.71 g/m*3 17.11 C 14.23333 km/h
1912 30-09-2019 15:00:00 17.75833 C 9.83 g/m*3 17.76 C 14.63333 km/h
1913 30-09-2019 16:00:00 18.45833 C 9.85 g/m*3 18.46 C 14.36667 km/h
1914 30-09-2019 17:00:00 18.45 C 9.54 g/m*3 18.45 C 12.1 km/h
1915 30-09-2019 18:00:00 17.69167 C 10.24 g/m*3 17.69 C 3.34167 km/h
1916 30-09-2019 19:00:00 14.83333 C 10.22 g/m*3 14.83 C 0.4 km/h
1917 30-09-2019 20:00:00 14.20833 C 10.42 g/m*3 14.21 C 3.34167 km/h
1918 30-09-2019 21:00:00 14.69167 C 10.71 g/m*3 14.69 C 3.74167 km/h
1919 30-09-2019 22:00:00 14.68333 C 10.7 g/m*3 14.68 C 3.6 km/h
1920 30-09-2019 23:00:00 14.23333 C 10.44 g/m*3 14.23 C 1.06667 km/h
1921 01-10-2019 00:00:00 14.33333 C 10.41 g/m*3 14.33 C 0.4 km/h
1922 01-10-2019 01:00:00 14.025 C 10.47 g/m*3 14.03 C 1.2 km/h
1923 01-10-2019 02:00:00 13.60833 C 10.24 g/m*3 13.61 C 0 km/h
1924 01-10-2019 03:00:00 12.65 C 9.88 g/m*3 12.65 C 0 km/h
1925 01-10-2019 04:00:00 13.275 C 10.3 g/m*3 13.28 C 3.48333 km/h
Sensor: Nr:Datum:Temp:Abs-Feuchte:Windchill:Wind:
Aussen-T/F 1926 01-10-2019 05:00:00 14.40833 C 10.55 g/m*3 14.41 C 7.8 km/h
1927 01-10-2019 06:00:00 15.00833 C 10.98 g/m*3 15.01 C 11.55833 km/h
1928 01-10-2019 07:00:00 15.375 C 11.38 g/m*3 15.38 C 15.56667 km/h
1929 01-10-2019 08:00:00 15.5 C 11.54 g/m*3 15.5 C 14.1 km/h
1930 01-10-2019 09:00:00 16.125 C 11.82 g/m*3 16.13 C 13.7 km/h
1931 01-10-2019 10:00:00 17.09167 C 12.35 g/m*3 17.09 C 14.9 km/h
1932 01-10-2019 11:00:00 17.53333 C 12.69 g/m*3 17.53 C 14.63333 km/h
1933 01-10-2019 12:00:00 17.36667 C 13.11 g/m*3 17.37 C 12.225 km/h
1934 01-10-2019 13:00:00 18.575 C 12.46 g/m*3 18.58 C 9.41667 km/h
1935 01-10-2019 14:00:00 18.35833 C 13.01 g/m*3 18.36 C 8.34167 km/h
1936 01-10-2019 15:00:00 19.08333 C 13.57 g/m*3 19.08 C 11.425 km/h
1937 01-10-2019 16:00:00 18.26667 C 13.78 g/m*3 18.27 C 5.775 km/h
1938 01-10-2019 17:00:00 17.6 C 13.95 g/m*3 17.6 C 0.66667 km/h
1939 01-10-2019 18:00:00 16.725 C 13.21 g/m*3 16.73 C 1.2 km/h
1940 01-10-2019 19:00:00 16.19167 C 12.98 g/m*3 16.19 C 0 km/h
1941 01-10-2019 20:00:00 15.875 C 12.82 g/m*3 15.88 C 0.66667 km/h
1942 01-10-2019 21:00:00 15.85 C 12.85 g/m*3 15.85 C 1.46667 km/h
1943 01-10-2019 22:00:00 15.5 C 12.56 g/m*3 15.5 C 1.60833 km/h
1944 01-10-2019 23:00:00 15.225 C 12.35 g/m*3 15.23 C 3.06667 km/h
1945 02-10-2019 00:00:00 15.15833 C 12.3 g/m*3 15.16 C 3.35833 km/h
1946 02-10-2019 01:00:00 15.20833 C 12.24 g/m*3 15.21 C 4.14167 km/h
1947 02-10-2019 02:00:00 14.975 C 12 g/m*3 14.98 C 1.2 km/h
1948 02-10-2019 03:00:00 14.95833 C 11.96 g/m*3 14.96 C 7.26667 km/h
1949 02-10-2019 04:00:00 15.08333 C 11.86 g/m*3 15.08 C 4.55 km/h
1950 02-10-2019 05:00:00 14.69167 C 11.66 g/m*3 14.69 C 3.48333 km/h
Sensor: Nr:Datum:Temp:Abs-Feuchte:Windchill:Wind:
Aussen-T/F 1951 02-10-2019 06:00:00 13.59167 C 10.82 g/m*3 13.59 C 10.2 km/h
1952 02-10-2019 07:00:00 11.80833 C 9.71 g/m*3 11.81 C 11.3 km/h
1953 02-10-2019 08:00:00 10.74167 C 9.16 g/m*3 9.02 C 13.43333 km/h
1954 02-10-2019 09:00:00 10.46667 C 8.8 g/m*3 9.65 C 7.51667 km/h
1955 02-10-2019 10:00:00 10.86667 C 8.73 g/m*3 10.04 C 7.91667 km/h
1956 02-10-2019 11:00:00 11.33333 C 8.56 g/m*3 11.33 C 11.01667 km/h
1957 02-10-2019 12:00:00 11.86667 C 8.52 g/m*3 11.87 C 9.125 km/h
1958 02-10-2019 13:00:00 12.65833 C 8.48 g/m*3 12.66 C 9.54167 km/h
1959 02-10-2019 14:00:00 13.49167 C 8.19 g/m*3 13.49 C 9.55833 km/h
1960 02-10-2019 15:00:00 13.66667 C 7.87 g/m*3 13.67 C 11.825 km/h
1961 02-10-2019 16:00:00 13.8 C 7.37 g/m*3 13.8 C 14.1 km/h
1962 02-10-2019 17:00:00 14.26667 C 7.55 g/m*3 14.27 C 12.21667 km/h
1963 02-10-2019 18:00:00 12.9 C 7.68 g/m*3 12.9 C 10.89167 km/h
1964 02-10-2019 19:00:00 11.325 C 7.61 g/m*3 11.33 C 5.76667 km/h
1965 02-10-2019 20:00:00 10.04167 C 7.5 g/m*3 10.04 C 4.825 km/h
1966 02-10-2019 21:00:00 9.875 C 7.51 g/m*3 9.88 C 3.20833 km/h
1967 02-10-2019 22:00:00 8.61667 C 7.37 g/m*3 8.62 C 0.66667 km/h
1968 02-10-2019 23:00:00 8.48333 C 7.43 g/m*3 8.48 C 3.875 km/h
1969 03-10-2019 00:00:00 9.33333 C 7.66 g/m*3 9.33 C 4.41667 km/h
1970 03-10-2019 01:00:00 9.25833 C 7.75 g/m*3 9.26 C 4.68333 km/h
1971 03-10-2019 02:00:00 9.21667 C 7.73 g/m*3 9.22 C 3.73333 km/h
1972 03-10-2019 03:00:00 8.525 C 7.52 g/m*3 8.53 C 1.86667 km/h
1973 03-10-2019 04:00:00 7.63333 C 7.29 g/m*3 7.63 C 1.33333 km/h
1974 03-10-2019 05:00:00 7.94167 C 7.49 g/m*3 7.94 C 4.41667 km/h
1975 03-10-2019 06:00:00 7.45 C 7.26 g/m*3 7.45 C 1.2 km/h
Sensor: Nr:Datum:Temp:Abs-Feuchte:Windchill:Wind:
Aussen-T/F 1976 03-10-2019 07:00:00 7.2 C 7.29 g/m*3 7.2 C 1.6 km/h
1977 03-10-2019 08:00:00 7.74167 C 7.49 g/m*3 7.74 C 4.96667 km/h
1978 03-10-2019 09:00:00 9.34167 C 7.9 g/m*3 8.53 C 6.70833 km/h
1979 03-10-2019 10:00:00 10.36667 C 8.23 g/m*3 9.45 C 7.925 km/h
1980 03-10-2019 11:00:00 12.23333 C 8.75 g/m*3 12.23 C 8.725 km/h
1981 03-10-2019 12:00:00 12.55833 C 9.02 g/m*3 12.56 C 6.16667 km/h
1982 03-10-2019 13:00:00 12.225 C 9.57 g/m*3 12.23 C 0.13333 km/h
1983 03-10-2019 14:00:00 11.68333 C 9.65 g/m*3 11.68 C 0.8 km/h
1984 03-10-2019 15:00:00 11.88333 C 10.01 g/m*3 11.88 C 0.8 km/h
1985 03-10-2019 16:00:00 12.15833 C 10.02 g/m*3 12.16 C 2.41667 km/h
1986 03-10-2019 17:00:00 11.75833 C 9.81 g/m*3 11.76 C 0 km/h
1987 03-10-2019 18:00:00 10.81667 C 9.3 g/m*3 10.82 C 1.06667 km/h
1988 03-10-2019 19:00:00 9.90833 C 8.84 g/m*3 9.91 C 0.8 km/h
1989 03-10-2019 20:00:00 9.36667 C 8.58 g/m*3 9.37 C 0 km/h
1990 03-10-2019 21:00:00 9.00833 C 8.45 g/m*3 9.01 C 0 km/h
1991 03-10-2019 22:00:00 8.625 C 8.26 g/m*3 8.63 C 0 km/h
1992 03-10-2019 23:00:00 8.375 C 8.13 g/m*3 8.38 C 0 km/h
1993 04-10-2019 00:00:00 8.38333 C 8.14 g/m*3 8.38 C 0 km/h
1994 04-10-2019 01:00:00 8.21667 C 8.07 g/m*3 8.22 C 0.13333 km/h
1995 04-10-2019 02:00:00 8.19167 C 8.08 g/m*3 8.19 C 0 km/h
1996 04-10-2019 03:00:00 8.05833 C 8.04 g/m*3 8.06 C 0 km/h
1997 04-10-2019 04:00:00 7.71667 C 7.86 g/m*3 7.72 C 0 km/h
1998 04-10-2019 05:00:00 7.90833 C 7.97 g/m*3 7.91 C 0 km/h
1999 04-10-2019 06:00:00 7.96667 C 8 g/m*3 7.97 C 0.93333 km/h
2000 04-10-2019 07:00:00 8.13333 C 8.09 g/m*3 8.13 C 2.68333 km/h
Sensor: Nr:Datum:Temp:Abs-Feuchte:Windchill:Wind:
Aussen-T/F 2001 04-10-2019 08:00:00 8.45833 C 8.26 g/m*3 8.46 C 1.06667 km/h
2002 04-10-2019 09:00:00 8.70833 C 8.39 g/m*3 8.71 C 0.8 km/h
2003 04-10-2019 10:00:00 9.125 C 8.61 g/m*3 9.13 C 3.875 km/h
2004 04-10-2019 11:00:00 9.75833 C 8.88 g/m*3 9.26 C 5.75833 km/h
2005 04-10-2019 12:00:00 10.65 C 9.33 g/m*3 10.65 C 3.06667 km/h
2006 04-10-2019 13:00:00 11.25833 C 9.61 g/m*3 11.26 C 2 km/h
2007 04-10-2019 14:00:00 13.03333 C 10.33 g/m*3 13.03 C 7.53333 km/h
2008 04-10-2019 15:00:00 13.81667 C 10.48 g/m*3 13.82 C 6.98333 km/h
2009 04-10-2019 16:00:00 14.05833 C 10.83 g/m*3 14.06 C 1.875 km/h
2010 04-10-2019 17:00:00 13.36667 C 10.78 g/m*3 13.37 C 2.13333 km/h
2011 04-10-2019 18:00:00 12.35833 C 10.26 g/m*3 12.36 C 1.46667 km/h
2012 04-10-2019 19:00:00 11.70833 C 9.98 g/m*3 11.71 C 1.06667 km/h
2013 04-10-2019 20:00:00 11.63333 C 10 g/m*3 11.63 C 2.53333 km/h
2014 04-10-2019 21:00:00 11.65833 C 10.01 g/m*3 11.66 C 5.775 km/h
2015 04-10-2019 22:00:00 11.69167 C 9.97 g/m*3 11.69 C 4.29167 km/h
2016 04-10-2019 23:00:00 11.71667 C 9.99 g/m*3 11.72 C 5.9 km/h
2017 05-10-2019 00:00:00 11.96667 C 9.86 g/m*3 11.97 C 7.10833 km/h
2018 05-10-2019 01:00:00 12.09167 C 9.86 g/m*3 12.09 C 6.85833 km/h
2019 05-10-2019 02:00:00 12.225 C 9.8 g/m*3 12.23 C 7.64167 km/h
2020 05-10-2019 03:00:00 12.3 C 9.94 g/m*3 12.3 C 3.20833 km/h
2021 05-10-2019 04:00:00 11.55 C 9.64 g/m*3 11.55 C 5.90833 km/h
2022 05-10-2019 05:00:00 10.75833 C 9.21 g/m*3 10.24 C 6.44167 km/h
2023 05-10-2019 06:00:00 10.20833 C 8.93 g/m*3 10.21 C 2.275 km/h
2024 05-10-2019 07:00:00 9.98333 C 8.77 g/m*3 9.98 C 3.6 km/h
2025 05-10-2019 08:00:00 9.81667 C 8.54 g/m*3 9.82 C 2.26667 km/h
Sensor: Nr:Datum:Temp:Abs-Feuchte:Windchill:Wind:
Aussen-T/F 2026 05-10-2019 09:00:00 10.18333 C 8.62 g/m*3 10.18 C 4.94167 km/h
2027 05-10-2019 10:00:00 10.55833 C 8.61 g/m*3 9.6 C 8.325 km/h
2028 05-10-2019 11:00:00 10.70833 C 8.11 g/m*3 9.72 C 8.60833 km/h
2029 05-10-2019 12:00:00 11.2 C 8.17 g/m*3 11.2 C 6.575 km/h
2030 05-10-2019 13:00:00 11.9 C 8.22 g/m*3 11.9 C 4.26667 km/h
2031 05-10-2019 14:00:00 11.89167 C 8.27 g/m*3 11.89 C 2.40833 km/h
2032 05-10-2019 15:00:00 12.23333 C 8.36 g/m*3 12.23 C 0.93333 km/h
2033 05-10-2019 16:00:00 12.3 C 8.75 g/m*3 12.3 C 0.66667 km/h
2034 05-10-2019 17:00:00 12.06667 C 9 g/m*3 12.07 C 0.13333 km/h
2035 05-10-2019 18:00:00 11.125 C 8.64 g/m*3 11.13 C 0 km/h
2036 05-10-2019 19:00:00 9.50833 C 7.87 g/m*3 9.51 C 0.4 km/h
2037 05-10-2019 20:00:00 8.35833 C 7.46 g/m*3 8.36 C 1.33333 km/h
2038 05-10-2019 21:00:00 7.875 C 7.44 g/m*3 7.88 C 0 km/h
2039 05-10-2019 22:00:00 7.43333 C 7.44 g/m*3 7.43 C 0 km/h
2040 05-10-2019 23:00:00 7.35 C 7.45 g/m*3 7.35 C 0 km/h
2041 06-10-2019 00:00:00 7.13333 C 7.36 g/m*3 7.13 C 0 km/h
2042 06-10-2019 01:00:00 6.55 C 7.11 g/m*3 6.55 C 0 km/h
2043 06-10-2019 02:00:00 6.7 C 7.26 g/m*3 6.7 C 0 km/h
2044 06-10-2019 03:00:00 7.05833 C 7.47 g/m*3 7.06 C 0 km/h
2045 06-10-2019 04:00:00 7.2 C 7.54 g/m*3 7.2 C 0 km/h
2046 06-10-2019 05:00:00 7.18333 C 7.53 g/m*3 7.18 C 0 km/h
2047 06-10-2019 06:00:00 7.38333 C 7.63 g/m*3 7.38 C 0 km/h
2048 06-10-2019 07:00:00 7.65833 C 7.76 g/m*3 7.66 C 0 km/h
2049 06-10-2019 08:00:00 7.84167 C 7.86 g/m*3 7.84 C 0 km/h
2050 06-10-2019 09:00:00 8.31667 C 8.1 g/m*3 8.32 C 0 km/h
Sensor: Nr:Datum:Temp:Abs-Feuchte:Windchill:Wind:
Aussen-T/F 2051 06-10-2019 10:00:00 8.63333 C 8.22 g/m*3 8.63 C 0.8 km/h
2052 06-10-2019 11:00:00 8.55833 C 8.21 g/m*3 8.56 C 3.6 km/h
2053 06-10-2019 12:00:00 8.78333 C 8.35 g/m*3 8.78 C 0.26667 km/h
2054 06-10-2019 13:00:00 9.06667 C 8.5 g/m*3 9.07 C 0.66667 km/h
2055 06-10-2019 14:00:00 9.25 C 8.6 g/m*3 9.25 C 1.06667 km/h
2056 06-10-2019 15:00:00 9.45833 C 8.72 g/m*3 9.46 C 0.53333 km/h
2057 06-10-2019 16:00:00 9.61667 C 8.8 g/m*3 9.62 C 1.86667 km/h
2058 06-10-2019 17:00:00 9.51667 C 8.75 g/m*3 9.52 C 0.53333 km/h
2059 06-10-2019 18:00:00 9.325 C 8.64 g/m*3 9.32 C 3.225 km/h
2060 06-10-2019 19:00:00 9.15 C 8.57 g/m*3 9.15 C 3.60833 km/h
2061 06-10-2019 20:00:00 9.1 C 8.61 g/m*3 9.1 C 0.4 km/h
2062 06-10-2019 21:00:00 9.04167 C 8.57 g/m*3 9.04 C 1.74167 km/h
2063 06-10-2019 22:00:00 8.81667 C 8.45 g/m*3 8.82 C 1.875 km/h
2064 06-10-2019 23:00:00 8.83333 C 8.46 g/m*3 8.83 C 0 km/h
2065 07-10-2019 00:00:00 8.9 C 8.5 g/m*3 8.9 C 0.26667 km/h
2066 07-10-2019 01:00:00 8.725 C 8.4 g/m*3 8.73 C 2.95 km/h
2067 07-10-2019 02:00:00 8.69167 C 8.38 g/m*3 8.69 C 0.13333 km/h
2068 07-10-2019 03:00:00 8.60833 C 8.34 g/m*3 8.61 C 1.33333 km/h
2069 07-10-2019 04:00:00 8.7 C 8.39 g/m*3 8.7 C 0 km/h
2070 07-10-2019 05:00:00 8.64167 C 8.36 g/m*3 8.64 C 1.86667 km/h
2071 07-10-2019 06:00:00 8.6 C 8.34 g/m*3 8.6 C 0.13333 km/h
2072 07-10-2019 07:00:00 8.6 C 8.34 g/m*3 8.6 C 0 km/h
2073 07-10-2019 08:00:00 8.66667 C 8.37 g/m*3 8.67 C 0 km/h
2074 07-10-2019 09:00:00 8.83333 C 8.46 g/m*3 8.83 C 0.26667 km/h
2075 07-10-2019 10:00:00 9.08333 C 8.6 g/m*3 9.08 C 1.06667 km/h
Sensor: Nr:Datum:Temp:Abs-Feuchte:Windchill:Wind:
Aussen-T/F 2076 07-10-2019 11:00:00 9.65 C 8.88 g/m*3 9.65 C 3.34167 km/h
2077 07-10-2019 12:00:00 10.51667 C 9.05 g/m*3 10.52 C 2.4 km/h
2078 07-10-2019 13:00:00 10.84167 C 9 g/m*3 10.84 C 2.675 km/h
2079 07-10-2019 14:00:00 11.46667 C 9.1 g/m*3 11.47 C 5.89167 km/h
2080 07-10-2019 15:00:00 12.225 C 9.43 g/m*3 12.23 C 1.86667 km/h
2081 07-10-2019 16:00:00 12.29167 C 9.53 g/m*3 12.29 C 1.33333 km/h
2082 07-10-2019 17:00:00 12.3 C 9.56 g/m*3 12.3 C 2.4 km/h
2083 07-10-2019 18:00:00 11.86667 C 9.56 g/m*3 11.87 C 0.53333 km/h
2084 07-10-2019 19:00:00 11.09167 C 9.35 g/m*3 11.09 C 0 km/h
2085 07-10-2019 20:00:00 10.725 C 9.32 g/m*3 10.73 C 0 km/h
2086 07-10-2019 21:00:00 10.975 C 9.58 g/m*3 10.98 C 0 km/h
2087 07-10-2019 22:00:00 11.1 C 9.67 g/m*3 11.1 C 0.26667 km/h
2088 07-10-2019 23:00:00 11.1 C 9.67 g/m*3 11.1 C 0.26667 km/h
2089 08-10-2019 00:00:00 11.11667 C 9.75 g/m*3 11.12 C 0.53333 km/h
2090 08-10-2019 01:00:00 11.25 C 9.79 g/m*3 11.25 C 1.33333 km/h
2091 08-10-2019 02:00:00 11.44167 C 9.88 g/m*3 11.44 C 0.93333 km/h
2092 08-10-2019 03:00:00 11.75833 C 10.05 g/m*3 11.76 C 3.75833 km/h
2093 08-10-2019 04:00:00 11.9 C 10.03 g/m*3 11.9 C 3.61667 km/h
2094 08-10-2019 05:00:00 12.31667 C 10 g/m*3 12.32 C 8.46667 km/h
2095 08-10-2019 06:00:00 12.18333 C 9.96 g/m*3 12.18 C 4.3 km/h
2096 08-10-2019 07:00:00 11.79167 C 9.97 g/m*3 11.79 C 2.53333 km/h
2097 08-10-2019 08:00:00 11.825 C 10.1 g/m*3 11.83 C 5.775 km/h
2098 08-10-2019 09:00:00 12.03333 C 10.25 g/m*3 12.03 C 10.05833 km/h
2099 08-10-2019 10:00:00 12.49167 C 10.45 g/m*3 12.49 C 12.76667 km/h
2100 08-10-2019 11:00:00 13.5 C 10.89 g/m*3 13.5 C 13.7 km/h
Sensor: Nr:Datum:Temp:Abs-Feuchte:Windchill:Wind:
Aussen-T/F 2101 08-10-2019 12:00:00 13.85833 C 10.95 g/m*3 13.86 C 14.36667 km/h
2102 08-10-2019 13:00:00 14.225 C 11.19 g/m*3 14.23 C 9.93333 km/h
2103 08-10-2019 14:00:00 14.6 C 11.43 g/m*3 14.6 C 10.075 km/h
2104 08-10-2019 15:00:00 14.48333 C 11.47 g/m*3 14.48 C 9.55 km/h
2105 08-10-2019 16:00:00 14.225 C 11.56 g/m*3 14.23 C 6.70833 km/h
2106 08-10-2019 17:00:00 14.05833 C 11.55 g/m*3 14.06 C 3.61667 km/h
2107 08-10-2019 18:00:00 13.86667 C 11.49 g/m*3 13.87 C 3.09167 km/h
2108 08-10-2019 19:00:00 13.79167 C 11.43 g/m*3 13.79 C 1.875 km/h
2109 08-10-2019 20:00:00 13.55 C 11.3 g/m*3 13.55 C 0.53333 km/h
2110 08-10-2019 21:00:00 13.225 C 11.14 g/m*3 13.23 C 0.13333 km/h
2111 08-10-2019 22:00:00 12.825 C 10.88 g/m*3 12.83 C 0 km/h
2112 08-10-2019 23:00:00 11.68333 C 10.05 g/m*3 11.68 C 0.53333 km/h
2113 09-10-2019 00:00:00 10.78333 C 9.56 g/m*3 10.78 C 0.13333 km/h
2114 09-10-2019 01:00:00 10.34167 C 9.31 g/m*3 10.34 C 0.13333 km/h
2115 09-10-2019 02:00:00 10.35 C 9.33 g/m*3 10.35 C 1.2 km/h
2116 09-10-2019 03:00:00 10.625 C 9.52 g/m*3 10.63 C 3.35833 km/h
2117 09-10-2019 04:00:00 10.98333 C 9.72 g/m*3 10.77 C 5.36667 km/h
2118 09-10-2019 05:00:00 10.79167 C 9.58 g/m*3 10.59 C 5.225 km/h
2119 09-10-2019 06:00:00 10.925 C 9.66 g/m*3 10.37 C 6.69167 km/h
2120 09-10-2019 07:00:00 10.64167 C 9.4 g/m*3 10.64 C 4.54167 km/h
2121 09-10-2019 08:00:00 10.73333 C 9.48 g/m*3 10.73 C 4.95833 km/h
2122 09-10-2019 09:00:00 11.2 C 9.76 g/m*3 11.2 C 5.36667 km/h
2123 09-10-2019 10:00:00 12.55 C 10.19 g/m*3 12.55 C 7.38333 km/h
2124 09-10-2019 11:00:00 13.55833 C 10.43 g/m*3 13.56 C 3.46667 km/h
2125 09-10-2019 12:00:00 13.90833 C 10.64 g/m*3 13.91 C 5.225 km/h
Sensor: Nr:Datum:Temp:Abs-Feuchte:Windchill:Wind:
Aussen-T/F 2126 09-10-2019 13:00:00 13.59167 C 10.87 g/m*3 13.59 C 1.34167 km/h
2127 09-10-2019 14:00:00 12.925 C 10.43 g/m*3 12.93 C 3.74167 km/h
2128 09-10-2019 15:00:00 12.28333 C 10.09 g/m*3 12.28 C 9.01667 km/h
2129 09-10-2019 16:00:00 12.775 C 10.02 g/m*3 12.78 C 8.86667 km/h
2130 09-10-2019 17:00:00 12.975 C 9.81 g/m*3 12.98 C 10.20833 km/h
2131 09-10-2019 18:00:00 12.525 C 9.54 g/m*3 12.53 C 11.28333 km/h
2132 09-10-2019 19:00:00 11.84167 C 9.37 g/m*3 11.84 C 9.675 km/h
2133 09-10-2019 20:00:00 11.20833 C 9.09 g/m*3 11.21 C 6.3 km/h
2134 09-10-2019 21:00:00 11.06667 C 9.07 g/m*3 11.07 C 8.2 km/h
2135 09-10-2019 22:00:00 11.10833 C 8.69 g/m*3 11.11 C 14.23333 km/h
2136 09-10-2019 23:00:00 10.8 C 8.53 g/m*3 9.33 C 11.7 km/h
2137 10-10-2019 00:00:00 10.375 C 8.45 g/m*3 8.64 C 12.89167 km/h
2138 10-10-2019 01:00:00 10.15833 C 8.49 g/m*3 9.61 C 6.15833 km/h
2139 10-10-2019 02:00:00 10.39167 C 8.71 g/m*3 10.39 C 4.825 km/h
2140 10-10-2019 03:00:00 10.68333 C 8.93 g/m*3 10.68 C 4.81667 km/h
2141 10-10-2019 04:00:00 10.56667 C 8.95 g/m*3 9.64 C 8.18333 km/h
2142 10-10-2019 05:00:00 10.40833 C 9.02 g/m*3 10.41 C 3.2 km/h
2143 10-10-2019 06:00:00 10.44167 C 9.05 g/m*3 10.11 C 5.49167 km/h
2144 10-10-2019 07:00:00 10.09167 C 8.79 g/m*3 9.37 C 6.84167 km/h
2145 10-10-2019 08:00:00 9.81667 C 8.56 g/m*3 8.93 C 7.375 km/h
2146 10-10-2019 09:00:00 10.675 C 8.79 g/m*3 9.59 C 9.13333 km/h
2147 10-10-2019 10:00:00 11.29167 C 8.88 g/m*3 11.29 C 11.825 km/h
2148 10-10-2019 11:00:00 12.33333 C 9.13 g/m*3 12.33 C 12.89167 km/h
2149 10-10-2019 12:00:00 13.35 C 9.1 g/m*3 13.35 C 14.1 km/h
2150 10-10-2019 13:00:00 14.28333 C 8.73 g/m*3 14.28 C 16.5 km/h
Sensor: Nr:Datum:Temp:Abs-Feuchte:Windchill:Wind:
Aussen-T/F 2151 10-10-2019 14:00:00 14.53333 C 9.12 g/m*3 14.53 C 12.20833 km/h
2152 10-10-2019 15:00:00 15.09167 C 9.33 g/m*3 15.09 C 12.76667 km/h
2153 10-10-2019 16:00:00 15.37778 C 9.32 g/m*3 15.38 C 12.01111 km/h
2154 10-10-2019 17:00:00 13.83333 C 9.62 g/m*3 13.83 C 9.675 km/h
2155 10-10-2019 18:00:00 13.18333 C 9.53 g/m*3 13.18 C 4.15 km/h
2156 10-10-2019 19:00:00 11.68333 C 9.19 g/m*3 11.68 C 3.475 km/h
2157 10-10-2019 20:00:00 11.69167 C 9.23 g/m*3 11.69 C 4.95 km/h
2158 10-10-2019 21:00:00 10.88333 C 9 g/m*3 10.88 C 0.26667 km/h
2159 10-10-2019 22:00:00 10.18333 C 8.9 g/m*3 10.18 C 0.13333 km/h
2160 10-10-2019 23:00:00 9.8 C 8.77 g/m*3 9.8 C 0.93333 km/h
2161 11-10-2019 00:00:00 9.575 C 8.73 g/m*3 9.57 C 1.06667 km/h
2162 11-10-2019 01:00:00 9.19167 C 8.52 g/m*3 9.19 C 0.8 km/h
2163 11-10-2019 02:00:00 8.83333 C 8.36 g/m*3 8.83 C 0 km/h
2164 11-10-2019 03:00:00 8.98333 C 8.48 g/m*3 8.98 C 1.74167 km/h
2165 11-10-2019 04:00:00 9.49167 C 8.72 g/m*3 9.49 C 3.86667 km/h
2166 11-10-2019 05:00:00 9.45833 C 8.62 g/m*3 9.46 C 2.40833 km/h
2167 11-10-2019 06:00:00 9.43333 C 8.6 g/m*3 9.43 C 0.4 km/h
2168 11-10-2019 07:00:00 9.91667 C 8.89 g/m*3 9.92 C 1.60833 km/h
2169 11-10-2019 08:00:00 10.98333 C 9.5 g/m*3 10.98 C 2.80833 km/h
2170 11-10-2019 09:00:00 12.425 C 10.21 g/m*3 12.43 C 3.21667 km/h
2171 11-10-2019 10:00:00 13.35833 C 10.58 g/m*3 13.36 C 3.34167 km/h
2172 11-10-2019 11:00:00 14.85833 C 10.83 g/m*3 14.86 C 11.68333 km/h
2173 11-10-2019 12:00:00 15.85 C 10.72 g/m*3 15.85 C 16.1 km/h
2174 11-10-2019 13:00:00 16.39167 C 10.82 g/m*3 16.39 C 11.15 km/h
2175 11-10-2019 14:00:00 16.29167 C 10.86 g/m*3 16.29 C 11.275 km/h
Sensor: Nr:Datum:Temp:Abs-Feuchte:Windchill:Wind:
Aussen-T/F 2176 11-10-2019 15:00:00 16.56667 C 10.9 g/m*3 16.57 C 11.03333 km/h
2177 11-10-2019 16:00:00 16.6 C 11.02 g/m*3 16.6 C 10.61667 km/h
2178 11-10-2019 17:00:00 16.66667 C 11.09 g/m*3 16.67 C 9 km/h
2179 11-10-2019 18:00:00 16.04167 C 11.1 g/m*3 16.04 C 4.03333 km/h
2180 11-10-2019 19:00:00 14.19167 C 10.81 g/m*3 14.19 C 0.4 km/h
2181 11-10-2019 20:00:00 13.55833 C 10.81 g/m*3 13.56 C 0 km/h
2182 11-10-2019 21:00:00 12.80833 C 10.44 g/m*3 12.81 C 0 km/h
2183 11-10-2019 22:00:00 12.075 C 10.11 g/m*3 12.08 C 0 km/h
2184 11-10-2019 23:00:00 11.81667 C 10.03 g/m*3 11.82 C 0 km/h
2185 12-10-2019 00:00:00 11.11667 C 9.59 g/m*3 11.12 C 0 km/h
2186 12-10-2019 01:00:00 10.63333 C 9.39 g/m*3 10.63 C 0 km/h
2187 12-10-2019 02:00:00 10.30833 C 9.2 g/m*3 10.31 C 0.13333 km/h
2188 12-10-2019 03:00:00 9.95833 C 9 g/m*3 9.96 C 0 km/h
2189 12-10-2019 04:00:00 10.01667 C 9.12 g/m*3 10.02 C 0 km/h
2190 12-10-2019 05:00:00 9.58333 C 8.84 g/m*3 9.58 C 0 km/h
2191 12-10-2019 06:00:00 8.89167 C 8.49 g/m*3 8.89 C 0 km/h
2192 12-10-2019 07:00:00 8.74167 C 8.41 g/m*3 8.74 C 0 km/h
2193 12-10-2019 08:00:00 8.86667 C 8.48 g/m*3 8.87 C 0 km/h
2194 12-10-2019 09:00:00 9.28333 C 8.73 g/m*3 9.28 C 0.93333 km/h
2195 12-10-2019 10:00:00 11.75 C 10.28 g/m*3 11.75 C 5.225 km/h
2196 12-10-2019 11:00:00 14.25 C 11.36 g/m*3 14.25 C 9.80833 km/h
2197 12-10-2019 12:00:00 16.45 C 11.47 g/m*3 16.45 C 7.79167 km/h
2198 12-10-2019 13:00:00 17.975 C 11.63 g/m*3 17.98 C 11.825 km/h
2199 12-10-2019 14:00:00 19.40833 C 11.8 g/m*3 19.41 C 13.56667 km/h
2200 12-10-2019 15:00:00 19.93333 C 11.86 g/m*3 19.93 C 14.76667 km/h
Sensor: Nr:Datum:Temp:Abs-Feuchte:Windchill:Wind:
Aussen-T/F 2201 12-10-2019 16:00:00 19.6 C 12.11 g/m*3 19.6 C 13.7 km/h
2202 12-10-2019 17:00:00 18.85 C 12.1 g/m*3 18.85 C 9.26667 km/h
2203 12-10-2019 18:00:00 17.225 C 12.21 g/m*3 17.23 C 0.26667 km/h
2204 12-10-2019 19:00:00 15.61667 C 11.8 g/m*3 15.62 C 0 km/h
2205 12-10-2019 20:00:00 14.93333 C 11.5 g/m*3 14.93 C 0 km/h
2206 12-10-2019 21:00:00 14.51667 C 11.56 g/m*3 14.52 C 1.6 km/h
2207 12-10-2019 22:00:00 14.925 C 11.72 g/m*3 14.93 C 0.26667 km/h
2208 12-10-2019 23:00:00 14.375 C 11.54 g/m*3 14.38 C 0 km/h
2209 13-10-2019 00:00:00 13.65 C 11.13 g/m*3 13.65 C 0.13333 km/h
2210 13-10-2019 01:00:00 13.11667 C 10.87 g/m*3 13.12 C 0 km/h
2211 13-10-2019 02:00:00 13.30833 C 11.14 g/m*3 13.31 C 0 km/h
2212 13-10-2019 03:00:00 13.40833 C 11.18 g/m*3 13.41 C 0 km/h
2213 13-10-2019 04:00:00 13 C 10.94 g/m*3 13 C 0.26667 km/h
2214 13-10-2019 05:00:00 13.54167 C 11.37 g/m*3 13.54 C 0 km/h
2215 13-10-2019 06:00:00 13.79167 C 11.55 g/m*3 13.79 C 0 km/h
2216 13-10-2019 07:00:00 13.76667 C 11.53 g/m*3 13.77 C 0 km/h
2217 13-10-2019 08:00:00 13.11667 C 11.08 g/m*3 13.12 C 0.4 km/h
2218 13-10-2019 09:00:00 13.46667 C 11.38 g/m*3 13.47 C 0 km/h
2219 13-10-2019 10:00:00 14.23333 C 11.98 g/m*3 14.23 C 0 km/h
2220 13-10-2019 11:00:00 15.63333 C 13.06 g/m*3 15.63 C 1.2 km/h
2221 13-10-2019 12:00:00 17.325 C 14.43 g/m*3 17.33 C 2.14167 km/h
2222 13-10-2019 13:00:00 19.45833 C 15.3 g/m*3 19.46 C 2.00833 km/h
2223 13-10-2019 14:00:00 21.65833 C 14.76 g/m*3 21.66 C 4.54167 km/h
2224 13-10-2019 15:00:00 22.03333 C 14.76 g/m*3 22.03 C 4.025 km/h
2225 13-10-2019 16:00:00 21.96667 C 14.92 g/m*3 21.97 C 2.54167 km/h
Sensor: Nr:Datum:Temp:Abs-Feuchte:Windchill:Wind:
Aussen-T/F 2226 13-10-2019 17:00:00 21.125 C 14.87 g/m*3 21.13 C 0.93333 km/h
2227 13-10-2019 18:00:00 19.51667 C 14.41 g/m*3 19.52 C 0.8 km/h
2228 13-10-2019 19:00:00 18.45 C 13.93 g/m*3 18.45 C 0.4 km/h
2229 13-10-2019 20:00:00 18.11667 C 13.66 g/m*3 18.12 C 0.26667 km/h
2230 13-10-2019 21:00:00 17.41667 C 13.24 g/m*3 17.42 C 0.26667 km/h
2231 13-10-2019 22:00:00 17.06667 C 12.86 g/m*3 17.07 C 0.13333 km/h
2232 13-10-2019 23:00:00 16.56667 C 12.52 g/m*3 16.57 C 0.26667 km/h
2233 14-10-2019 00:00:00 15.825 C 12.14 g/m*3 15.83 C 0 km/h
2234 14-10-2019 01:00:00 15.41667 C 11.97 g/m*3 15.42 C 0 km/h
2235 14-10-2019 02:00:00 14.91667 C 11.73 g/m*3 14.92 C 0 km/h
2236 14-10-2019 03:00:00 14.14167 C 11.33 g/m*3 14.14 C 0.26667 km/h
2237 14-10-2019 04:00:00 13.45833 C 11 g/m*3 13.46 C 0 km/h
2238 14-10-2019 05:00:00 13.36667 C 11.08 g/m*3 13.37 C 0.26667 km/h
2239 14-10-2019 06:00:00 12.9 C 10.73 g/m*3 12.9 C 0 km/h
2240 14-10-2019 07:00:00 12.75 C 10.7 g/m*3 12.75 C 1.2 km/h
2241 14-10-2019 08:00:00 12.88333 C 10.81 g/m*3 12.88 C 0 km/h
2242 14-10-2019 09:00:00 13.24167 C 11.07 g/m*3 13.24 C 0 km/h
2243 14-10-2019 10:00:00 13.64167 C 11.39 g/m*3 13.64 C 0 km/h
2244 14-10-2019 11:00:00 14.90833 C 12.37 g/m*3 14.91 C 0 km/h
2245 14-10-2019 12:00:00 16.49167 C 13.51 g/m*3 16.49 C 0 km/h
2246 14-10-2019 13:00:00 18.55833 C 14.17 g/m*3 18.56 C 1.73333 km/h
2247 14-10-2019 14:00:00 21.1 C 14.13 g/m*3 21.1 C 3.75 km/h
2248 14-10-2019 15:00:00 21.11667 C 13.92 g/m*3 21.12 C 2.675 km/h
2249 14-10-2019 16:00:00 20.775 C 13.38 g/m*3 20.78 C 2.81667 km/h
2250 14-10-2019 17:00:00 19.81667 C 13.44 g/m*3 19.82 C 0 km/h
Sensor: Nr:Datum:Temp:Abs-Feuchte:Windchill:Wind:
Aussen-T/F 2251 14-10-2019 18:00:00 18.93333 C 13.13 g/m*3 18.93 C 0.26667 km/h
2252 14-10-2019 19:00:00 17.43333 C 12.92 g/m*3 17.43 C 0.26667 km/h
2253 14-10-2019 20:00:00 16.71667 C 12.54 g/m*3 16.72 C 0.13333 km/h
2254 14-10-2019 21:00:00 15.88333 C 12.05 g/m*3 15.88 C 0 km/h
2255 14-10-2019 22:00:00 14.875 C 11.7 g/m*3 14.88 C 0.26667 km/h
2256 14-10-2019 23:00:00 15.075 C 11.86 g/m*3 15.08 C 0.26667 km/h
2257 15-10-2019 00:00:00 15.08333 C 11.86 g/m*3 15.08 C 0.13333 km/h
2258 15-10-2019 01:00:00 14.4 C 11.41 g/m*3 14.4 C 0.13333 km/h
2259 15-10-2019 02:00:00 13.43333 C 10.9 g/m*3 13.43 C 0 km/h
2260 15-10-2019 03:00:00 12.725 C 10.54 g/m*3 12.73 C 0 km/h
2261 15-10-2019 04:00:00 12.38333 C 10.41 g/m*3 12.38 C 0.8 km/h
2262 15-10-2019 05:00:00 11.95833 C 10.18 g/m*3 11.96 C 0 km/h
2263 15-10-2019 06:00:00 12.09167 C 10.35 g/m*3 12.09 C 0.26667 km/h
2264 15-10-2019 07:00:00 11.96667 C 10.24 g/m*3 11.97 C 0 km/h
2265 15-10-2019 08:00:00 11.79167 C 10.19 g/m*3 11.79 C 0 km/h
2266 15-10-2019 09:00:00 12.36667 C 10.58 g/m*3 12.37 C 0 km/h
2267 15-10-2019 10:00:00 13.25833 C 11.18 g/m*3 13.26 C 0.8 km/h
2268 15-10-2019 11:00:00 15.375 C 12.54 g/m*3 15.38 C 2.54167 km/h
2269 15-10-2019 12:00:00 17.68333 C 12.87 g/m*3 17.68 C 6.58333 km/h
2270 15-10-2019 13:00:00 18.10833 C 12.43 g/m*3 18.11 C 9 km/h
2271 15-10-2019 14:00:00 17.73333 C 12.25 g/m*3 17.73 C 7.11667 km/h
2272 15-10-2019 15:00:00 17.21667 C 12.02 g/m*3 17.22 C 5.625 km/h
2273 15-10-2019 16:00:00 16.65833 C 12.09 g/m*3 16.66 C 1.86667 km/h
2274 15-10-2019 17:00:00 16.28333 C 12.2 g/m*3 16.28 C 0.13333 km/h
2275 15-10-2019 18:00:00 15.11667 C 11.88 g/m*3 15.12 C 0.66667 km/h
Sensor: Nr:Datum:Temp:Abs-Feuchte:Windchill:Wind:
Aussen-T/F 2276 15-10-2019 19:00:00 14.29167 C 11.58 g/m*3 14.29 C 0 km/h
2277 15-10-2019 20:00:00 13.925 C 11.41 g/m*3 13.93 C 0 km/h
2278 15-10-2019 21:00:00 13.65 C 11.27 g/m*3 13.65 C 0 km/h
2279 15-10-2019 22:00:00 13.41667 C 11.17 g/m*3 13.42 C 2.275 km/h
2280 15-10-2019 23:00:00 12.925 C 10.73 g/m*3 12.93 C 7.39167 km/h
2281 16-10-2019 00:00:00 12.10833 C 10.18 g/m*3 12.11 C 3.48333 km/h
2282 16-10-2019 01:00:00 11.85833 C 10.11 g/m*3 11.86 C 0.13333 km/h
2283 16-10-2019 02:00:00 11.8 C 10.1 g/m*3 11.8 C 0.26667 km/h
2284 16-10-2019 03:00:00 11.775 C 10.09 g/m*3 11.78 C 4.425 km/h
2285 16-10-2019 04:00:00 11.625 C 9.99 g/m*3 11.63 C 2.675 km/h
2286 16-10-2019 05:00:00 11.425 C 9.87 g/m*3 11.43 C 1.33333 km/h
2287 16-10-2019 06:00:00 11.18333 C 9.63 g/m*3 11.18 C 6.975 km/h
2288 16-10-2019 07:00:00 10.95833 C 9.38 g/m*3 10.96 C 2.26667 km/h
2289 16-10-2019 08:00:00 10.65 C 9.2 g/m*3 10.65 C 2.81667 km/h
2290 16-10-2019 09:00:00 10.925 C 9.44 g/m*3 10.93 C 1.6 km/h
2291 16-10-2019 10:00:00 12.44167 C 9.99 g/m*3 12.44 C 3.2 km/h
2292 16-10-2019 11:00:00 13.79167 C 10.29 g/m*3 13.79 C 5.9 km/h
2293 16-10-2019 12:00:00 14.55 C 10.54 g/m*3 14.55 C 5.64167 km/h
2294 16-10-2019 13:00:00 14.08333 C 11.05 g/m*3 14.08 C 0.53333 km/h
2295 16-10-2019 14:00:00 13.51667 C 11.02 g/m*3 13.52 C 2.275 km/h
2296 16-10-2019 15:00:00 13.91667 C 11.37 g/m*3 13.92 C 1.73333 km/h
2297 16-10-2019 16:00:00 14.34167 C 11.6 g/m*3 14.34 C 2.4 km/h
2298 16-10-2019 17:00:00 14.36667 C 11.66 g/m*3 14.37 C 0.26667 km/h
2299 16-10-2019 18:00:00 13.90833 C 11.39 g/m*3 13.91 C 0.13333 km/h
2300 16-10-2019 19:00:00 13.53333 C 11.25 g/m*3 13.53 C 0 km/h
Sensor: Nr:Datum:Temp:Abs-Feuchte:Windchill:Wind:
Aussen-T/F 2301 16-10-2019 20:00:00 13.25 C 11.06 g/m*3 13.25 C 0.26667 km/h
2302 16-10-2019 21:00:00 12.71667 C 10.7 g/m*3 12.72 C 0.26667 km/h
2303 16-10-2019 22:00:00 12.55833 C 10.59 g/m*3 12.56 C 0.26667 km/h
2304 16-10-2019 23:00:00 12.4 C 10.53 g/m*3 12.4 C 0.66667 km/h
2305 17-10-2019 00:00:00 12.64167 C 10.65 g/m*3 12.64 C 0.26667 km/h
2306 17-10-2019 01:00:00 12.61667 C 10.63 g/m*3 12.62 C 0.26667 km/h
2307 17-10-2019 02:00:00 12.375 C 10.47 g/m*3 12.38 C 0.26667 km/h
2308 17-10-2019 03:00:00 12.76667 C 10.67 g/m*3 12.77 C 1.2 km/h
2309 17-10-2019 04:00:00 13.575 C 10.86 g/m*3 13.58 C 1.6 km/h
2310 17-10-2019 05:00:00 14.19167 C 10.9 g/m*3 14.19 C 3.20833 km/h
2311 17-10-2019 06:00:00 14.23333 C 10.88 g/m*3 14.23 C 4.00833 km/h
2312 17-10-2019 07:00:00 14.24167 C 10.97 g/m*3 14.24 C 2.68333 km/h
2313 17-10-2019 08:00:00 14.58333 C 10.96 g/m*3 14.58 C 6.85 km/h
2314 17-10-2019 09:00:00 15.36667 C 11.12 g/m*3 15.37 C 7.39167 km/h
2315 17-10-2019 10:00:00 15.86667 C 11.24 g/m*3 15.87 C 9.39167 km/h
2316 17-10-2019 11:00:00 16.65833 C 11.61 g/m*3 16.66 C 3.88333 km/h
2317 17-10-2019 12:00:00 16.65833 C 11.92 g/m*3 16.66 C 2.26667 km/h
2318 17-10-2019 13:00:00 16.81667 C 11.88 g/m*3 16.82 C 5.50833 km/h
2319 17-10-2019 14:00:00 16.84167 C 12.29 g/m*3 16.84 C 0.93333 km/h
2320 17-10-2019 15:00:00 16.63333 C 12.31 g/m*3 16.63 C 0.8 km/h
2321 17-10-2019 16:00:00 15.85 C 12.31 g/m*3 15.85 C 0.26667 km/h
2322 17-10-2019 17:00:00 15.14167 C 12.15 g/m*3 15.14 C 0.13333 km/h
2323 17-10-2019 18:00:00 14.61667 C 11.9 g/m*3 14.62 C 0.26667 km/h
2324 17-10-2019 19:00:00 14.15833 C 11.65 g/m*3 14.16 C 0 km/h
2325 17-10-2019 20:00:00 14.08333 C 11.64 g/m*3 14.08 C 0.4 km/h
Sensor: Nr:Datum:Temp:Abs-Feuchte:Windchill:Wind:
Aussen-T/F 2326 17-10-2019 21:00:00 13.9 C 11.6 g/m*3 13.9 C 0.53333 km/h
2327 17-10-2019 22:00:00 13.85 C 11.59 g/m*3 13.85 C 0.13333 km/h
2328 17-10-2019 23:00:00 13.89167 C 11.62 g/m*3 13.89 C 0.66667 km/h
2329 18-10-2019 00:00:00 13.825 C 11.58 g/m*3 13.83 C 0.93333 km/h
2330 18-10-2019 01:00:00 12.83333 C 10.88 g/m*3 12.83 C 0.4 km/h
2331 18-10-2019 02:00:00 12.125 C 10.42 g/m*3 12.13 C 0 km/h
2332 18-10-2019 03:00:00 11.58333 C 10.07 g/m*3 11.58 C 0.4 km/h
2333 18-10-2019 04:00:00 11.49167 C 10.01 g/m*3 11.49 C 0.26667 km/h
2334 18-10-2019 05:00:00 11.80833 C 10.25 g/m*3 11.81 C 0.66667 km/h
2335 18-10-2019 06:00:00 12.7 C 10.91 g/m*3 12.7 C 1.6 km/h
2336 18-10-2019 07:00:00 12.60833 C 10.81 g/m*3 12.61 C 0.13333 km/h
2337 18-10-2019 08:00:00 12.8 C 10.98 g/m*3 12.8 C 0.26667 km/h
2338 18-10-2019 09:00:00 13.4 C 11.39 g/m*3 13.4 C 0 km/h
2339 18-10-2019 10:00:00 14.38333 C 12.1 g/m*3 14.38 C 1.33333 km/h
2340 18-10-2019 11:00:00 14.66667 C 12.23 g/m*3 14.67 C 3.88333 km/h
2341 18-10-2019 12:00:00 15.46667 C 11.78 g/m*3 15.47 C 7.25 km/h
2342 18-10-2019 13:00:00 14.95833 C 10.73 g/m*3 14.96 C 15.175 km/h
2343 18-10-2019 14:00:00 12.91667 C 9.64 g/m*3 12.92 C 16.50833 km/h
2344 18-10-2019 15:00:00 13.8 C 9.6 g/m*3 13.8 C 12.89167 km/h
2345 18-10-2019 16:00:00 14.23333 C 9.29 g/m*3 14.23 C 15.425 km/h
2346 18-10-2019 17:00:00 14.40833 C 9.06 g/m*3 14.41 C 9.8 km/h
2347 18-10-2019 18:00:00 12.64167 C 8.93 g/m*3 12.64 C 2.41667 km/h
2348 18-10-2019 19:00:00 10.63333 C 8.68 g/m*3 10.63 C 0.26667 km/h
2349 18-10-2019 20:00:00 9.75833 C 8.5 g/m*3 9.76 C 0 km/h
2350 18-10-2019 21:00:00 9.20833 C 8.34 g/m*3 9.21 C 0 km/h
Sensor: Nr:Datum:Temp:Abs-Feuchte:Windchill:Wind:
Aussen-T/F 2351 18-10-2019 22:00:00 9.23333 C 8.49 g/m*3 9.23 C 0 km/h
2352 18-10-2019 23:00:00 9.14167 C 8.45 g/m*3 9.14 C 0 km/h
2353 19-10-2019 00:00:00 9.14167 C 8.47 g/m*3 9.14 C 0.66667 km/h
2354 19-10-2019 01:00:00 9.64167 C 8.68 g/m*3 9.64 C 0.4 km/h
2355 19-10-2019 02:00:00 9.65833 C 8.67 g/m*3 9.66 C 0 km/h
2356 19-10-2019 03:00:00 9.875 C 8.76 g/m*3 9.88 C 0 km/h
2357 19-10-2019 04:00:00 10.10833 C 8.89 g/m*3 10.11 C 0.53333 km/h
2358 19-10-2019 05:00:00 10.68333 C 9.21 g/m*3 10.68 C 0.93333 km/h
2359 19-10-2019 06:00:00 10.70833 C 9.19 g/m*3 10.71 C 0 km/h
2360 19-10-2019 07:00:00 10.64167 C 9.23 g/m*3 10.64 C 0 km/h
2361 19-10-2019 08:00:00 11.05 C 9.54 g/m*3 11.05 C 0.26667 km/h
2362 19-10-2019 09:00:00 11.875 C 9.97 g/m*3 11.88 C 0.4 km/h
2363 19-10-2019 10:00:00 13.025 C 10.3 g/m*3 13.03 C 1.2 km/h
2364 19-10-2019 11:00:00 13.825 C 10.9 g/m*3 13.83 C 3.35 km/h
2365 19-10-2019 12:00:00 15.40833 C 11.24 g/m*3 15.41 C 3.34167 km/h
2366 19-10-2019 13:00:00 16.2 C 11.32 g/m*3 16.2 C 4.95833 km/h
2367 19-10-2019 14:00:00 16.9 C 11.41 g/m*3 16.9 C 7.5 km/h
2368 19-10-2019 15:00:00 17.24167 C 11.33 g/m*3 17.24 C 6.30833 km/h
2369 19-10-2019 16:00:00 17.15 C 11.4 g/m*3 17.15 C 1.475 km/h
2370 19-10-2019 17:00:00 16.84167 C 11.6 g/m*3 16.84 C 2.00833 km/h
2371 19-10-2019 18:00:00 15.16364 C 11.61 g/m*3 15.16 C 0.87273 km/h
2372 19-10-2019 19:00:00 14.03333 C 11.32 g/m*3 14.03 C 0 km/h
2373 19-10-2019 20:00:00 13.625 C 11.19 g/m*3 13.63 C 0 km/h
2374 19-10-2019 21:00:00 13.43333 C 11.14 g/m*3 13.43 C 0.53333 km/h
2375 19-10-2019 22:00:00 13.21667 C 11.03 g/m*3 13.22 C 0 km/h
Sensor: Nr:Datum:Temp:Abs-Feuchte:Windchill:Wind:
Aussen-T/F 2376 19-10-2019 23:00:00 13.00833 C 10.89 g/m*3 13.01 C 0 km/h
2377 20-10-2019 00:00:00 13 C 10.96 g/m*3 13 C 0 km/h
2378 20-10-2019 01:00:00 13.13333 C 11.09 g/m*3 13.13 C 0 km/h
2379 20-10-2019 02:00:00 13.11667 C 11.08 g/m*3 13.12 C 0 km/h
2380 20-10-2019 03:00:00 13.1 C 11.07 g/m*3 13.1 C 0 km/h
2381 20-10-2019 04:00:00 13.16667 C 11.11 g/m*3 13.17 C 0 km/h
2382 20-10-2019 05:00:00 12.96667 C 10.98 g/m*3 12.97 C 0.26667 km/h
2383 20-10-2019 06:00:00 12.74167 C 10.83 g/m*3 12.74 C 0 km/h
2384 20-10-2019 07:00:00 12.65 C 10.76 g/m*3 12.65 C 0 km/h
2385 20-10-2019 08:00:00 12.70833 C 10.8 g/m*3 12.71 C 0 km/h
2386 20-10-2019 09:00:00 12.84167 C 10.96 g/m*3 12.84 C 0.13333 km/h
2387 20-10-2019 10:00:00 13.04167 C 11.1 g/m*3 13.04 C 0.13333 km/h
2388 20-10-2019 11:00:00 13.25833 C 11.26 g/m*3 13.26 C 0.53333 km/h
2389 20-10-2019 12:00:00 13.69167 C 11.6 g/m*3 13.69 C 0 km/h
2390 20-10-2019 13:00:00 13.96667 C 11.8 g/m*3 13.97 C 0.13333 km/h
2391 20-10-2019 14:00:00 14.275 C 12.02 g/m*3 14.28 C 0.53333 km/h
2392 20-10-2019 15:00:00 14.525 C 12.21 g/m*3 14.53 C 0 km/h
2393 20-10-2019 16:00:00 14.83333 C 12.44 g/m*3 14.83 C 0.26667 km/h
2394 20-10-2019 17:00:00 14.85 C 12.45 g/m*3 14.85 C 0 km/h
2395 20-10-2019 18:00:00 14.45833 C 12.16 g/m*3 14.46 C 0 km/h
2396 20-10-2019 19:00:00 14.20833 C 11.97 g/m*3 14.21 C 0 km/h
2397 20-10-2019 20:00:00 14.03333 C 11.85 g/m*3 14.03 C 0 km/h
2398 20-10-2019 21:00:00 14.05833 C 11.86 g/m*3 14.06 C 0.26667 km/h
2399 20-10-2019 22:00:00 13.90909 C 11.76 g/m*3 13.91 C 0 km/h
2400 20-10-2019 23:00:00 13.925 C 11.77 g/m*3 13.93 C 0.26667 km/h
Sensor: Nr:Datum:Temp:Abs-Feuchte:Windchill:Wind:
Aussen-T/F 2401 21-10-2019 00:00:00 14.24167 C 12 g/m*3 14.24 C 4.95833 km/h
2402 21-10-2019 01:00:00 14.14167 C 11.92 g/m*3 14.14 C 0 km/h
2403 21-10-2019 02:00:00 13.74167 C 11.63 g/m*3 13.74 C 0 km/h
2404 21-10-2019 03:00:00 13.66667 C 11.58 g/m*3 13.67 C 0 km/h
2405 21-10-2019 04:00:00 13.11667 C 11.19 g/m*3 13.12 C 0 km/h
2406 21-10-2019 05:00:00 13.21667 C 11.26 g/m*3 13.22 C 0.13333 km/h
2407 21-10-2019 06:00:00 13.60833 C 11.54 g/m*3 13.61 C 0 km/h
2408 21-10-2019 07:00:00 13.31667 C 11.33 g/m*3 13.32 C 0 km/h
2409 21-10-2019 08:00:00 12.70833 C 10.91 g/m*3 12.71 C 0 km/h
2410 21-10-2019 09:00:00 12.9 C 11.05 g/m*3 12.9 C 0 km/h
2411 21-10-2019 10:00:00 13.49167 C 11.49 g/m*3 13.49 C 0.4 km/h
2412 21-10-2019 11:00:00 14.00833 C 11.83 g/m*3 14.01 C 2 km/h
2413 21-10-2019 12:00:00 14.60833 C 12.29 g/m*3 14.61 C 3.35 km/h
2414 21-10-2019 13:00:00 15.91667 C 12.04 g/m*3 15.92 C 11.025 km/h
2415 21-10-2019 14:00:00 16.70833 C 11.69 g/m*3 16.71 C 6.31667 km/h
2416 21-10-2019 15:00:00 16.375 C 11.27 g/m*3 16.38 C 6.96667 km/h
2417 21-10-2019 16:00:00 15.86667 C 10.94 g/m*3 15.87 C 4.95 km/h
2418 21-10-2019 17:00:00 14.73333 C 10.79 g/m*3 14.73 C 1.60833 km/h
2419 21-10-2019 18:00:00 13.72727 C 10.33 g/m*3 13.73 C 0.87273 km/h
2420 21-10-2019 19:00:00 12.49167 C 9.92 g/m*3 12.49 C 0 km/h
2421 21-10-2019 20:00:00 11.75 C 9.69 g/m*3 11.75 C 0 km/h
2422 21-10-2019 21:00:00 11.38333 C 9.6 g/m*3 11.38 C 0 km/h
2423 21-10-2019 22:00:00 11.325 C 9.6 g/m*3 11.33 C 0 km/h
2424 21-10-2019 23:00:00 11.21667 C 9.52 g/m*3 11.22 C 0 km/h
2425 22-10-2019 00:00:00 10.825 C 9.36 g/m*3 10.83 C 0 km/h
Sensor: Nr:Datum:Temp:Abs-Feuchte:Windchill:Wind:
Aussen-T/F 2426 22-10-2019 01:00:00 11.01667 C 9.52 g/m*3 11.02 C 0.26667 km/h
2427 22-10-2019 02:00:00 10.94167 C 9.47 g/m*3 10.94 C 0 km/h
2428 22-10-2019 03:00:00 10.875 C 9.42 g/m*3 10.88 C 0 km/h
2429 22-10-2019 04:00:00 10.66667 C 9.29 g/m*3 10.67 C 0 km/h
2430 22-10-2019 05:00:00 10 C 8.92 g/m*3 10 C 0 km/h
2431 22-10-2019 06:00:00 10.1 C 9.08 g/m*3 10.1 C 0 km/h
2432 22-10-2019 07:00:00 9.975 C 8.95 g/m*3 9.98 C 0 km/h
2433 22-10-2019 08:00:00 9.875 C 8.95 g/m*3 9.88 C 0 km/h
2434 22-10-2019 09:00:00 10.44167 C 9.25 g/m*3 10.44 C 1.2 km/h
2435 22-10-2019 10:00:00 11.36667 C 9.62 g/m*3 11.37 C 3.6 km/h
2436 22-10-2019 11:00:00 12.78333 C 9.88 g/m*3 12.78 C 4.675 km/h
2437 22-10-2019 12:00:00 13.61667 C 10 g/m*3 13.62 C 1.06667 km/h
2438 22-10-2019 13:00:00 14.35714 C 10.15 g/m*3 14.36 C 1.82857 km/h
2439 22-10-2019 14:00:00 15.08333 C 9.99 g/m*3 15.08 C 3.2 km/h
2440 22-10-2019 15:00:00 14.68333 C 10.31 g/m*3 14.68 C 0.26667 km/h
2441 22-10-2019 16:00:00 13.78333 C 10.36 g/m*3 13.78 C 0 km/h
2442 22-10-2019 17:00:00 13.31667 C 10.17 g/m*3 13.32 C 0.13333 km/h
2443 22-10-2019 18:00:00 12.55 C 9.64 g/m*3 12.55 C 1.33333 km/h
2444 22-10-2019 19:00:00 11.74167 C 9.48 g/m*3 11.74 C 0 km/h
2445 22-10-2019 20:00:00 10.70833 C 9.16 g/m*3 10.71 C 0 km/h
2446 22-10-2019 21:00:00 10.125 C 8.96 g/m*3 10.13 C 0 km/h
2447 22-10-2019 22:00:00 10.20833 C 9.13 g/m*3 10.21 C 0 km/h
2448 22-10-2019 23:00:00 9.9 C 8.94 g/m*3 9.9 C 0 km/h
2449 23-10-2019 00:00:00 8.98333 C 8.43 g/m*3 8.98 C 0 km/h
2450 23-10-2019 01:00:00 8.61667 C 8.26 g/m*3 8.62 C 0 km/h
Sensor: Nr:Datum:Temp:Abs-Feuchte:Windchill:Wind:
Aussen-T/F 2451 23-10-2019 02:00:00 8.20833 C 8.04 g/m*3 8.21 C 0 km/h
2452 23-10-2019 03:00:00 8.00833 C 8 g/m*3 8.01 C 0 km/h
2453 23-10-2019 04:00:00 7.83333 C 7.93 g/m*3 7.83 C 0 km/h
2454 23-10-2019 05:00:00 8.16667 C 8.11 g/m*3 8.17 C 0 km/h
2455 23-10-2019 06:00:00 8.13333 C 8.09 g/m*3 8.13 C 0 km/h
2456 23-10-2019 07:00:00 7.95 C 7.99 g/m*3 7.95 C 0 km/h
2457 23-10-2019 08:00:00 7.86667 C 7.97 g/m*3 7.87 C 0.13333 km/h
2458 23-10-2019 09:00:00 8.70833 C 8.47 g/m*3 8.71 C 1.06667 km/h
2459 23-10-2019 10:00:00 9.60833 C 8.98 g/m*3 9.61 C 0.13333 km/h
2460 23-10-2019 11:00:00 10.98333 C 9.8 g/m*3 10.98 C 3.20833 km/h
2461 23-10-2019 12:00:00 11.825 C 10.16 g/m*3 11.83 C 7.11667 km/h
2462 23-10-2019 13:00:00 12.95833 C 10.43 g/m*3 12.96 C 5.50833 km/h
2463 23-10-2019 14:00:00 13.84167 C 10.72 g/m*3 13.84 C 6.975 km/h
2464 23-10-2019 15:00:00 14.3 C 10.94 g/m*3 14.3 C 3.34167 km/h
2465 23-10-2019 16:00:00 14.79167 C 11.3 g/m*3 14.79 C 0.93333 km/h
2466 23-10-2019 17:00:00 14.94167 C 11.51 g/m*3 14.94 C 0.13333 km/h
2467 23-10-2019 18:00:00 14.175 C 11.18 g/m*3 14.18 C 0 km/h
2468 23-10-2019 19:00:00 13.39167 C 10.86 g/m*3 13.39 C 0.13333 km/h
2469 23-10-2019 20:00:00 13.24167 C 10.86 g/m*3 13.24 C 0 km/h
2470 23-10-2019 21:00:00 13.19167 C 10.9 g/m*3 13.19 C 0 km/h
2471 23-10-2019 22:00:00 12.94167 C 10.73 g/m*3 12.94 C 0 km/h
2472 23-10-2019 23:00:00 12.76667 C 10.62 g/m*3 12.77 C 0 km/h
2473 24-10-2019 00:00:00 12.39167 C 10.44 g/m*3 12.39 C 0 km/h
2474 24-10-2019 01:00:00 12.15833 C 10.33 g/m*3 12.16 C 0.66667 km/h
2475 24-10-2019 02:00:00 12.25833 C 10.43 g/m*3 12.26 C 0 km/h
Sensor: Nr:Datum:Temp:Abs-Feuchte:Windchill:Wind:
Aussen-T/F 2476 24-10-2019 03:00:00 11.81667 C 10.11 g/m*3 11.82 C 0 km/h
2477 24-10-2019 04:00:00 11.59167 C 10.06 g/m*3 11.59 C 0 km/h
2478 24-10-2019 05:00:00 11.85 C 10.24 g/m*3 11.85 C 0.13333 km/h
2479 24-10-2019 06:00:00 11.89167 C 10.28 g/m*3 11.89 C 0.53333 km/h
2480 24-10-2019 07:00:00 12.33333 C 10.56 g/m*3 12.33 C 0.66667 km/h
2481 24-10-2019 08:00:00 12.49167 C 10.66 g/m*3 12.49 C 0.66667 km/h
2482 24-10-2019 09:00:00 13.01667 C 11.01 g/m*3 13.02 C 0 km/h
2483 24-10-2019 10:00:00 13.58333 C 11.38 g/m*3 13.58 C 0.93333 km/h
2484 24-10-2019 11:00:00 14.51667 C 11.65 g/m*3 14.52 C 0.53333 km/h
2485 24-10-2019 12:00:00 15.175 C 12 g/m*3 15.18 C 0 km/h
2486 24-10-2019 13:00:00 16.45833 C 12.57 g/m*3 16.46 C 1.74167 km/h
2487 24-10-2019 14:00:00 17.46667 C 12.93 g/m*3 17.47 C 0.66667 km/h
2488 24-10-2019 15:00:00 18.525 C 13.34 g/m*3 18.52 C 1.2 km/h
2489 24-10-2019 16:00:00 18.44167 C 12.48 g/m*3 18.44 C 4.01667 km/h
2490 24-10-2019 17:00:00 17.525 C 12.19 g/m*3 17.52 C 2.28333 km/h
2491 24-10-2019 18:00:00 15.70833 C 11.42 g/m*3 15.71 C 1.86667 km/h
2492 24-10-2019 19:00:00 14.69167 C 11.11 g/m*3 14.69 C 1.06667 km/h
2493 24-10-2019 20:00:00 13.85833 C 10.81 g/m*3 13.86 C 0.66667 km/h
2494 24-10-2019 21:00:00 13.54167 C 10.67 g/m*3 13.54 C 0.26667 km/h
2495 24-10-2019 22:00:00 13.075 C 10.53 g/m*3 13.08 C 0 km/h
2496 24-10-2019 23:00:00 13.18333 C 10.74 g/m*3 13.18 C 0 km/h
2497 25-10-2019 00:00:00 12.40833 C 10.23 g/m*3 12.41 C 0 km/h
2498 25-10-2019 01:00:00 11.95 C 10.09 g/m*3 11.95 C 0 km/h
2499 25-10-2019 02:00:00 11.49167 C 9.82 g/m*3 11.49 C 1.075 km/h
2500 25-10-2019 03:00:00 12.34167 C 10.22 g/m*3 12.34 C 1.875 km/h
Sensor: Nr:Datum:Temp:Abs-Feuchte:Windchill:Wind:
Aussen-T/F 2501 25-10-2019 04:00:00 12.88333 C 10.32 g/m*3 12.88 C 1.73333 km/h
2502 25-10-2019 05:00:00 12.65833 C 10.09 g/m*3 12.66 C 2.95 km/h
2503 25-10-2019 06:00:00 12.63333 C 10.2 g/m*3 12.63 C 1.86667 km/h
2504 25-10-2019 07:00:00 13.175 C 10.39 g/m*3 13.18 C 2.40833 km/h
2505 25-10-2019 08:00:00 12.68333 C 10.19 g/m*3 12.68 C 1.46667 km/h
2506 25-10-2019 09:00:00 12.93333 C 10.5 g/m*3 12.93 C 1.86667 km/h
2507 25-10-2019 10:00:00 13.775 C 10.6 g/m*3 13.78 C 6.30833 km/h
2508 25-10-2019 11:00:00 14.90833 C 10.52 g/m*3 14.91 C 9.40833 km/h
2509 25-10-2019 12:00:00 15.275 C 10.34 g/m*3 15.28 C 9.95833 km/h
2510 25-10-2019 13:00:00 16.19167 C 10.17 g/m*3 16.19 C 9.275 km/h
2511 25-10-2019 14:00:00 16.29167 C 10.24 g/m*3 16.29 C 7.525 km/h
2512 25-10-2019 15:00:00 16.43333 C 9.86 g/m*3 16.43 C 9.68333 km/h
2513 25-10-2019 16:00:00 16.05833 C 10 g/m*3 16.06 C 6.575 km/h
2514 25-10-2019 17:00:00 14.56667 C 10.21 g/m*3 14.57 C 0.66667 km/h
2515 25-10-2019 18:00:00 13.01667 C 9.81 g/m*3 13.02 C 0.8 km/h
2516 25-10-2019 19:00:00 11.99167 C 9.58 g/m*3 11.99 C 0.13333 km/h
2517 25-10-2019 20:00:00 11.45 C 9.4 g/m*3 11.45 C 0 km/h
2518 25-10-2019 21:00:00 11.025 C 9.26 g/m*3 11.03 C 0 km/h
2519 25-10-2019 22:00:00 11.3 C 9.56 g/m*3 11.3 C 0.53333 km/h
2520 25-10-2019 23:00:00 12.46667 C 10.12 g/m*3 12.47 C 1.6 km/h
2521 26-10-2019 00:00:00 13.48333 C 10.42 g/m*3 13.48 C 1.46667 km/h
2522 26-10-2019 01:00:00 13.675 C 10.41 g/m*3 13.68 C 1.2 km/h
2523 26-10-2019 02:00:00 13.53333 C 10.28 g/m*3 13.53 C 1.06667 km/h
2524 26-10-2019 03:00:00 12.26667 C 9.88 g/m*3 12.27 C 0.53333 km/h
2525 26-10-2019 04:00:00 11.59167 C 9.73 g/m*3 11.59 C 1.74167 km/h
Sensor: Nr:Datum:Temp:Abs-Feuchte:Windchill:Wind:
Aussen-T/F 2526 26-10-2019 05:00:00 12.29167 C 10.1 g/m*3 12.29 C 2.28333 km/h
2527 26-10-2019 06:00:00 11.86667 C 9.86 g/m*3 11.87 C 0.13333 km/h
2528 26-10-2019 07:00:00 11.1 C 9.47 g/m*3 11.1 C 0 km/h
2529 26-10-2019 08:00:00 10.15833 C 8.99 g/m*3 10.16 C 0 km/h
2530 26-10-2019 09:00:00 10.325 C 9.21 g/m*3 10.33 C 0 km/h
2531 26-10-2019 10:00:00 11.26667 C 9.84 g/m*3 11.27 C 0 km/h
2532 26-10-2019 11:00:00 12.475 C 10.63 g/m*3 12.48 C 0 km/h
2533 26-10-2019 12:00:00 13.81667 C 11.34 g/m*3 13.82 C 1.2 km/h
2534 26-10-2019 13:00:00 15.18333 C 11.66 g/m*3 15.18 C 0.93333 km/h
2535 26-10-2019 14:00:00 16.53333 C 11.97 g/m*3 16.53 C 2.26667 km/h
2536 26-10-2019 15:00:00 16.78333 C 12.09 g/m*3 16.78 C 0.66667 km/h
2537 26-10-2019 16:00:00 16.53333 C 12.06 g/m*3 16.53 C 1.06667 km/h
2538 26-10-2019 17:00:00 15.31667 C 11.43 g/m*3 15.32 C 1.6 km/h
2539 26-10-2019 18:00:00 13.925 C 10.7 g/m*3 13.93 C 0.53333 km/h
2540 26-10-2019 19:00:00 12.975 C 10.3 g/m*3 12.98 C 0.26667 km/h
2541 26-10-2019 20:00:00 12.86667 C 10.42 g/m*3 12.87 C 0.4 km/h
2542 26-10-2019 21:00:00 12.99167 C 10.44 g/m*3 12.99 C 0 km/h
2543 26-10-2019 22:00:00 12.64167 C 10.32 g/m*3 12.64 C 0 km/h
2544 26-10-2019 23:00:00 12.625 C 10.4 g/m*3 12.63 C 0.4 km/h
2545 27-10-2019 00:00:00 13.45833 C 10.54 g/m*3 13.46 C 3.35 km/h
2546 27-10-2019 01:00:00 13.74167 C 10.39 g/m*3 13.74 C 0.8 km/h
2547 27-10-2019 02:00:00 12.98333 C 10.14 g/m*3 12.98 C 2 km/h
2548 27-10-2019 04:00:00 12.17391 C 9.93 g/m*3 12.17 C 1.04348 km/h
2549 27-10-2019 05:00:00 12.87692 C 10.27 g/m*3 12.88 C 0.98462 km/h
2550 27-10-2019 06:00:00 14.125 C 10.45 g/m*3 14.13 C 7.10833 km/h
Sensor: Nr:Datum:Temp:Abs-Feuchte:Windchill:Wind:
Aussen-T/F 2551 27-10-2019 07:00:00 14.16667 C 10.64 g/m*3 14.17 C 9.66667 km/h
2552 27-10-2019 08:00:00 11.975 C 9.77 g/m*3 11.98 C 10.89167 km/h
2553 27-10-2019 09:00:00 10.425 C 8.96 g/m*3 9.15 C 9.93333 km/h
2554 27-10-2019 10:00:00 9.44167 C 8.49 g/m*3 9.44 C 1.6 km/h
2555 27-10-2019 11:00:00 9.75833 C 8.74 g/m*3 9.76 C 0.93333 km/h
2556 27-10-2019 12:00:00 10 C 8.87 g/m*3 10 C 0.4 km/h
2557 27-10-2019 13:00:00 9.9 C 8.84 g/m*3 9.9 C 0 km/h
2558 27-10-2019 14:00:00 9.53333 C 8.6 g/m*3 9.53 C 0.4 km/h
2559 27-10-2019 15:00:00 9.43333 C 8.61 g/m*3 9.43 C 0 km/h
2560 27-10-2019 16:00:00 9.16667 C 8.47 g/m*3 9.17 C 0 km/h
2561 27-10-2019 17:00:00 8.55 C 8.17 g/m*3 8.55 C 0 km/h
2562 27-10-2019 18:00:00 8.35 C 8.12 g/m*3 8.35 C 0 km/h
2563 27-10-2019 19:00:00 8.275 C 8.08 g/m*3 8.28 C 0 km/h
2564 27-10-2019 20:00:00 7.50833 C 7.69 g/m*3 7.51 C 0 km/h
2565 27-10-2019 21:00:00 6.91667 C 7.4 g/m*3 6.92 C 0.4 km/h
2566 27-10-2019 22:00:00 5.925 C 6.93 g/m*3 5.93 C 0 km/h
2567 27-10-2019 23:00:00 5.125 C 6.6 g/m*3 5.13 C 0.26667 km/h
2568 28-10-2019 00:00:00 5.325 C 6.73 g/m*3 5.33 C 0.13333 km/h
2569 28-10-2019 01:00:00 5.8 C 6.95 g/m*3 5.8 C 0.13333 km/h
2570 28-10-2019 02:00:00 5.59167 C 6.85 g/m*3 5.59 C 0 km/h
2571 28-10-2019 03:00:00 5.44167 C 6.79 g/m*3 5.44 C 0.26667 km/h
2572 28-10-2019 04:00:00 5.30833 C 6.73 g/m*3 5.31 C 0 km/h
2573 28-10-2019 05:00:00 5.2 C 6.68 g/m*3 5.2 C 0 km/h
2574 28-10-2019 06:00:00 5.13333 C 6.65 g/m*3 5.13 C 0 km/h
2575 28-10-2019 07:00:00 5.26667 C 6.71 g/m*3 5.27 C 0.8 km/h
Sensor: Nr:Datum:Temp:Abs-Feuchte:Windchill:Wind:
Aussen-T/F 2576 28-10-2019 08:00:00 5.51667 C 6.84 g/m*3 5.52 C 2 km/h
2577 28-10-2019 09:00:00 5.8 C 7.02 g/m*3 5.8 C 1.2 km/h
2578 28-10-2019 10:00:00 6.18333 C 7.2 g/m*3 6.18 C 2.26667 km/h
2579 28-10-2019 11:00:00 6.38333 C 7.29 g/m*3 6.38 C 1.6 km/h
2580 28-10-2019 12:00:00 6.5 C 7.33 g/m*3 5.48 C 5.88333 km/h
2581 28-10-2019 13:00:00 6.725 C 7.38 g/m*3 6.73 C 1.86667 km/h
2582 28-10-2019 14:00:00 7.39167 C 7.68 g/m*3 7.39 C 0.13333 km/h
2583 28-10-2019 15:00:00 8.01667 C 7.88 g/m*3 8.02 C 0.13333 km/h
2584 28-10-2019 16:00:00 7.79167 C 7.74 g/m*3 7.79 C 0 km/h
2585 28-10-2019 17:00:00 7 C 7.39 g/m*3 7 C 0 km/h
2586 28-10-2019 18:00:00 7.175 C 7.52 g/m*3 7.18 C 0 km/h
2587 28-10-2019 19:00:00 7.15833 C 7.52 g/m*3 7.16 C 0 km/h
2588 28-10-2019 20:00:00 6.99167 C 7.47 g/m*3 6.99 C 0 km/h
2589 28-10-2019 21:00:00 6.94167 C 7.46 g/m*3 6.94 C 0 km/h
2590 28-10-2019 22:00:00 6.78333 C 7.41 g/m*3 6.78 C 0.53333 km/h
2591 28-10-2019 23:00:00 6.7 C 7.33 g/m*3 6.7 C 1.73333 km/h
2592 29-10-2019 00:00:00 6.68333 C 7.29 g/m*3 6.68 C 2.4 km/h
2593 29-10-2019 01:00:00 6.41667 C 7.16 g/m*3 6.42 C 3.73333 km/h
2594 29-10-2019 02:00:00 6.3 C 7.11 g/m*3 6.3 C 0.26667 km/h
2595 29-10-2019 03:00:00 6.275 C 7.09 g/m*3 6.28 C 1.2 km/h
2596 29-10-2019 04:00:00 6.2 C 7.06 g/m*3 6.2 C 0.93333 km/h
2597 29-10-2019 05:00:00 6.2 C 7.06 g/m*3 6.2 C 1.46667 km/h
2598 29-10-2019 06:00:00 6.10833 C 7 g/m*3 6.11 C 1.06667 km/h
2599 29-10-2019 07:00:00 5.975 C 6.91 g/m*3 5.98 C 0.8 km/h
2600 29-10-2019 08:00:00 6.225 C 7.04 g/m*3 6.23 C 0.66667 km/h
Sensor: Nr:Datum:Temp:Abs-Feuchte:Windchill:Wind:
Aussen-T/F 2601 29-10-2019 09:00:00 6.69167 C 7.2 g/m*3 6.69 C 0 km/h
2602 29-10-2019 10:00:00 7.475 C 7.41 g/m*3 7.48 C 0.53333 km/h
2603 29-10-2019 11:00:00 8.23333 C 7.6 g/m*3 8.23 C 0 km/h
2604 29-10-2019 12:00:00 8.925 C 7.75 g/m*3 8.93 C 0.66667 km/h
2605 29-10-2019 13:00:00 9.74167 C 7.8 g/m*3 9.74 C 3.88333 km/h
2606 29-10-2019 14:00:00 10.59167 C 7.45 g/m*3 9.92 C 6.96667 km/h
2607 29-10-2019 15:00:00 9.575 C 7.35 g/m*3 9.57 C 1.74167 km/h
2608 29-10-2019 16:00:00 8.275 C 7.43 g/m*3 8.28 C 0.4 km/h
2609 29-10-2019 17:00:00 6.94167 C 6.9 g/m*3 6.94 C 1.86667 km/h
2610 29-10-2019 18:00:00 5.96667 C 6.58 g/m*3 5.97 C 0.66667 km/h
2611 29-10-2019 19:00:00 4.96667 C 6.27 g/m*3 4.97 C 0 km/h
2612 29-10-2019 20:00:00 4.425 C 6.15 g/m*3 4.43 C 0 km/h
2613 29-10-2019 21:00:00 3.63333 C 5.84 g/m*3 3.63 C 0 km/h
2614 29-10-2019 22:00:00 2.99167 C 5.65 g/m*3 2.99 C 0 km/h
2615 29-10-2019 23:00:00 2.775 C 5.61 g/m*3 2.78 C 0 km/h
2616 30-10-2019 00:00:00 2.20833 C 5.4 g/m*3 2.21 C 0 km/h
2617 30-10-2019 01:00:00 1.98333 C 5.33 g/m*3 1.98 C 0 km/h
2618 30-10-2019 02:00:00 1.98333 C 5.33 g/m*3 1.98 C 0 km/h
2619 30-10-2019 03:00:00 1.51667 C 5.16 g/m*3 1.52 C 0 km/h
2620 30-10-2019 04:00:00 1.14167 C 5.05 g/m*3 1.14 C 0 km/h
2621 30-10-2019 05:00:00 1.35 C 5.14 g/m*3 1.35 C 0.26667 km/h
2622 30-10-2019 06:00:00 1.4 C 5.17 g/m*3 1.4 C 0 km/h
2623 30-10-2019 07:00:00 1.45833 C 5.19 g/m*3 1.46 C 0.26667 km/h
2624 30-10-2019 08:00:00 1.85833 C 5.34 g/m*3 1.86 C 0.26667 km/h
2625 30-10-2019 09:00:00 2.4 C 5.54 g/m*3 2.4 C 0.13333 km/h
Sensor: Nr:Datum:Temp:Abs-Feuchte:Windchill:Wind:
Aussen-T/F 2626 30-10-2019 10:00:00 3.69167 C 6.09 g/m*3 3.69 C 0 km/h
2627 30-10-2019 11:00:00 4.94167 C 6.63 g/m*3 4.94 C 0.66667 km/h
2628 30-10-2019 12:00:00 5.71667 C 6.9 g/m*3 5.72 C 0.26667 km/h
2629 30-10-2019 13:00:00 6.63333 C 6.88 g/m*3 6.63 C 2.66667 km/h
2630 30-10-2019 14:00:00 7.58333 C 6.8 g/m*3 7.58 C 2.675 km/h
2631 30-10-2019 15:00:00 7.75 C 6.86 g/m*3 7.75 C 0.4 km/h
2632 30-10-2019 16:00:00 7.01667 C 6.83 g/m*3 7.02 C 0 km/h
2633 30-10-2019 17:00:00 5.76667 C 6.37 g/m*3 5.77 C 0 km/h
2634 30-10-2019 18:00:00 4.46667 C 5.94 g/m*3 4.47 C 0.26667 km/h
2635 30-10-2019 19:00:00 3.8 C 5.77 g/m*3 3.8 C 0 km/h
2636 30-10-2019 20:00:00 3.23333 C 5.64 g/m*3 3.23 C 0.66667 km/h
2637 30-10-2019 21:00:00 2.70833 C 5.5 g/m*3 2.71 C 0.53333 km/h
2638 30-10-2019 22:00:00 2.25 C 5.35 g/m*3 2.25 C 0.13333 km/h
2639 30-10-2019 23:00:00 1.80833 C 5.21 g/m*3 1.81 C 0 km/h
2640 31-10-2019 00:00:00 1.025 C 4.94 g/m*3 1.02 C 0 km/h
2641 31-10-2019 01:00:00 0.89167 C 4.94 g/m*3 0.89 C 0 km/h
2642 31-10-2019 02:00:00 0.53333 C 4.83 g/m*3 0.53 C 0 km/h
2643 31-10-2019 03:00:00 0.28333 C 4.74 g/m*3 0.28 C 0 km/h
2644 31-10-2019 04:00:00 0.06667 C 4.67 g/m*3 0.07 C 0 km/h
2645 31-10-2019 05:00:00 -0.325 C 4.55 g/m*3 -0.33 C 0 km/h
2646 31-10-2019 06:00:00 -0.50833 C 4.49 g/m*3 -0.51 C 0 km/h
2647 31-10-2019 07:00:00 -0.75 C 4.43 g/m*3 -0.75 C 0 km/h
2648 31-10-2019 08:00:00 -0.61667 C 4.48 g/m*3 -0.62 C 0 km/h
2649 31-10-2019 09:00:00 0.05 C 4.72 g/m*3 0.05 C 0 km/h
2650 31-10-2019 10:00:00 1.13333 C 5.09 g/m*3 1.13 C 0.93333 km/h
Sensor: Nr:Datum:Temp:Abs-Feuchte:Windchill:Wind:
Aussen-T/F 2651 31-10-2019 11:00:00 2.85833 C 5.76 g/m*3 2.86 C 0.53333 km/h
2652 31-10-2019 12:00:00 4.16667 C 6.28 g/m*3 4.17 C 1.2 km/h
2653 31-10-2019 13:00:00 5.60833 C 6.68 g/m*3 5.61 C 4.55833 km/h
2654 31-10-2019 14:00:00 7.29167 C 6.65 g/m*3 7.29 C 3.875 km/h
2655 31-10-2019 15:00:00 7.44167 C 6.65 g/m*3 7.44 C 2.54167 km/h
2656 31-10-2019 16:00:00 6.125 C 6.4 g/m*3 6.13 C 1.73333 km/h
2657 31-10-2019 17:00:00 4.63333 C 5.86 g/m*3 4.63 C 0.8 km/h
2658 31-10-2019 18:00:00 3.70833 C 5.55 g/m*3 3.71 C 0 km/h
2659 31-10-2019 19:00:00 3.175 C 5.44 g/m*3 3.18 C 0 km/h
2660 31-10-2019 20:00:00 2.325 C 5.23 g/m*3 2.33 C 0 km/h
2661 31-10-2019 21:00:00 1.71667 C 5.11 g/m*3 1.72 C 0 km/h
2662 31-10-2019 22:00:00 1.48333 C 5.06 g/m*3 1.48 C 0 km/h
2663 31-10-2019 23:00:00 1.30833 C 5.04 g/m*3 1.31 C 0 km/h
2664 01-11-2019 00:00:00 0.88333 C 4.89 g/m*3 0.88 C 0 km/h
2665 01-11-2019 01:00:00 0.6 C 4.81 g/m*3 0.6 C 0 km/h
2666 01-11-2019 02:00:00 0.55833 C 4.83 g/m*3 0.56 C 0 km/h
2667 01-11-2019 03:00:00 0.44167 C 4.8 g/m*3 0.44 C 0 km/h
2668 01-11-2019 04:00:00 1.03333 C 5.02 g/m*3 1.03 C 0 km/h
2669 01-11-2019 05:00:00 2.16667 C 5.45 g/m*3 2.17 C 0 km/h
2670 01-11-2019 06:00:00 2.85833 C 5.71 g/m*3 2.86 C 0 km/h
2671 01-11-2019 07:00:00 3.55 C 5.98 g/m*3 3.55 C 0 km/h
2672 01-11-2019 08:00:00 4.35833 C 6.32 g/m*3 4.36 C 0 km/h
2673 01-11-2019 09:00:00 5.40833 C 6.77 g/m*3 5.41 C 0 km/h
2674 01-11-2019 10:00:00 6.38333 C 7.22 g/m*3 6.38 C 0.8 km/h
2675 01-11-2019 11:00:00 7.29167 C 7.55 g/m*3 7.29 C 1.86667 km/h
Sensor: Nr:Datum:Temp:Abs-Feuchte:Windchill:Wind:
Aussen-T/F 2676 01-11-2019 12:00:00 8.09167 C 7.76 g/m*3 8.09 C 3.35 km/h
2677 01-11-2019 13:00:00 8.53333 C 7.96 g/m*3 8.53 C 1.06667 km/h
2678 01-11-2019 14:00:00 8.73333 C 8.2 g/m*3 8.73 C 1.33333 km/h
2679 01-11-2019 15:00:00 8.7 C 8.27 g/m*3 8.7 C 1.46667 km/h
2680 01-11-2019 16:00:00 8.8 C 8.36 g/m*3 8.8 C 0 km/h
2681 01-11-2019 17:00:00 8.85833 C 8.39 g/m*3 8.86 C 1.2 km/h
2682 01-11-2019 18:00:00 8.86667 C 8.41 g/m*3 8.87 C 0.4 km/h
2683 01-11-2019 19:00:00 8.93333 C 8.52 g/m*3 8.93 C 0 km/h
2684 01-11-2019 20:00:00 9.225 C 8.68 g/m*3 9.23 C 0 km/h
2685 01-11-2019 21:00:00 9.64167 C 8.92 g/m*3 9.64 C 0 km/h
2686 01-11-2019 22:00:00 10.15 C 9.3 g/m*3 10.15 C 0.26667 km/h
2687 01-11-2019 23:00:00 10.525 C 9.52 g/m*3 10.53 C 0 km/h
2688 02-11-2019 00:00:00 11.18333 C 9.92 g/m*3 11.18 C 0 km/h
2689 02-11-2019 01:00:00 11.96667 C 10.42 g/m*3 11.97 C 0.93333 km/h
2690 02-11-2019 02:00:00 12.21667 C 10.59 g/m*3 12.22 C 1.33333 km/h
2691 02-11-2019 03:00:00 12.28333 C 10.63 g/m*3 12.28 C 2.13333 km/h
2692 02-11-2019 04:00:00 12.25 C 10.61 g/m*3 12.25 C 2 km/h
2693 02-11-2019 05:00:00 12.65833 C 10.88 g/m*3 12.66 C 1.46667 km/h
2694 02-11-2019 06:00:00 13.1 C 11.18 g/m*3 13.1 C 2.94167 km/h
2695 02-11-2019 07:00:00 13.48333 C 11.45 g/m*3 13.48 C 0.93333 km/h
2696 02-11-2019 08:00:00 13.84167 C 11.71 g/m*3 13.84 C 2.275 km/h
2697 02-11-2019 09:00:00 14.30833 C 12.03 g/m*3 14.31 C 12.21667 km/h
2698 02-11-2019 10:00:00 14.925 C 11.87 g/m*3 14.93 C 14.625 km/h
2699 02-11-2019 11:00:00 15.74167 C 11.57 g/m*3 15.74 C 16.5 km/h
2700 02-11-2019 12:00:00 16.15833 C 11.05 g/m*3 16.16 C 20.23333 km/h
Sensor: Nr:Datum:Temp:Abs-Feuchte:Windchill:Wind:
Aussen-T/F 2701 02-11-2019 13:00:00 16.04167 C 10.29 g/m*3 16.04 C 15.03333 km/h
2702 02-11-2019 14:00:00 15.8 C 10.01 g/m*3 15.8 C 10.35833 km/h
2703 02-11-2019 15:00:00 15.10833 C 9.97 g/m*3 15.11 C 5.35833 km/h
2704 02-11-2019 16:00:00 14.55833 C 9.75 g/m*3 14.56 C 8.06667 km/h
2705 02-11-2019 17:00:00 13.78333 C 9.71 g/m*3 13.78 C 11.28333 km/h
2706 02-11-2019 18:00:00 11.90833 C 9.55 g/m*3 11.91 C 2.66667 km/h
2707 02-11-2019 19:00:00 11.425 C 9.44 g/m*3 11.43 C 2.13333 km/h
2708 02-11-2019 20:00:00 11.30833 C 9.3 g/m*3 11.31 C 4.01667 km/h
2709 02-11-2019 21:00:00 11.15 C 8.96 g/m*3 11.15 C 4.55 km/h
2710 02-11-2019 22:00:00 10.98333 C 8.84 g/m*3 10.98 C 1.06667 km/h
2711 02-11-2019 23:00:00 10.56667 C 8.68 g/m*3 10.57 C 3.625 km/h
2712 03-11-2019 00:00:00 10.475 C 8.55 g/m*3 10.48 C 0.53333 km/h
2713 03-11-2019 01:00:00 10.41667 C 8.7 g/m*3 10.42 C 0.4 km/h
2714 03-11-2019 02:00:00 10.03333 C 8.62 g/m*3 10.03 C 0.26667 km/h
2715 03-11-2019 03:00:00 10 C 8.75 g/m*3 10 C 0.8 km/h
2716 03-11-2019 04:00:00 10.26667 C 9.02 g/m*3 10.27 C 0.66667 km/h
2717 03-11-2019 05:00:00 10.25 C 9.07 g/m*3 10.25 C 0.8 km/h
2718 03-11-2019 06:00:00 10.3 C 9.19 g/m*3 10.3 C 0 km/h
2719 03-11-2019 07:00:00 10.325 C 9.21 g/m*3 10.33 C 0 km/h
2720 03-11-2019 08:00:00 10.48333 C 9.37 g/m*3 10.48 C 0 km/h
2721 03-11-2019 09:00:00 11.3 C 9.89 g/m*3 11.3 C 0 km/h
2722 03-11-2019 10:00:00 12.26667 C 10.36 g/m*3 12.27 C 0.93333 km/h
2723 03-11-2019 11:00:00 13.53333 C 10.65 g/m*3 13.53 C 2.675 km/h
2724 03-11-2019 12:00:00 14.85 C 10.6 g/m*3 14.85 C 4.55 km/h
2725 03-11-2019 13:00:00 15.39167 C 10.7 g/m*3 15.39 C 6.30833 km/h
Sensor: Nr:Datum:Temp:Abs-Feuchte:Windchill:Wind:
Aussen-T/F 2726 03-11-2019 14:00:00 15.46667 C 10.78 g/m*3 15.47 C 5.08333 km/h
2727 03-11-2019 15:00:00 14.81667 C 10.57 g/m*3 14.82 C 6.83333 km/h
2728 03-11-2019 16:00:00 14.00833 C 10.41 g/m*3 14.01 C 2 km/h
2729 03-11-2019 17:00:00 13.00833 C 10.25 g/m*3 13.01 C 0.4 km/h
2730 03-11-2019 18:00:00 12.35833 C 10.22 g/m*3 12.36 C 0.13333 km/h
2731 03-11-2019 19:00:00 11.71667 C 9.95 g/m*3 11.72 C 0.53333 km/h
2732 03-11-2019 20:00:00 11.075 C 9.63 g/m*3 11.08 C 0.53333 km/h
2733 03-11-2019 21:00:00 10.75833 C 9.46 g/m*3 10.76 C 1.46667 km/h
2734 03-11-2019 22:00:00 10.7 C 9.43 g/m*3 10.7 C 0.8 km/h
2735 03-11-2019 23:00:00 10.60833 C 9.37 g/m*3 10.61 C 4.96667 km/h
2736 04-11-2019 00:00:00 11.075 C 9.31 g/m*3 11.08 C 10.475 km/h
2737 04-11-2019 01:00:00 11.025 C 9.11 g/m*3 11.03 C 6.44167 km/h
2738 04-11-2019 02:00:00 10.15833 C 8.79 g/m*3 10.16 C 2.00833 km/h
2739 04-11-2019 03:00:00 9.9 C 8.78 g/m*3 9.9 C 1.61667 km/h
2740 04-11-2019 04:00:00 10.18333 C 9.03 g/m*3 10.18 C 2.13333 km/h
2741 04-11-2019 05:00:00 10.38333 C 9.12 g/m*3 9.94 C 5.9 km/h
2742 04-11-2019 06:00:00 9.79167 C 8.76 g/m*3 9.79 C 2.8 km/h
2743 04-11-2019 07:00:00 9.26667 C 8.51 g/m*3 9.27 C 2.66667 km/h
2744 04-11-2019 08:00:00 9.5 C 8.69 g/m*3 9.5 C 0.13333 km/h
2745 04-11-2019 09:00:00 10.00833 C 8.83 g/m*3 10.01 C 1.475 km/h
2746 04-11-2019 10:00:00 10.875 C 9.14 g/m*3 10.88 C 1.73333 km/h
2747 04-11-2019 11:00:00 10.91667 C 9.26 g/m*3 10.92 C 1.33333 km/h
2748 04-11-2019 12:00:00 11.25 C 9.46 g/m*3 11.25 C 1.86667 km/h
2749 04-11-2019 13:00:00 12.025 C 9.75 g/m*3 12.03 C 5.23333 km/h
2750 04-11-2019 14:00:00 12.58333 C 9.58 g/m*3 12.58 C 13.56667 km/h
Sensor: Nr:Datum:Temp:Abs-Feuchte:Windchill:Wind:
Aussen-T/F 2751 04-11-2019 15:00:00 12.625 C 9.37 g/m*3 12.63 C 6.31667 km/h
2752 04-11-2019 16:00:00 11.44167 C 9.06 g/m*3 11.44 C 0.93333 km/h
2753 04-11-2019 17:00:00 10.275 C 8.76 g/m*3 10.28 C 0.66667 km/h
2754 04-11-2019 18:00:00 9.60833 C 8.5 g/m*3 9.61 C 0 km/h
2755 04-11-2019 19:00:00 9.18333 C 8.43 g/m*3 9.18 C 0.94167 km/h
2756 04-11-2019 20:00:00 9.5 C 8.71 g/m*3 9.5 C 0 km/h
2757 04-11-2019 21:00:00 9.24167 C 8.58 g/m*3 9.24 C 0.13333 km/h
2758 04-11-2019 22:00:00 8.29167 C 8.07 g/m*3 8.29 C 0.4 km/h
2759 04-11-2019 23:00:00 8.89167 C 8.48 g/m*3 8.42 C 5.24167 km/h
2760 05-11-2019 00:00:00 9.275 C 8.49 g/m*3 9.28 C 4.275 km/h
2761 05-11-2019 01:00:00 9.14167 C 8.29 g/m*3 9.14 C 3.74167 km/h
2762 05-11-2019 02:00:00 9.225 C 8.34 g/m*3 9.23 C 1.875 km/h
2763 05-11-2019 03:00:00 9.40833 C 8.27 g/m*3 8.9 C 5.625 km/h
2764 05-11-2019 04:00:00 9.46667 C 8.14 g/m*3 9.47 C 4.40833 km/h
2765 05-11-2019 05:00:00 9.525 C 8.15 g/m*3 9.53 C 4.95833 km/h
2766 05-11-2019 06:00:00 9.25 C 8.13 g/m*3 9.25 C 4.14167 km/h
2767 05-11-2019 07:00:00 9.15833 C 8.1 g/m*3 9.16 C 1.86667 km/h
2768 05-11-2019 08:00:00 8.95833 C 8.07 g/m*3 8.96 C 2.675 km/h
2769 05-11-2019 09:00:00 9.45833 C 8.15 g/m*3 9.46 C 2.26667 km/h
2770 05-11-2019 10:00:00 10.48333 C 8.33 g/m*3 10.48 C 3.625 km/h
2771 05-11-2019 11:00:00 11.225 C 8.32 g/m*3 11.23 C 5.5 km/h
2772 05-11-2019 12:00:00 11.83333 C 8.23 g/m*3 11.83 C 9.275 km/h
2773 05-11-2019 13:00:00 11.89167 C 8.41 g/m*3 11.89 C 4.68333 km/h
2774 05-11-2019 14:00:00 12.06667 C 8.62 g/m*3 12.07 C 1.86667 km/h
2775 05-11-2019 15:00:00 11.875 C 8.69 g/m*3 11.88 C 2.14167 km/h
Sensor: Nr:Datum:Temp:Abs-Feuchte:Windchill:Wind:
Aussen-T/F 2776 05-11-2019 16:00:00 10.85833 C 8.62 g/m*3 10.86 C 0 km/h
2777 05-11-2019 17:00:00 9.85833 C 8.46 g/m*3 9.86 C 0.13333 km/h
2778 05-11-2019 18:00:00 9.025 C 8.18 g/m*3 9.03 C 0 km/h
2779 05-11-2019 19:00:00 8.54167 C 8.03 g/m*3 8.54 C 0.13333 km/h
2780 05-11-2019 20:00:00 8.425 C 8.02 g/m*3 8.43 C 0.13333 km/h
2781 05-11-2019 21:00:00 7.95833 C 7.83 g/m*3 7.96 C 0 km/h
2782 05-11-2019 22:00:00 8.00833 C 7.88 g/m*3 8.01 C 0 km/h
2783 05-11-2019 23:00:00 8.11667 C 8 g/m*3 8.12 C 0 km/h
2784 06-11-2019 00:00:00 8.2 C 8.04 g/m*3 8.2 C 0 km/h
2785 06-11-2019 01:00:00 8.2 C 8.04 g/m*3 8.2 C 1.06667 km/h
2786 06-11-2019 02:00:00 8.175 C 8.05 g/m*3 8.18 C 0.26667 km/h
2787 06-11-2019 03:00:00 7.79167 C 7.83 g/m*3 7.79 C 0.13333 km/h
2788 06-11-2019 04:00:00 7.45 C 7.7 g/m*3 7.45 C 0 km/h
2789 06-11-2019 05:00:00 7.49167 C 7.76 g/m*3 7.49 C 0.26667 km/h
2790 06-11-2019 06:00:00 7.65 C 7.84 g/m*3 7.65 C 0.4 km/h
2791 06-11-2019 07:00:00 7.65 C 7.84 g/m*3 7.65 C 0.13333 km/h
2792 06-11-2019 08:00:00 7.975 C 8.01 g/m*3 7.98 C 0.53333 km/h
2793 06-11-2019 09:00:00 8.81667 C 8.42 g/m*3 8.82 C 4.15 km/h
2794 06-11-2019 10:00:00 9.68333 C 8.51 g/m*3 8.83 C 7.13333 km/h
2795 06-11-2019 11:00:00 10.15 C 8.71 g/m*3 9.64 C 6.025 km/h
2796 06-11-2019 12:00:00 10.35 C 8.85 g/m*3 9.87 C 6.03333 km/h
2797 06-11-2019 13:00:00 10.6 C 8.84 g/m*3 9.76 C 7.78333 km/h
2798 06-11-2019 14:00:00 10.43333 C 8.83 g/m*3 10.43 C 4.40833 km/h
2799 06-11-2019 15:00:00 10.24167 C 8.91 g/m*3 10.24 C 0.66667 km/h
2800 06-11-2019 16:00:00 10 C 8.84 g/m*3 10 C 0.13333 km/h
Sensor: Nr:Datum:Temp:Abs-Feuchte:Windchill:Wind:
Aussen-T/F 2801 06-11-2019 17:00:00 9.68333 C 8.75 g/m*3 9.68 C 0 km/h
2802 06-11-2019 18:00:00 9.6 C 8.77 g/m*3 9.6 C 0 km/h
2803 06-11-2019 19:00:00 9.40833 C 8.69 g/m*3 9.41 C 0 km/h
2804 06-11-2019 20:00:00 9.13333 C 8.54 g/m*3 9.13 C 0 km/h
2805 06-11-2019 21:00:00 8.975 C 8.51 g/m*3 8.98 C 0 km/h
2806 06-11-2019 22:00:00 8.9 C 8.42 g/m*3 8.9 C 0 km/h
2807 06-11-2019 23:00:00 8.85833 C 8.47 g/m*3 8.86 C 0.53333 km/h
2808 07-11-2019 00:00:00 8.51667 C 8.29 g/m*3 8.52 C 0 km/h
2809 07-11-2019 01:00:00 8.06667 C 8.05 g/m*3 8.07 C 0 km/h
2810 07-11-2019 02:00:00 7.98333 C 8.01 g/m*3 7.98 C 0 km/h
2811 07-11-2019 03:00:00 7.91667 C 7.98 g/m*3 7.92 C 0 km/h
2812 07-11-2019 04:00:00 7.49167 C 7.76 g/m*3 7.49 C 0 km/h
2813 07-11-2019 05:00:00 7.55 C 7.79 g/m*3 7.55 C 0.4 km/h
2814 07-11-2019 06:00:00 7.375 C 7.7 g/m*3 7.38 C 0 km/h
2815 07-11-2019 07:00:00 7.59167 C 7.84 g/m*3 7.59 C 0.4 km/h
2816 07-11-2019 08:00:00 8.24167 C 8.23 g/m*3 8.24 C 0.26667 km/h
2817 07-11-2019 09:00:00 8.875 C 8.57 g/m*3 8.88 C 1.06667 km/h
2818 07-11-2019 10:00:00 9.29167 C 8.77 g/m*3 9.29 C 3.35 km/h
2819 07-11-2019 11:00:00 9.39167 C 8.69 g/m*3 9.39 C 2.8 km/h
2820 07-11-2019 12:00:00 9.31667 C 8.52 g/m*3 9.32 C 2.95 km/h
2821 07-11-2019 13:00:00 9.625 C 8.55 g/m*3 9.63 C 4.00833 km/h
2822 07-11-2019 14:00:00 9.375 C 8.35 g/m*3 9.38 C 4.41667 km/h
2823 07-11-2019 15:00:00 9.76667 C 8.64 g/m*3 9.77 C 4.41667 km/h
2824 07-11-2019 16:00:00 9.65 C 8.24 g/m*3 7.67 C 13.55833 km/h
2825 07-11-2019 17:00:00 8.55833 C 7.73 g/m*3 7.46 C 7.38333 km/h
Sensor: Nr:Datum:Temp:Abs-Feuchte:Windchill:Wind:
Aussen-T/F 2826 07-11-2019 18:00:00 7.24167 C 7.22 g/m*3 7.24 C 1.075 km/h
2827 07-11-2019 19:00:00 6.76667 C 7.21 g/m*3 6.77 C 0.8 km/h
2828 07-11-2019 20:00:00 6.18333 C 6.96 g/m*3 6.18 C 0.4 km/h
2829 07-11-2019 21:00:00 5.65833 C 6.77 g/m*3 5.66 C 0.13333 km/h
2830 07-11-2019 22:00:00 5.00833 C 6.51 g/m*3 5.01 C 0 km/h
2831 07-11-2019 23:00:00 5.025 C 6.56 g/m*3 5.03 C 0.26667 km/h
2832 08-11-2019 00:00:00 4.675 C 6.38 g/m*3 4.68 C 0.26667 km/h
2833 08-11-2019 01:00:00 4.24167 C 6.2 g/m*3 4.24 C 0.26667 km/h
2834 08-11-2019 02:00:00 3.28333 C 5.82 g/m*3 3.28 C 0 km/h
2835 08-11-2019 03:00:00 3.1 C 5.79 g/m*3 3.1 C 0 km/h
2836 08-11-2019 04:00:00 2.75833 C 5.66 g/m*3 2.76 C 0 km/h
2837 08-11-2019 05:00:00 2.34167 C 5.52 g/m*3 2.34 C 0 km/h
2838 08-11-2019 06:00:00 2.31667 C 5.51 g/m*3 2.32 C 0 km/h
2839 08-11-2019 07:00:00 2.35 C 5.52 g/m*3 2.35 C 0 km/h
2840 08-11-2019 08:00:00 3.05 C 5.81 g/m*3 3.05 C 0 km/h
2841 08-11-2019 09:00:00 3.78333 C 6.1 g/m*3 3.78 C 0.53333 km/h
2842 08-11-2019 10:00:00 4.43333 C 6.4 g/m*3 4.43 C 0.4 km/h
2843 08-11-2019 11:00:00 5.15833 C 6.73 g/m*3 5.16 C 0.8 km/h
2844 08-11-2019 12:00:00 6 C 7.11 g/m*3 6 C 0.8 km/h
2845 08-11-2019 13:00:00 6.8 C 7.44 g/m*3 6.8 C 0.13333 km/h
2846 08-11-2019 14:00:00 7.44167 C 7.63 g/m*3 7.44 C 1.86667 km/h
2847 08-11-2019 15:00:00 7.73333 C 7.71 g/m*3 7.73 C 0 km/h
2848 08-11-2019 16:00:00 7.61667 C 7.63 g/m*3 7.62 C 0 km/h
2849 08-11-2019 17:00:00 6.85833 C 7.29 g/m*3 6.86 C 0 km/h
2850 08-11-2019 18:00:00 6.65 C 7.26 g/m*3 6.65 C 0 km/h
Sensor: Nr:Datum:Temp:Abs-Feuchte:Windchill:Wind:
Aussen-T/F 2851 08-11-2019 19:00:00 6.475 C 7.19 g/m*3 6.48 C 0 km/h
2852 08-11-2019 20:00:00 6.21667 C 7.07 g/m*3 6.22 C 0 km/h
2853 08-11-2019 21:00:00 5.7 C 6.83 g/m*3 5.7 C 0 km/h
2854 08-11-2019 22:00:00 5.39167 C 6.76 g/m*3 5.39 C 0.26667 km/h
2855 08-11-2019 23:00:00 5.49167 C 6.81 g/m*3 5.49 C 2.53333 km/h
2856 09-11-2019 00:00:00 5.34167 C 6.74 g/m*3 4.34 C 5.35 km/h
2857 09-11-2019 01:00:00 5.15833 C 6.66 g/m*3 4.18 C 5.225 km/h
2858 09-11-2019 02:00:00 5.1 C 6.63 g/m*3 3.79 C 6.15833 km/h
2859 09-11-2019 03:00:00 5.125 C 6.65 g/m*3 5.13 C 3.33333 km/h
2860 09-11-2019 04:00:00 4.96667 C 6.58 g/m*3 4.97 C 1.46667 km/h
2861 09-11-2019 05:00:00 4.78333 C 6.51 g/m*3 4.78 C 3.075 km/h
2862 09-11-2019 06:00:00 4.45 C 6.32 g/m*3 3.13 C 5.9 km/h
2863 09-11-2019 07:00:00 3.44167 C 5.88 g/m*3 3.44 C 0.8 km/h
2864 09-11-2019 08:00:00 3.29167 C 5.86 g/m*3 3.29 C 0.13333 km/h
2865 09-11-2019 09:00:00 4.53333 C 6.37 g/m*3 3.46 C 5.25 km/h
2866 09-11-2019 10:00:00 5.65833 C 6.55 g/m*3 3.11 C 11.7 km/h
2867 09-11-2019 11:00:00 5.91667 C 6.56 g/m*3 3.82 C 9.68333 km/h
2868 09-11-2019 12:00:00 6.375 C 6.66 g/m*3 4.51 C 9.00833 km/h
2869 09-11-2019 13:00:00 7.04167 C 6.76 g/m*3 5.39 C 8.59167 km/h
2870 09-11-2019 14:00:00 6.93333 C 6.77 g/m*3 5.67 C 6.96667 km/h
2871 09-11-2019 15:00:00 6.68333 C 6.88 g/m*3 6.68 C 3.20833 km/h
2872 09-11-2019 16:00:00 6.56667 C 6.94 g/m*3 6.57 C 1.33333 km/h
2873 09-11-2019 17:00:00 6.175 C 6.83 g/m*3 6.18 C 0.26667 km/h
2874 09-11-2019 18:00:00 5.375 C 6.48 g/m*3 5.38 C 0.13333 km/h
2875 09-11-2019 19:00:00 4.875 C 6.35 g/m*3 4.88 C 2.00833 km/h
Sensor: Nr:Datum:Temp:Abs-Feuchte:Windchill:Wind:
Aussen-T/F 2876 09-11-2019 20:00:00 4.03333 C 5.94 g/m*3 4.03 C 0 km/h
2877 09-11-2019 21:00:00 3.25833 C 5.73 g/m*3 3.26 C 0 km/h
2878 09-11-2019 22:00:00 2.725 C 5.56 g/m*3 2.73 C 0 km/h
2879 09-11-2019 23:00:00 1.99167 C 5.28 g/m*3 1.99 C 0 km/h
2880 10-11-2019 00:00:00 1.25833 C 5.05 g/m*3 1.26 C 0 km/h
2881 10-11-2019 01:00:00 1.31667 C 5.11 g/m*3 1.32 C 0 km/h
2882 10-11-2019 02:00:00 1.65833 C 5.24 g/m*3 1.66 C 0 km/h
2883 10-11-2019 03:00:00 1.59167 C 5.24 g/m*3 1.59 C 0.53333 km/h
2884 10-11-2019 04:00:00 1.28333 C 5.13 g/m*3 1.28 C 0.8 km/h
2885 10-11-2019 05:00:00 1.38333 C 5.17 g/m*3 1.38 C 0 km/h
2886 10-11-2019 06:00:00 1.70833 C 5.28 g/m*3 1.71 C 2.93333 km/h
2887 10-11-2019 07:00:00 1.61667 C 5.25 g/m*3 1.62 C 1.86667 km/h
2888 10-11-2019 08:00:00 1.81667 C 5.35 g/m*3 1.82 C 0.53333 km/h
2889 10-11-2019 09:00:00 2.25 C 5.52 g/m*3 2.25 C 0.66667 km/h
2890 10-11-2019 10:00:00 2.66667 C 5.7 g/m*3 2.67 C 0.93333 km/h
2891 10-11-2019 11:00:00 3.2 C 5.91 g/m*3 3.2 C 2.26667 km/h
2892 10-11-2019 12:00:00 3.4 C 5.91 g/m*3 2.24 C 5.075 km/h
2893 10-11-2019 13:00:00 3.86667 C 5.99 g/m*3 3.87 C 4.26667 km/h
2894 10-11-2019 14:00:00 4.29167 C 6.06 g/m*3 4.29 C 3.2 km/h
2895 10-11-2019 15:00:00 4.65833 C 6.17 g/m*3 4.66 C 1.86667 km/h
2896 10-11-2019 16:00:00 4.58333 C 6.08 g/m*3 4.58 C 1.46667 km/h
2897 10-11-2019 17:00:00 4.35833 C 6.06 g/m*3 4.36 C 1.2 km/h
2898 10-11-2019 18:00:00 4.275 C 6.07 g/m*3 4.28 C 1.2 km/h
2899 10-11-2019 19:00:00 4.15 C 6.04 g/m*3 4.15 C 1.6 km/h
2900 10-11-2019 20:00:00 4.25 C 6.14 g/m*3 4.25 C 0.26667 km/h
Sensor: Nr:Datum:Temp:Abs-Feuchte:Windchill:Wind:
Aussen-T/F 2901 10-11-2019 21:00:00 4.3 C 6.16 g/m*3 4.3 C 0.26667 km/h
2902 10-11-2019 22:00:00 4.275 C 6.15 g/m*3 4.28 C 0 km/h
2903 10-11-2019 23:00:00 4.36667 C 6.14 g/m*3 4.37 C 0.53333 km/h
2904 11-11-2019 00:00:00 4.25833 C 6.03 g/m*3 4.26 C 0.93333 km/h
2905 11-11-2019 01:00:00 3.85 C 5.84 g/m*3 3.85 C 2.53333 km/h
2906 11-11-2019 02:00:00 3.58333 C 5.75 g/m*3 3.58 C 0.4 km/h
2907 11-11-2019 03:00:00 3.30833 C 5.65 g/m*3 3.31 C 2.4 km/h
2908 11-11-2019 04:00:00 3.14167 C 5.58 g/m*3 3.14 C 1.06667 km/h
2909 11-11-2019 05:00:00 3.23333 C 5.64 g/m*3 3.23 C 0.4 km/h
2910 11-11-2019 06:00:00 3.3 C 5.66 g/m*3 3.3 C 0 km/h
2911 11-11-2019 07:00:00 3.39167 C 5.74 g/m*3 3.39 C 0.53333 km/h
2912 11-11-2019 08:00:00 4.16667 C 5.97 g/m*3 2.66 C 6.3 km/h
2913 11-11-2019 09:00:00 4.98333 C 6.13 g/m*3 3.17 C 7.79167 km/h
2914 11-11-2019 10:00:00 5.24167 C 6.15 g/m*3 3.62 C 7.24167 km/h
2915 11-11-2019 11:00:00 5.54167 C 6.22 g/m*3 3.97 C 7.25 km/h
2916 11-11-2019 12:00:00 6.025 C 6.32 g/m*3 4.57 C 7.11667 km/h
2917 11-11-2019 13:00:00 6.425 C 6.42 g/m*3 5.48 C 5.625 km/h
2918 11-11-2019 14:00:00 6.11667 C 6.33 g/m*3 4.76 C 6.83333 km/h
2919 11-11-2019 15:00:00 5.61667 C 6.28 g/m*3 4.75 C 5.08333 km/h
2920 11-11-2019 16:00:00 5.25833 C 6.22 g/m*3 4.1 C 5.75833 km/h
2921 11-11-2019 17:00:00 5.09167 C 6.15 g/m*3 3.6 C 6.71667 km/h
2922 11-11-2019 18:00:00 4.85833 C 6.1 g/m*3 4.86 C 4.14167 km/h
2923 11-11-2019 19:00:00 4.83333 C 6.22 g/m*3 4.83 C 0.8 km/h
2924 11-11-2019 20:00:00 4.8 C 6.3 g/m*3 4.8 C 0.13333 km/h
2925 11-11-2019 21:00:00 4.975 C 6.44 g/m*3 4.97 C 1.06667 km/h
Sensor: Nr:Datum:Temp:Abs-Feuchte:Windchill:Wind:
Aussen-T/F 2926 11-11-2019 22:00:00 5.13333 C 6.51 g/m*3 5.13 C 1.06667 km/h
2927 11-11-2019 23:00:00 5.18333 C 6.6 g/m*3 5.18 C 0.13333 km/h
2928 12-11-2019 00:00:00 5.05 C 6.53 g/m*3 5.05 C 0.13333 km/h
2929 12-11-2019 01:00:00 5.05 C 6.54 g/m*3 4.05 C 5.23333 km/h
2930 12-11-2019 02:00:00 5.375 C 6.55 g/m*3 5.38 C 3.21667 km/h
2931 12-11-2019 03:00:00 5.475 C 6.47 g/m*3 5.48 C 3.48333 km/h
2932 12-11-2019 04:00:00 5.6 C 6.45 g/m*3 5.6 C 2.275 km/h
2933 12-11-2019 05:00:00 5.45833 C 6.41 g/m*3 5.46 C 1.06667 km/h
2934 12-11-2019 06:00:00 5.375 C 6.4 g/m*3 5.38 C 2.26667 km/h
2935 12-11-2019 07:00:00 5.7 C 6.39 g/m*3 5.7 C 2.4 km/h
2936 12-11-2019 08:00:00 5.88333 C 6.42 g/m*3 5.88 C 2 km/h
2937 12-11-2019 09:00:00 6.58333 C 6.53 g/m*3 6.58 C 2.94167 km/h
2938 12-11-2019 10:00:00 7.66667 C 6.68 g/m*3 6.7 C 6.3 km/h
2939 12-11-2019 11:00:00 8.03333 C 6.79 g/m*3 6.34 C 9.7 km/h
2940 12-11-2019 12:00:00 7.91667 C 6.89 g/m*3 5.25 C 15.7 km/h
2941 12-11-2019 13:00:00 7.73333 C 6.67 g/m*3 4.97 C 16.1 km/h
2942 12-11-2019 14:00:00 7.76667 C 6.55 g/m*3 5.68 C 11.55833 km/h
2943 12-11-2019 15:00:00 7.75833 C 6.52 g/m*3 5.99 C 9.81667 km/h
2944 12-11-2019 16:00:00 7.31667 C 6.41 g/m*3 5.6 C 9.14167 km/h
2945 12-11-2019 17:00:00 6.60833 C 6.23 g/m*3 5.78 C 5.35833 km/h
2946 12-11-2019 18:00:00 5.85 C 6.26 g/m*3 5.85 C 0.53333 km/h
2947 12-11-2019 19:00:00 4.65833 C 5.93 g/m*3 4.66 C 0 km/h
2948 12-11-2019 20:00:00 3.29167 C 5.55 g/m*3 3.29 C 0.13333 km/h
2949 12-11-2019 21:00:00 3.23333 C 5.65 g/m*3 3.23 C 0.4 km/h
2950 12-11-2019 22:00:00 3.85 C 5.94 g/m*3 3.85 C 2.4 km/h
Sensor: Nr:Datum:Temp:Abs-Feuchte:Windchill:Wind:
Aussen-T/F 2951 12-11-2019 23:00:00 4.66667 C 6.06 g/m*3 4.67 C 3.21667 km/h
2952 13-11-2019 00:00:00 4.89167 C 5.98 g/m*3 4.89 C 1.6 km/h
2953 13-11-2019 01:00:00 4.65833 C 5.91 g/m*3 4.66 C 0.26667 km/h
2954 13-11-2019 02:00:00 3.33333 C 5.52 g/m*3 3.33 C 0.8 km/h
2955 13-11-2019 03:00:00 4.14167 C 5.76 g/m*3 4.14 C 2.81667 km/h
2956 13-11-2019 04:00:00 4.48333 C 5.82 g/m*3 4.48 C 0.93333 km/h
2957 13-11-2019 05:00:00 4.53333 C 5.87 g/m*3 4.53 C 0.66667 km/h
2958 13-11-2019 06:00:00 4.50833 C 5.89 g/m*3 4.51 C 0.53333 km/h
2959 13-11-2019 07:00:00 4.16667 C 5.82 g/m*3 4.17 C 0 km/h
2960 13-11-2019 08:00:00 4.58333 C 5.99 g/m*3 4.58 C 0.4 km/h
2961 13-11-2019 09:00:00 5.43333 C 6.19 g/m*3 4 C 6.725 km/h
2962 13-11-2019 10:00:00 6.01667 C 6.27 g/m*3 4.97 C 5.75833 km/h
2963 13-11-2019 11:00:00 6.30833 C 6.36 g/m*3 4.37 C 9.28333 km/h
2964 13-11-2019 12:00:00 6.81667 C 6.46 g/m*3 4.73 C 10.48333 km/h
2965 13-11-2019 13:00:00 6.775 C 6.44 g/m*3 5.17 C 8.20833 km/h
2966 13-11-2019 14:00:00 6.65 C 6.48 g/m*3 4.69 C 9.68333 km/h
2967 13-11-2019 15:00:00 6.69167 C 6.52 g/m*3 5.11 C 8.04167 km/h
2968 13-11-2019 16:00:00 6.6 C 6.52 g/m*3 5.68 C 5.625 km/h
2969 13-11-2019 17:00:00 6.41667 C 6.49 g/m*3 6.42 C 1.33333 km/h
2970 13-11-2019 18:00:00 6.35 C 6.51 g/m*3 6.35 C 0.26667 km/h
2971 13-11-2019 19:00:00 6.225 C 6.53 g/m*3 6.23 C 2.53333 km/h
2972 13-11-2019 20:00:00 6.26667 C 6.51 g/m*3 6.27 C 4.15 km/h
2973 13-11-2019 21:00:00 5.9 C 6.44 g/m*3 5.9 C 0 km/h
2974 13-11-2019 22:00:00 5.025 C 6.18 g/m*3 5.03 C 0.53333 km/h
2975 13-11-2019 23:00:00 4.60833 C 6.09 g/m*3 4.61 C 0.26667 km/h
Sensor: Nr:Datum:Temp:Abs-Feuchte:Windchill:Wind:
Aussen-T/F 2976 14-11-2019 00:00:00 4.95 C 6.32 g/m*3 4.95 C 0.26667 km/h
2977 14-11-2019 01:00:00 4.81667 C 6.23 g/m*3 4.82 C 1.06667 km/h
2978 14-11-2019 02:00:00 4.8 C 6.32 g/m*3 4.8 C 0.26667 km/h
2979 14-11-2019 03:00:00 5.425 C 6.56 g/m*3 5.43 C 1.73333 km/h
2980 14-11-2019 04:00:00 5.69167 C 6.56 g/m*3 5.69 C 1.46667 km/h
2981 14-11-2019 05:00:00 4.84167 C 6.26 g/m*3 4.84 C 0 km/h
2982 14-11-2019 06:00:00 4.70833 C 6.28 g/m*3 4.71 C 0.8 km/h
2983 14-11-2019 07:00:00 5.25833 C 6.3 g/m*3 4.34 C 5.09167 km/h
2984 14-11-2019 08:00:00 5.28333 C 6.17 g/m*3 5.28 C 3.46667 km/h
2985 14-11-2019 09:00:00 5.64167 C 6.2 g/m*3 5.64 C 4 km/h
2986 14-11-2019 10:00:00 6.68333 C 6.33 g/m*3 6.68 C 4.55 km/h
2987 14-11-2019 11:00:00 7.86667 C 6.26 g/m*3 7.17 C 5.49167 km/h
2988 14-11-2019 12:00:00 8.725 C 6.09 g/m*3 7.78 C 6.84167 km/h
2989 14-11-2019 13:00:00 8.68333 C 6.07 g/m*3 8.68 C 4.53333 km/h
2990 14-11-2019 14:00:00 9.01667 C 5.98 g/m*3 9.02 C 4.825 km/h
2991 14-11-2019 15:00:00 8.2 C 6.17 g/m*3 8.2 C 1.2 km/h
2992 14-11-2019 16:00:00 6.66667 C 6.05 g/m*3 6.67 C 0 km/h
2993 14-11-2019 17:00:00 4.96667 C 5.66 g/m*3 4.97 C 0.53333 km/h
2994 14-11-2019 18:00:00 4.48333 C 5.6 g/m*3 4.48 C 0.66667 km/h
2995 14-11-2019 19:00:00 3.86667 C 5.46 g/m*3 3.87 C 0 km/h
2996 14-11-2019 20:00:00 3.45 C 5.44 g/m*3 3.45 C 0.13333 km/h
2997 14-11-2019 21:00:00 2.86667 C 5.32 g/m*3 2.87 C 0 km/h
2998 14-11-2019 22:00:00 2.55833 C 5.32 g/m*3 2.56 C 0 km/h
2999 14-11-2019 23:00:00 2.725 C 5.44 g/m*3 2.73 C 0 km/h
3000 15-11-2019 00:00:00 2.975 C 5.57 g/m*3 2.98 C 0 km/h
Sensor: Nr:Datum:Temp:Abs-Feuchte:Windchill:Wind:
Aussen-T/F 3001 15-11-2019 01:00:00 3.43333 C 5.73 g/m*3 3.43 C 0 km/h
3002 15-11-2019 02:00:00 3.43333 C 5.69 g/m*3 3.43 C 0.13333 km/h
3003 15-11-2019 03:00:00 3.4 C 5.63 g/m*3 3.4 C 0.4 km/h
3004 15-11-2019 04:00:00 3.36667 C 5.59 g/m*3 3.37 C 2.4 km/h
3005 15-11-2019 05:00:00 3.53333 C 5.56 g/m*3 3.53 C 0.8 km/h
3006 15-11-2019 06:00:00 3.89167 C 5.55 g/m*3 3.89 C 4.29167 km/h
3007 15-11-2019 07:00:00 3.88333 C 5.52 g/m*3 3.88 C 2.66667 km/h
3008 15-11-2019 08:00:00 4.05833 C 5.58 g/m*3 4.06 C 1.88333 km/h
3009 15-11-2019 09:00:00 4.275 C 5.67 g/m*3 4.28 C 1.74167 km/h
3010 15-11-2019 10:00:00 5.38333 C 5.82 g/m*3 5.38 C 3.2 km/h
3011 15-11-2019 11:00:00 5.86667 C 5.88 g/m*3 5.03 C 5.1 km/h
3012 15-11-2019 12:00:00 6.55 C 6.08 g/m*3 6.55 C 3.35 km/h
3013 15-11-2019 13:00:00 7.05 C 6.26 g/m*3 7.05 C 1.06667 km/h
3014 15-11-2019 14:00:00 7.68333 C 6.42 g/m*3 7.68 C 2.13333 km/h
3015 15-11-2019 15:00:00 7.875 C 6.45 g/m*3 7.88 C 2.26667 km/h
3016 15-11-2019 16:00:00 6.54167 C 6.22 g/m*3 6.54 C 0.13333 km/h
3017 15-11-2019 17:00:00 4.75833 C 5.93 g/m*3 4.76 C 0 km/h
3018 15-11-2019 18:00:00 4.63333 C 6.01 g/m*3 4.63 C 0.26667 km/h
3019 15-11-2019 19:00:00 4.50833 C 6.02 g/m*3 4.51 C 0 km/h
3020 15-11-2019 20:00:00 4.2 C 5.93 g/m*3 4.2 C 0 km/h
3021 15-11-2019 21:00:00 4.05 C 5.93 g/m*3 4.05 C 0 km/h
3022 15-11-2019 22:00:00 3.70833 C 5.81 g/m*3 3.71 C 0 km/h
3023 15-11-2019 23:00:00 3.49167 C 5.77 g/m*3 3.49 C 0 km/h
3024 16-11-2019 00:00:00 3.30833 C 5.71 g/m*3 3.31 C 0 km/h
3025 16-11-2019 01:00:00 3.225 C 5.73 g/m*3 3.23 C 0.13333 km/h
Sensor: Nr:Datum:Temp:Abs-Feuchte:Windchill:Wind:
Aussen-T/F 3026 16-11-2019 02:00:00 3.11667 C 5.69 g/m*3 3.12 C 0.13333 km/h
3027 16-11-2019 03:00:00 2.63333 C 5.5 g/m*3 2.63 C 0 km/h
3028 16-11-2019 04:00:00 1.85 C 5.2 g/m*3 1.85 C 0 km/h
3029 16-11-2019 05:00:00 0.85 C 4.88 g/m*3 0.85 C 0 km/h
3030 16-11-2019 06:00:00 0.08333 C 4.63 g/m*3 0.08 C 0 km/h
3031 16-11-2019 07:00:00 -0.30833 C 4.52 g/m*3 -0.31 C 0.26667 km/h
3032 16-11-2019 08:00:00 0.24167 C 4.73 g/m*3 0.24 C 2.13333 km/h
3033 16-11-2019 09:00:00 0.31667 C 4.77 g/m*3 0.32 C 4.53333 km/h
3034 16-11-2019 10:00:00 0.74167 C 4.95 g/m*3 0.74 C 2.8 km/h
3035 16-11-2019 11:00:00 1.425 C 5.18 g/m*3 1.43 C 2.53333 km/h
3036 16-11-2019 12:00:00 2.25833 C 5.49 g/m*3 2.26 C 0 km/h
3037 16-11-2019 13:00:00 3.375 C 5.91 g/m*3 3.38 C 0 km/h
3038 16-11-2019 14:00:00 4.20833 C 6.25 g/m*3 4.21 C 0.13333 km/h
3039 16-11-2019 15:00:00 4.66667 C 6.39 g/m*3 4.67 C 0.4 km/h
3040 16-11-2019 16:00:00 4.58333 C 6.18 g/m*3 4.58 C 0.26667 km/h
3041 16-11-2019 17:00:00 3.94167 C 5.92 g/m*3 3.94 C 0.26667 km/h
3042 16-11-2019 18:00:00 3.20833 C 5.7 g/m*3 3.21 C 0.4 km/h
3043 16-11-2019 19:00:00 2.55833 C 5.48 g/m*3 2.56 C 0.13333 km/h
3044 16-11-2019 20:00:00 1.94167 C 5.29 g/m*3 1.94 C 0 km/h
3045 16-11-2019 21:00:00 1.55833 C 5.17 g/m*3 1.56 C 0 km/h
3046 16-11-2019 22:00:00 0.79167 C 4.91 g/m*3 0.79 C 0.13333 km/h
3047 16-11-2019 23:00:00 0.15833 C 4.7 g/m*3 0.16 C 0 km/h
3048 17-11-2019 00:00:00 -0.3 C 4.56 g/m*3 -0.3 C 0 km/h
3049 17-11-2019 01:00:00 -0.69167 C 4.44 g/m*3 -0.69 C 0 km/h
3050 17-11-2019 02:00:00 -0.11667 C 4.65 g/m*3 -0.12 C 0 km/h
Sensor: Nr:Datum:Temp:Abs-Feuchte:Windchill:Wind:
Aussen-T/F 3051 17-11-2019 03:00:00 0.8 C 4.97 g/m*3 0.8 C 0 km/h
3052 17-11-2019 04:00:00 1.475 C 5.2 g/m*3 1.48 C 0 km/h
3053 17-11-2019 05:00:00 1.65833 C 5.27 g/m*3 1.66 C 0 km/h
3054 17-11-2019 06:00:00 1.7 C 5.28 g/m*3 1.7 C 0 km/h
3055 17-11-2019 07:00:00 1.825 C 5.33 g/m*3 1.83 C 0 km/h
3056 17-11-2019 08:00:00 1.96667 C 5.38 g/m*3 1.97 C 0 km/h
3057 17-11-2019 09:00:00 2.475 C 5.58 g/m*3 2.48 C 0 km/h
3058 17-11-2019 10:00:00 3.15 C 5.89 g/m*3 3.15 C 0.26667 km/h
3059 17-11-2019 11:00:00 3.91667 C 6.2 g/m*3 3.92 C 0.13333 km/h
3060 17-11-2019 12:00:00 4.31667 C 6.36 g/m*3 4.32 C 0 km/h
3061 17-11-2019 13:00:00 4.90833 C 6.62 g/m*3 4.91 C 0 km/h
3062 17-11-2019 14:00:00 5.1 C 6.69 g/m*3 5.1 C 0.93333 km/h
3063 17-11-2019 15:00:00 4.88333 C 6.54 g/m*3 4.88 C 1.33333 km/h
3064 17-11-2019 16:00:00 4.65 C 6.44 g/m*3 4.65 C 2.66667 km/h
3065 17-11-2019 17:00:00 4.43333 C 6.35 g/m*3 4.43 C 2.13333 km/h
3066 17-11-2019 18:00:00 4.63333 C 6.43 g/m*3 4.63 C 1.6 km/h
3067 17-11-2019 19:00:00 4.7 C 6.46 g/m*3 3.15 C 6.70833 km/h
3068 17-11-2019 20:00:00 4.71667 C 6.47 g/m*3 4.72 C 3.74167 km/h
3069 17-11-2019 21:00:00 4.7 C 6.46 g/m*3 3.51 C 5.625 km/h
3070 17-11-2019 22:00:00 4.7 C 6.46 g/m*3 4.7 C 1.2 km/h
3071 17-11-2019 23:00:00 4.625 C 6.43 g/m*3 4.63 C 2.95 km/h
3072 18-11-2019 00:00:00 4.375 C 6.32 g/m*3 3.18 C 5.5 km/h
3073 18-11-2019 01:00:00 4.2 C 6.25 g/m*3 2.71 C 6.29167 km/h
3074 18-11-2019 02:00:00 4.2 C 6.25 g/m*3 4.2 C 4.41667 km/h
3075 18-11-2019 03:00:00 4.2 C 6.25 g/m*3 4.2 C 2.93333 km/h
Sensor: Nr:Datum:Temp:Abs-Feuchte:Windchill:Wind:
Aussen-T/F 3076 18-11-2019 04:00:00 4.2 C 6.25 g/m*3 4.2 C 4.00833 km/h
3077 18-11-2019 05:00:00 4.175 C 6.24 g/m*3 4.18 C 1.73333 km/h
3078 18-11-2019 06:00:00 4.1 C 6.21 g/m*3 4.1 C 0.53333 km/h
3079 18-11-2019 07:00:00 4.08333 C 6.2 g/m*3 4.08 C 0.4 km/h
3080 18-11-2019 08:00:00 4.14167 C 6.23 g/m*3 4.14 C 0 km/h
3081 18-11-2019 09:00:00 4.40833 C 6.34 g/m*3 4.41 C 0.13333 km/h
3082 18-11-2019 10:00:00 4.86667 C 6.58 g/m*3 4.87 C 0.26667 km/h
3083 18-11-2019 11:00:00 5.025 C 6.6 g/m*3 5.03 C 0.93333 km/h
3084 18-11-2019 12:00:00 5.30833 C 6.7 g/m*3 5.31 C 3.46667 km/h
3085 18-11-2019 13:00:00 5.33333 C 6.67 g/m*3 5.33 C 3.46667 km/h
3086 18-11-2019 14:00:00 5.35833 C 6.63 g/m*3 5.36 C 4 km/h
3087 18-11-2019 15:00:00 5.19167 C 6.54 g/m*3 5.19 C 3.6 km/h
3088 18-11-2019 16:00:00 4.86667 C 6.4 g/m*3 4.87 C 4.29167 km/h
3089 18-11-2019 17:00:00 4.78333 C 6.36 g/m*3 4.78 C 4.55 km/h
3090 18-11-2019 18:00:00 4.65833 C 6.31 g/m*3 4.66 C 4.01667 km/h
3091 18-11-2019 19:00:00 4.08333 C 6.07 g/m*3 2.01 C 8.19167 km/h
3092 18-11-2019 20:00:00 3.23333 C 5.74 g/m*3 0.59 C 9.81667 km/h
3093 18-11-2019 21:00:00 2.55833 C 5.51 g/m*3 -0.5 C 11.03333 km/h
3094 18-11-2019 22:00:00 2.88333 C 5.66 g/m*3 0.08 C 10.23333 km/h
3095 18-11-2019 23:00:00 3.25 C 5.8 g/m*3 0.22 C 11.56667 km/h
3096 19-11-2019 00:00:00 3.7 C 5.98 g/m*3 1.02 C 10.35833 km/h
3097 19-11-2019 01:00:00 4.01667 C 6.11 g/m*3 2.19 C 7.25833 km/h
3098 19-11-2019 02:00:00 4.2 C 6.19 g/m*3 2.84 C 5.89167 km/h
3099 19-11-2019 03:00:00 4.25833 C 6.21 g/m*3 4.26 C 3.2 km/h
3100 19-11-2019 04:00:00 4.325 C 6.24 g/m*3 2.67 C 6.85833 km/h
Sensor: Nr:Datum:Temp:Abs-Feuchte:Windchill:Wind:
Aussen-T/F 3101 19-11-2019 05:00:00 3.475 C 5.88 g/m*3 3.48 C 0.8 km/h
3102 19-11-2019 06:00:00 2.85 C 5.66 g/m*3 2.85 C 2.66667 km/h
3103 19-11-2019 07:00:00 2.93333 C 5.72 g/m*3 2.93 C 0.53333 km/h
3104 19-11-2019 08:00:00 3.18333 C 5.84 g/m*3 3.18 C 2.13333 km/h
3105 19-11-2019 09:00:00 4.025 C 6.17 g/m*3 2.79 C 5.48333 km/h
3106 19-11-2019 10:00:00 4.00833 C 6.14 g/m*3 4.01 C 2 km/h
3107 19-11-2019 11:00:00 4.65833 C 6.44 g/m*3 4.66 C 3.89167 km/h
3108 19-11-2019 12:00:00 6.175 C 6.72 g/m*3 4.71 C 7.24167 km/h
3109 19-11-2019 13:00:00 6.35 C 6.55 g/m*3 5.18 C 6.30833 km/h
3110 19-11-2019 14:00:00 6.63333 C 6.58 g/m*3 5.72 C 5.61667 km/h
3111 19-11-2019 15:00:00 6.55 C 6.77 g/m*3 6.55 C 0.93333 km/h
3112 19-11-2019 16:00:00 5.54167 C 6.53 g/m*3 5.54 C 2.53333 km/h
3113 19-11-2019 17:00:00 4.175 C 6.03 g/m*3 4.18 C 1.33333 km/h
3114 19-11-2019 18:00:00 3.325 C 5.77 g/m*3 3.33 C 0.26667 km/h
3115 19-11-2019 19:00:00 2.74167 C 5.56 g/m*3 2.74 C 0.13333 km/h
3116 19-11-2019 20:00:00 2.3 C 5.45 g/m*3 2.3 C 0.4 km/h
3117 19-11-2019 21:00:00 2.80833 C 5.67 g/m*3 2.81 C 2.14167 km/h
3118 19-11-2019 22:00:00 2.45 C 5.51 g/m*3 2.45 C 0.4 km/h
3119 19-11-2019 23:00:00 1.10833 C 5.02 g/m*3 1.11 C 0 km/h
3120 20-11-2019 00:00:00 0.60833 C 4.85 g/m*3 0.61 C 0.13333 km/h
3121 20-11-2019 01:00:00 0.23333 C 4.73 g/m*3 0.23 C 0 km/h
3122 20-11-2019 02:00:00 0.35833 C 4.82 g/m*3 0.36 C 0 km/h
3123 20-11-2019 03:00:00 0.55833 C 4.88 g/m*3 0.56 C 2.14167 km/h
3124 20-11-2019 04:00:00 0.39167 C 4.83 g/m*3 0.39 C 2.80833 km/h
3125 20-11-2019 05:00:00 0.675 C 4.92 g/m*3 0.68 C 2.66667 km/h
Sensor: Nr:Datum:Temp:Abs-Feuchte:Windchill:Wind:
Aussen-T/F 3126 20-11-2019 06:00:00 0.75833 C 4.95 g/m*3 0.76 C 0.13333 km/h
3127 20-11-2019 07:00:00 1.01667 C 5.04 g/m*3 1.02 C 0.26667 km/h
3128 20-11-2019 08:00:00 1.275 C 5.15 g/m*3 1.27 C 0 km/h
3129 20-11-2019 09:00:00 1.85 C 5.39 g/m*3 1.85 C 0.26667 km/h
3130 20-11-2019 10:00:00 2.61667 C 5.68 g/m*3 2.62 C 0.26667 km/h
3131 20-11-2019 11:00:00 3.025 C 5.82 g/m*3 3.03 C 1.46667 km/h
3132 20-11-2019 12:00:00 4.16667 C 6.22 g/m*3 4.17 C 4.54167 km/h
3133 20-11-2019 13:00:00 4.9 C 6.09 g/m*3 2.97 C 8.19167 km/h
3134 20-11-2019 14:00:00 5.275 C 5.97 g/m*3 5.28 C 4.15 km/h
3135 20-11-2019 15:00:00 5.225 C 5.87 g/m*3 5.23 C 1.33333 km/h
3136 20-11-2019 16:00:00 3.54167 C 5.45 g/m*3 3.54 C 0.26667 km/h
3137 20-11-2019 17:00:00 2.34167 C 5.25 g/m*3 2.34 C 0 km/h
3138 20-11-2019 18:00:00 1.31667 C 4.96 g/m*3 1.32 C 0.13333 km/h
3139 20-11-2019 19:00:00 0.4 C 4.7 g/m*3 0.4 C 0 km/h
3140 20-11-2019 20:00:00 -0.19167 C 4.54 g/m*3 -0.19 C 0 km/h
3141 20-11-2019 21:00:00 -0.59167 C 4.45 g/m*3 -0.59 C 0 km/h
3142 20-11-2019 22:00:00 -0.85 C 4.39 g/m*3 -0.85 C 0.26667 km/h
3143 20-11-2019 23:00:00 -0.6 C 4.47 g/m*3 -0.6 C 0 km/h
3144 21-11-2019 00:00:00 -0.6 C 4.48 g/m*3 -0.6 C 0 km/h
3145 21-11-2019 01:00:00 -1.19167 C 4.28 g/m*3 -1.19 C 0 km/h
3146 21-11-2019 02:00:00 -1.4 C 4.22 g/m*3 -1.4 C 0 km/h
3147 21-11-2019 03:00:00 -1.23333 C 4.31 g/m*3 -1.23 C 0 km/h
3148 21-11-2019